[[{"header":{"parameterUnit":"m.s-1","parameterCategory":1,"la1":31.0,"la2":29.5877,"lo1":-88.7671,"lo2":-86.6584,"dy":0.0162,"dx":0.0185,"nx":115,"ny":88,"refTime":"2023-07-28T06:00:00:Z","depth":0,"parameterNumber":2,"parameterNumberName":"U-component_of_WINDS"},"data":[0.0,0.0,0.0,0.0,0.0,0.0,0.0,0.0,0.0,0.0,0.0,0.0,0.0,0.0,0.0,0.0,0.0,0.0,0.0,0.0,0.0,0.0,0.0,0.0,0.0,0.0,0.0,0.0,0.0,0.0,0.0,0.0,0.0,0.0,0.0,0.0,0.0,0.0,0.0,0.0,0.0,0.0,0.0,0.0,0.0,0.0,0.0,0.0,0.0,0.0,0.0,0.0,0.0,0.0,0.0,0.0,0.0,0.0,0.0,0.0,0.0,0.0,0.0,0.0,0.0,0.0,0.0,0.0,0.0,0.0,0.0,0.0,0.0,0.0,0.0,0.0,0.0,0.0,0.0,0.0,0.0,0.0,0.0,0.0,0.0,0.0,0.0,0.0,0.0,0.0,0.0,0.0,0.0,0.0,0.0,0.0,0.0,0.0,0.0,0.0,0.0,0.0,0.0,0.0,0.0,0.0,0.0,0.0,0.0,0.0,0.0,0.0,0.0,0.0,0.0,0.0,0.0,0.0,0.0,0.0,0.0,0.0,0.0,0.0,0.0,0.0,0.0,0.0,0.0,0.0,0.0,0.0,0.0,0.0,0.0,0.0,0.0,0.0,0.0,0.0,0.0,0.0,0.0,0.0,0.0,0.0,0.0,0.0,0.0,0.0,0.0,0.0,0.0,0.0,0.0,0.0,0.0,0.0,0.0,0.0,0.0,0.0,0.0,0.0,0.0,0.0,0.0,0.0,0.0,0.0,0.0,0.0,0.0,0.0,0.0,0.0,0.0,0.0,0.0,0.0,0.0,0.0,0.0,0.0,0.0,0.0,0.0,0.0,0.0,0.0,0.0,0.0,0.0,0.0,0.0,0.0,0.0,0.0,0.0,0.0,0.0,0.0,0.0,0.0,0.0,0.0,0.0,0.0,0.0,0.0,0.0,0.0,0.0,0.0,0.0,0.0,0.0,0.0,0.0,0.0,0.0,0.0,0.0,0.0,0.0,0.0,0.0,0.0,0.0,0.0,0.0,0.0,0.0,0.0,0.0,0.0,0.0,0.0,0.0,0.0,0.0,0.0,0.0,0.0,0.0,0.0,0.0,0.0,0.0,0.0,0.0,0.0,0.0,0.0,0.0,0.0,0.0,0.0,0.0,0.0,0.0,0.0,0.0,0.0,0.0,0.0,0.0,0.0,0.0,0.0,0.0,0.0,0.0,0.0,0.0,0.0,0.0,0.0,0.0,0.0,0.0,0.0,0.0,0.0,0.0,0.0,0.0,0.0,0.0,0.0,0.0,0.0,0.0,0.0,0.0,0.0,0.0,0.0,0.0,0.0,0.0,0.0,0.0,0.0,0.0,0.0,0.0,0.0,0.0,0.0,0.0,0.0,0.0,0.0,0.0,0.0,0.0,0.0,0.0,0.0,0.0,0.0,0.0,0.0,0.0,0.0,0.0,0.0,0.0,0.0,0.0,0.0,0.0,0.0,0.0,0.0,0.0,0.0,0.0,0.0,0.0,0.0,0.0,0.0,0.0,0.0,0.0,0.0,0.0,0.0,0.0,0.0,0.0,0.0,0.0,0.0,0.0,0.0,0.0,0.0,0.0,0.0,0.0,0.0,0.0,0.0,0.0,0.0,0.0,0.0,0.0,0.0,0.0,0.0,0.0,0.0,0.0,0.0,0.0,0.0,0.0,0.0,0.0,0.0,0.0,0.0,0.0,0.0,0.0,0.0,0.0,0.0,0.0,0.0,0.0,0.0,0.0,0.0,0.0,0.0,0.0,0.0,0.0,0.0,0.0,0.0,0.0,0.0,0.0,0.0,0.0,0.0,0.0,0.0,0.0,0.0,0.0,0.0,0.0,0.0,0.0,0.0,0.0,0.0,0.0,0.0,0.0,0.0,0.0,0.0,0.0,0.0,0.0,0.0,0.0,0.0,0.0,0.0,0.0,0.0,0.0,0.0,0.0,0.0,0.0,0.0,0.0,0.0,0.0,0.0,0.0,0.0,0.0,0.0,0.0,0.0,0.0,0.0,0.0,0.0,0.0,0.0,0.0,0.0,0.0,0.0,0.0,0.0,0.0,0.0,0.0,0.0,0.0,0.0,0.0,0.0,0.0,0.0,0.0,0.0,0.0,0.0,0.0,0.0,0.0,0.0,0.0,0.0,0.0,0.0,0.0,0.0,0.0,0.0,0.0,0.0,0.0,0.0,0.0,0.0,0.0,0.0,0.0,0.0,0.0,0.0,0.0,0.0,0.0,0.0,0.0,0.0,0.0,0.0,0.0,0.0,0.0,0.0,0.0,0.0,0.0,0.0,0.0,0.0,0.0,0.0,0.0,0.0,0.0,0.0,0.0,0.0,0.0,0.0,0.0,0.0,0.0,0.0,0.0,0.0,0.0,0.0,0.0,0.0,0.0,0.0,0.0,0.0,0.0,0.0,0.0,0.0,0.0,0.0,0.0,0.0,0.0,0.0,0.0,0.0,0.0,0.0,0.0,0.0,0.0,0.0,0.0,0.0,0.0,0.0,0.0,0.0,0.0,0.0,0.0,0.0,0.0,0.0,0.0,0.0,0.0,0.0,0.0,0.0,0.0,0.0,0.0,0.0,0.0,0.0,0.0,0.0,0.0,0.0,0.0,0.0,0.0,0.0,0.0,0.0,0.0,0.0,0.0,0.0,0.0,0.0,0.0,0.0,0.0,0.0,0.0,0.0,0.0,0.0,0.0,0.0,0.0,0.0,0.0,0.0,0.0,0.0,0.0,0.0,0.0,0.0,0.0,0.0,0.0,0.0,0.0,0.0,0.0,0.0,0.0,0.0,0.0,0.0,0.0,0.0,0.0,0.0,0.0,0.0,0.0,0.0,0.0,0.0,0.0,0.0,0.0,0.0,0.0,0.0,0.0,0.0,0.0,0.0,0.0,0.0,0.0,0.0,0.0,0.0,0.0,0.0,0.0,0.0,0.0,0.0,0.0,0.0,0.0,0.0,0.0,0.0,0.0,0.0,0.0,0.0,0.0,0.0,0.0,0.0,0.0,0.0,0.0,0.0,0.0,0.0,0.0,0.0,0.0,0.0,0.0,0.0,0.0,0.0,0.0,0.0,0.0,0.0,0.0,0.0,0.0,0.0,0.0,0.0,0.0,0.0,0.0,0.0,0.0,0.0,0.0,0.0,0.0,0.0,0.0,0.0,0.0,0.0,0.0,0.0,0.0,0.0,0.0,0.0,0.0,0.0,0.0,0.0,0.0,0.0,0.0,0.0,0.0,0.0,0.0,0.0,0.0,0.0,0.0,0.0,0.0,0.0,0.0,0.0,0.0,0.0,0.0,0.0,0.0,0.0,0.0,0.0,0.0,0.0,0.0,0.0,0.0,0.0,0.0,0.0,0.0,0.0,0.0,0.0,0.0,0.0,0.0,0.0,0.0,0.0,0.0,0.0,0.0,0.0,0.0,0.0,0.0,0.0,0.0,0.0,0.0,0.0,0.0,0.0,0.0,0.0,0.0,0.0,0.0,0.0,0.0,0.0,0.0,0.0,0.0,0.0,0.0,0.0,0.0,0.0,0.0,0.0,0.0,0.0,0.0,0.0,0.0,0.0,0.0,0.0,0.0,0.0,0.0,0.0,0.0,0.0,0.0,0.0,0.0,0.0,0.0,0.0,0.0,0.0,0.0,0.0,0.0,0.0,0.0,0.0,0.0,0.0,0.0,0.0,0.0,0.0,0.0,0.0,0.0,0.0,0.0,0.0,0.0,0.0,0.0,0.0,0.0,0.0,0.0,0.0,0.0,0.0,0.0,0.0,0.0,0.0,0.0,0.0,0.0,0.0,0.0,0.0,0.0,0.0,0.0,0.0,0.0,0.0,0.0,0.0,0.0,0.0,0.0,0.0,0.0,0.0,0.0,0.0,0.0,0.0,0.0,0.0,0.0,0.0,0.0,0.0,0.0,0.0,0.0,0.0,0.0,0.0,0.0,0.0,0.0,0.0,0.0,0.0,0.0,0.0,0.0,0.0,0.0,0.0,0.0,0.0,0.0,0.0,0.0,0.0,0.0,0.0,0.0,0.0,0.0,0.0,0.0,0.0,0.0,0.0,0.0,0.0,0.0,0.0,0.0,0.0,0.0,0.0,0.0,0.0,0.0,0.0,0.0,0.0,0.0,0.0,0.0,0.0,0.0,0.0,0.0,0.0,0.0,0.0,0.0,0.0,0.0,0.0,0.0,0.0,0.0,0.0,0.0,0.0,0.0,0.0,0.0,0.0,0.0,0.0,0.0,0.0,-0.9721,0.0,0.0,0.0,0.0,0.0,0.0,0.0,0.0,0.0,0.0,0.0,0.0,0.0,0.0,0.0,0.0,0.0,0.0,0.0,0.0,0.0,0.0,0.0,0.0,0.0,0.0,0.0,0.0,0.0,0.0,0.0,0.0,0.0,0.0,0.0,0.0,0.0,0.0,0.0,0.0,0.0,0.0,0.0,0.0,0.0,0.0,0.0,0.0,0.0,0.0,0.0,0.0,0.0,0.0,0.0,0.0,0.0,0.0,0.0,0.0,0.0,0.0,0.0,0.0,0.0,0.0,0.0,0.0,0.0,0.0,0.0,0.0,0.0,0.0,0.0,0.0,0.0,0.0,0.0,0.0,0.0,0.0,0.0,0.0,0.0,0.0,0.0,0.0,0.0,0.0,0.0,0.0,0.0,0.0,0.0,0.0,0.0,0.0,0.0,0.0,0.0,0.0,0.0,0.0,0.0,0.0,0.0,0.0,0.0,0.0,-0.9779,-0.8813,-1.0391,-1.0659,-0.9387,0.0,0.0,0.0,0.0,0.0,0.0,0.0,0.0,0.0,0.0,0.0,0.0,0.0,0.0,0.0,0.0,0.0,0.0,0.0,0.0,0.0,0.0,0.0,0.0,0.0,0.0,0.0,0.0,0.0,0.0,0.0,0.0,0.0,0.0,0.0,0.0,0.0,0.0,0.0,0.0,0.0,0.0,0.0,0.0,0.0,0.0,0.0,0.0,0.0,0.0,0.0,0.0,0.0,0.0,0.0,0.0,0.0,0.0,0.0,0.0,0.0,0.0,0.0,0.0,0.0,0.0,0.0,0.0,0.0,0.0,0.0,0.0,0.0,0.0,0.0,0.0,0.0,0.0,0.0,0.0,0.0,0.0,0.0,0.0,0.0,0.0,0.0,0.0,0.0,0.0,0.0,0.0,0.0,0.0,0.0,0.0,0.0,0.0,0.0,0.0,0.0,0.0,0.0,0.0,0.0,0.0,0.0,0.0,0.0,0.0,0.0,0.0,-1.117,-1.1328,-1.0343,0.0,0.0,0.0,0.0,0.0,0.0,0.0,0.0,0.0,0.0,0.0,0.0,0.0,0.0,0.0,0.0,0.0,0.0,0.0,0.0,0.0,0.0,0.0,0.0,0.0,0.0,0.0,0.0,0.0,0.0,0.0,0.0,0.0,0.0,0.0,0.0,0.0,0.0,0.0,0.0,0.0,0.0,0.0,0.0,0.0,0.0,0.0,0.0,0.0,0.0,0.0,0.0,0.0,0.0,0.0,0.0,0.0,0.0,0.0,0.0,0.0,0.0,0.0,0.0,0.0,0.0,0.0,0.0,0.0,0.0,0.0,0.0,0.0,0.0,0.0,0.0,0.0,0.0,0.0,0.0,0.0,0.0,0.0,0.0,0.0,0.0,0.0,0.0,0.0,0.0,0.0,0.0,0.0,0.0,0.0,0.0,0.0,0.0,0.0,0.0,0.0,0.0,0.0,0.0,0.0,0.0,0.0,0.0,0.0,0.0,-1.0384,-1.2744,-1.3513,0.0,-1.3682,0.0,0.0,0.0,0.0,0.0,0.0,0.0,0.0,0.0,0.0,0.0,0.0,0.0,0.0,0.0,0.0,0.0,0.0,0.0,0.0,0.0,0.0,0.0,0.0,0.0,0.0,0.0,0.0,0.0,0.0,0.0,0.0,0.0,0.0,0.0,0.0,0.0,0.0,0.0,0.0,0.0,0.0,0.0,0.0,0.0,0.0,0.0,0.0,0.0,0.0,0.0,0.0,0.0,0.0,0.0,0.0,0.0,0.0,0.0,0.0,0.0,0.0,0.0,0.0,0.0,0.0,0.0,0.0,0.0,0.0,0.0,0.0,0.0,0.0,0.0,0.0,0.0,0.0,0.0,0.0,0.0,0.0,0.0,0.0,0.0,0.0,0.0,0.0,0.0,0.0,0.0,0.0,0.0,0.0,0.0,0.0,0.0,0.0,0.0,0.0,0.0,0.0,0.0,0.0,0.0,0.0,0.0,0.0,0.0,0.0,-1.1626,-1.3159,-1.3082,-1.262,0.0,0.0,0.0,0.0,0.0,0.0,0.0,0.0,0.0,0.0,0.0,0.0,0.0,0.0,0.0,0.0,0.0,0.0,0.0,0.0,0.0,0.0,0.0,0.0,0.0,0.0,0.0,0.0,0.0,0.0,0.0,0.0,0.0,0.0,0.0,0.0,0.0,0.0,0.0,0.0,0.0,0.0,0.0,0.0,0.0,0.0,0.0,0.0,0.0,0.0,0.0,0.0,0.0,0.0,0.0,0.0,0.0,0.0,0.0,0.0,0.0,0.0,0.0,0.0,0.0,0.0,0.0,0.0,0.0,0.0,0.0,0.0,0.0,0.0,0.0,0.0,0.0,0.0,0.0,0.0,0.0,0.0,0.0,0.0,0.0,0.0,0.0,0.0,0.0,0.0,0.0,0.0,0.0,0.0,0.0,0.0,0.0,0.0,0.0,0.0,0.0,0.0,0.0,0.0,0.0,0.0,0.0,0.0,0.0,0.0,-1.1999,-1.3083,-1.4421,-1.3005,-1.1809,-1.0974,0.0,0.0,0.0,0.0,0.0,0.0,0.0,0.0,0.0,0.0,0.0,0.0,0.0,0.0,0.0,0.0,0.0,0.0,0.0,0.0,0.0,0.0,0.0,0.0,0.0,0.0,0.0,0.0,0.0,0.0,0.0,0.0,0.0,0.0,0.0,0.0,0.0,0.0,0.0,0.0,0.0,0.0,0.0,0.0,0.0,0.0,0.0,0.0,0.0,0.0,0.0,0.0,0.0,0.0,0.0,0.0,0.0,0.0,0.0,0.0,0.0,0.0,0.0,0.0,0.0,0.0,0.0,0.0,0.0,0.0,0.0,0.0,0.0,0.0,0.0,0.0,0.0,0.0,0.0,0.0,0.0,0.0,0.0,0.0,0.0,0.0,0.0,0.0,0.0,0.0,0.0,0.0,0.0,0.0,0.0,0.0,0.0,0.0,0.0,0.0,0.0,0.0,0.0,0.0,0.0,0.0,0.0,0.0,-1.6076,-1.4196,-1.4623,-1.7669,-1.4221,-1.2472,0.0,0.0,0.0,0.0,0.0,0.0,0.0,0.0,0.0,0.0,0.0,0.0,0.0,0.0,0.0,0.0,0.0,0.0,0.0,0.0,0.0,0.0,0.0,0.0,0.0,0.0,0.0,0.0,0.0,0.0,0.0,0.0,0.0,0.0,0.0,0.0,0.0,0.0,0.0,0.0,0.0,0.0,0.0,0.0,0.0,0.0,0.0,0.0,0.0,0.0,0.0,0.0,0.0,0.0,0.0,0.0,0.0,0.0,0.0,0.0,0.0,0.0,0.0,0.0,0.0,0.0,0.0,0.0,0.0,0.0,0.0,0.0,0.0,0.0,0.0,0.0,0.0,0.0,0.0,0.0,0.0,0.0,0.0,0.0,0.0,0.0,0.0,0.0,0.0,0.0,0.0,0.0,0.0,0.0,0.0,0.0,0.0,0.0,0.0,0.0,0.0,0.0,0.0,0.0,0.0,0.0,0.0,0.0,0.0,-1.1191,-1.2893,-1.4796,-1.6732,-1.4683,-1.379,0.0,0.0,0.0,0.0,0.0,0.0,0.0,0.0,0.0,0.0,0.0,0.0,0.0,0.0,0.0,0.0,0.0,0.0,0.0,0.0,0.0,0.0,0.0,0.0,0.0,0.0,0.0,0.0,0.0,0.0,0.0,0.0,0.0,0.0,0.0,0.0,0.0,0.0,0.0,0.0,0.0,0.0,0.0,0.0,0.0,0.0,0.0,0.0,0.0,0.0,0.0,0.0,0.0,0.0,0.0,0.0,0.0,0.0,0.0,0.0,0.0,0.0,0.0,0.0,0.0,0.0,0.0,0.0,0.0,0.0,0.0,0.0,0.0,0.0,0.0,0.0,0.0,0.0,0.0,0.0,0.0,0.0,0.0,0.0,0.0,0.0,0.0,0.0,0.0,0.0,0.0,0.0,0.0,0.0,0.0,0.0,0.0,0.0,0.0,0.0,0.0,0.0,0.0,0.0,0.0,0.0,0.0,0.0,0.0,-1.0718,0.0,-1.6363,-1.6747,-1.5103,-1.4006,0.0,0.0,0.0,0.0,0.0,0.0,0.0,0.0,0.0,0.0,0.0,0.0,0.0,0.0,0.0,0.0,0.0,0.0,0.0,0.0,0.0,0.0,0.0,0.0,0.0,0.0,0.0,0.0,0.0,0.0,0.0,0.0,0.0,0.0,0.0,0.0,0.0,0.0,0.0,0.0,0.0,0.0,0.0,0.0,0.0,0.0,0.0,0.0,0.0,0.0,0.0,0.0,0.0,0.0,0.0,0.0,0.0,0.0,0.0,0.0,0.0,0.0,0.0,0.0,0.0,0.0,0.0,0.0,0.0,0.0,0.0,0.0,0.0,0.0,0.0,0.0,0.0,0.0,0.0,0.0,0.0,0.0,0.0,0.0,0.0,0.0,0.0,0.0,0.0,0.0,0.0,0.0,0.0,0.0,0.0,0.0,0.0,0.0,0.0,0.0,0.0,0.0,0.0,0.0,0.0,0.0,0.0,0.0,-1.0621,-1.5759,-1.848,-1.9262,-1.8222,-1.558,-1.2974,0.0,0.0,0.0,0.0,0.0,0.0,0.0,0.0,0.0,0.0,0.0,0.0,0.0,0.0,0.0,0.0,0.0,0.0,0.0,0.0,0.0,0.0,0.0,0.0,0.0,0.0,0.0,0.0,0.0,0.0,0.0,0.0,0.0,0.0,0.0,0.0,0.0,0.0,0.0,0.0,0.0,0.0,0.0,0.0,0.0,0.0,0.0,0.0,0.0,0.0,0.0,0.0,0.0,0.0,0.0,0.0,0.0,0.0,0.0,0.0,0.0,0.0,0.0,0.0,0.0,0.0,0.0,0.0,0.0,0.0,0.0,0.0,0.0,0.0,0.0,0.0,0.0,0.0,0.0,0.0,0.0,0.0,0.0,0.0,0.0,0.0,0.0,0.0,0.0,0.0,0.0,0.0,0.0,0.0,0.0,0.0,0.0,0.0,0.0,0.0,0.0,0.0,0.0,0.0,0.0,0.0,0.0,0.0,0.0,-1.3211,-1.6388,-1.8822,-2.0116,-1.5899,-1.4206,0.0,0.0,0.0,0.0,0.0,0.0,0.0,0.0,0.0,0.0,0.0,0.0,0.0,0.0,0.0,0.0,0.0,0.0,0.0,0.0,0.0,0.0,0.0,0.0,0.0,0.0,0.0,0.0,0.0,0.0,0.0,0.0,0.0,0.0,0.0,0.0,0.0,0.0,0.0,0.0,0.0,0.0,0.0,0.0,0.0,0.0,0.0,0.0,0.0,0.0,0.0,0.0,0.0,0.0,0.0,0.0,0.0,0.0,0.0,0.0,0.0,0.0,0.0,0.0,0.0,0.0,0.0,0.0,0.0,0.0,0.0,0.0,0.0,0.0,0.0,0.0,0.0,0.0,0.0,0.0,0.0,0.0,0.0,0.0,0.0,0.0,0.0,0.0,0.0,0.0,0.0,0.0,0.0,0.0,0.0,0.0,0.0,0.0,0.0,0.0,0.0,0.0,0.0,0.0,0.0,0.0,0.0,0.0,0.0,-1.5412,-1.8736,-2.1178,-2.2378,-1.7578,-1.5576,-1.6725,0.0,0.0,0.0,0.0,0.0,0.0,0.0,0.0,0.0,0.0,0.0,0.0,0.0,0.0,0.0,0.0,0.0,0.0,0.0,0.0,0.0,0.0,0.0,0.0,0.0,0.0,0.0,0.0,0.0,0.0,0.0,0.0,0.0,0.0,0.0,0.0,0.0,0.0,0.0,0.0,0.0,0.0,0.0,0.0,0.0,0.0,0.0,0.0,0.0,0.0,0.0,0.0,0.0,0.0,0.0,0.0,0.0,0.0,0.0,0.0,0.0,0.0,0.0,0.0,0.0,0.0,0.0,0.0,0.0,0.0,0.0,0.0,0.0,0.0,0.0,0.0,0.0,0.0,0.0,0.0,0.0,0.0,0.0,0.0,0.0,0.0,0.0,0.0,0.0,0.0,0.0,0.0,0.0,0.0,0.0,0.0,0.0,0.0,0.0,0.0,0.0,0.0,0.0,0.0,0.0,0.0,0.0,0.0,-2.1032,-2.4595,-2.5771,-2.4472,-2.0284,-1.703,0.0,0.0,0.0,0.0,0.0,0.0,0.0,0.0,0.0,0.0,0.0,0.0,0.0,0.0,0.0,0.0,0.0,0.0,0.0,0.0,0.0,0.0,0.0,0.0,0.0,0.0,0.0,0.0,0.0,0.0,0.0,0.0,0.0,0.0,0.0,0.0,0.0,0.0,0.0,0.0,0.0,0.0,0.0,0.0,0.0,0.0,0.0,0.0,0.0,0.0,0.0,0.0,0.0,0.0,0.0,0.0,0.0,0.0,0.0,0.0,0.0,0.0,0.0,0.0,0.0,0.0,0.0,0.0,0.0,0.0,0.0,0.0,0.0,0.0,0.0,0.0,0.0,0.0,0.0,0.0,0.0,0.0,0.0,0.0,0.0,0.0,0.0,0.0,0.0,0.0,0.0,0.0,0.0,0.0,0.0,0.0,0.0,0.0,0.0,0.0,0.0,0.0,0.0,0.0,0.0,0.0,0.0,0.0,0.0,-2.2221,-2.6112,-2.7813,-2.7021,-2.1469,-1.7971,0.0,0.0,0.0,0.0,0.0,0.0,0.0,0.0,0.0,0.0,0.0,0.0,0.0,0.0,0.0,0.0,0.0,0.0,0.0,0.0,0.0,0.0,0.0,0.0,0.0,0.0,0.0,0.0,0.0,0.0,0.0,0.0,0.0,0.0,0.0,0.0,0.0,0.0,0.0,0.0,0.0,0.0,0.0,0.0,0.0,0.0,0.0,0.0,0.0,0.0,0.0,0.0,0.0,0.0,0.0,0.0,0.0,0.0,0.0,0.0,0.0,0.0,0.0,0.0,0.0,0.0,0.0,0.0,0.0,0.0,0.0,0.0,0.0,0.0,0.0,0.0,0.0,0.0,0.0,0.0,0.0,0.0,0.0,0.0,0.0,0.0,0.0,0.0,0.0,0.0,0.0,0.0,0.0,0.0,0.0,0.0,0.0,0.0,0.0,0.0,0.0,0.0,0.0,0.0,0.0,0.0,0.0,0.0,-2.0501,-2.4462,-2.8098,-2.9793,-2.9421,-2.4007,-2.0218,0.0,0.0,0.0,0.0,0.0,0.0,0.0,0.0,0.0,0.0,0.0,0.0,0.0,0.0,0.0,0.0,0.0,0.0,0.0,0.0,0.0,0.0,0.0,0.0,0.0,0.0,0.0,0.0,0.0,0.0,0.0,0.0,0.0,0.0,0.0,0.0,0.0,0.0,0.0,0.0,0.0,0.0,0.0,0.0,0.0,0.0,0.0,0.0,0.0,0.0,0.0,0.0,0.0,0.0,0.0,0.0,0.0,0.0,0.0,0.0,0.0,0.0,0.0,0.0,0.0,0.0,0.0,0.0,0.0,0.0,0.0,0.0,0.0,0.0,0.0,0.0,0.0,0.0,0.0,0.0,0.0,0.0,0.0,0.0,0.0,0.0,0.0,0.0,0.0,0.0,0.0,0.0,0.0,0.0,0.0,0.0,0.0,0.0,0.0,0.0,0.0,0.0,0.0,0.0,0.0,0.0,0.0,0.0,-2.1705,-2.6876,-2.987,-3.1442,-3.1262,-2.6932,-2.2791,0.0,0.0,0.0,0.0,0.0,0.0,0.0,0.0,0.0,0.0,0.0,0.0,0.0,0.0,0.0,0.0,0.0,0.0,0.0,0.0,0.0,0.0,0.0,0.0,0.0,0.0,0.0,0.0,0.0,0.0,0.0,0.0,0.0,0.0,0.0,0.0,0.0,0.0,0.0,0.0,0.0,0.0,0.0,0.0,0.0,0.0,0.0,0.0,0.0,0.0,0.0,0.0,0.0,0.0,0.0,0.0,0.0,0.0,0.0,0.0,0.0,0.0,0.0,0.0,0.0,0.0,0.0,0.0,0.0,0.0,0.0,0.0,0.0,0.0,0.0,0.0,0.0,0.0,0.0,0.0,0.0,0.0,0.0,0.0,0.0,0.0,0.0,0.0,0.0,0.0,0.0,0.0,0.0,0.0,0.0,0.0,0.0,0.0,0.0,0.0,0.0,0.0,0.0,0.0,0.0,0.0,0.0,0.0,-2.1485,-2.6671,-2.9136,-3.0884,-3.1809,-2.7006,-2.2697,0.0,0.0,0.0,0.0,0.0,0.0,0.0,0.0,0.0,0.0,0.0,0.0,0.0,0.0,0.0,0.0,0.0,0.0,0.0,0.0,0.0,0.0,0.0,0.0,0.0,0.0,0.0,0.0,0.0,0.0,0.0,0.0,0.0,0.0,0.0,0.0,0.0,0.0,0.0,0.0,0.0,0.0,0.0,0.0,0.0,0.0,0.0,0.0,-0.9088,0.0,0.0,0.0,0.0,0.0,0.0,0.0,0.0,0.0,0.0,0.0,0.0,0.0,0.0,0.0,0.0,0.0,0.0,0.0,0.0,0.0,0.0,0.0,0.0,0.0,0.0,0.0,0.0,0.0,0.0,0.0,0.0,0.0,0.0,0.0,0.0,0.0,0.0,0.0,0.0,0.0,0.0,0.0,0.0,0.0,0.0,0.0,0.0,0.0,0.0,0.0,0.0,0.0,0.0,0.0,0.0,0.0,0.0,0.0,-2.2518,-2.7301,-2.8948,-3.027,-3.1296,-2.7301,-2.3424,0.0,0.0,0.0,0.0,0.0,0.0,0.0,0.0,0.0,0.0,0.0,0.0,0.0,0.0,0.0,0.0,0.0,0.0,0.0,0.0,0.0,0.0,0.0,0.0,0.0,0.0,0.0,0.0,0.0,0.0,0.0,0.0,0.0,0.0,0.0,0.0,0.0,0.0,0.0,0.0,0.0,0.0,0.0,0.0,0.0,0.0,0.0,0.0,0.0,0.0,0.0,0.0,0.0,0.0,0.0,0.0,0.0,0.0,0.0,0.0,0.0,0.0,0.0,0.0,0.0,0.0,0.0,0.0,0.0,0.0,0.0,0.0,0.0,0.0,0.0,0.0,0.0,0.0,0.0,0.0,0.0,0.0,0.0,0.0,0.0,0.0,0.0,0.0,0.0,0.0,0.0,0.0,0.0,0.0,0.0,0.0,0.0,0.0,0.0,0.0,0.0,0.0,0.0,0.0,0.0,0.0,0.0,-1.9917,-2.3524,-2.8294,-2.9026,-2.9784,-3.0764,-2.7589,-2.4191,-2.0756,0.0,0.0,0.0,0.0,0.0,0.0,0.0,0.0,0.0,0.0,0.0,0.0,0.0,0.0,0.0,0.0,0.0,0.0,0.0,0.0,0.0,0.0,0.0,0.0,0.0,0.0,0.0,0.0,0.0,0.0,0.0,0.0,0.0,0.0,0.0,0.0,0.0,0.0,-0.727,-0.7687,0.0,0.0,0.0,0.0,0.0,0.0,0.0,0.0,-1.0379,0.0,0.0,0.0,0.0,0.0,0.0,0.0,0.0,0.0,0.0,0.0,0.0,0.0,0.0,0.0,0.0,0.0,0.0,0.0,0.0,0.0,0.0,0.0,0.0,0.0,0.0,0.0,0.0,0.0,0.0,0.0,0.0,0.0,0.0,0.0,0.0,0.0,0.0,0.0,0.0,0.0,0.0,0.0,0.0,0.0,0.0,0.0,0.0,0.0,0.0,0.0,0.0,0.0,0.0,0.0,0.0,-1.9277,-1.9355,-2.2505,-2.8935,-2.9222,-2.9588,-3.0163,-2.7392,-2.3987,-2.014,0.0,0.0,0.0,0.0,0.0,0.0,0.0,0.0,0.0,0.0,0.0,0.0,0.0,0.0,0.0,0.0,0.0,0.0,0.0,0.0,0.0,0.0,0.0,0.0,0.0,0.0,0.0,0.0,0.0,0.0,0.0,0.0,0.0,0.0,0.0,0.0,0.0,0.0,0.0,-0.9276,-0.9382,0.0,0.0,0.0,0.0,0.0,0.0,0.0,0.0,-1.0371,0.0,0.0,0.0,0.0,0.0,0.0,0.0,0.0,0.0,0.0,0.0,0.0,0.0,0.0,0.0,0.0,0.0,0.0,0.0,0.0,0.0,0.0,0.0,0.0,0.0,0.0,0.0,0.0,0.0,0.0,0.0,0.0,0.0,0.0,0.0,0.0,0.0,0.0,0.0,0.0,0.0,0.0,0.0,0.0,0.0,0.0,0.0,0.0,0.0,0.0,0.0,0.0,0.0,0.0,0.0,-1.912,-2.0518,-2.3629,-2.8569,-2.8229,-2.8347,-2.9104,-2.5563,-2.2243,0.0,0.0,0.0,0.0,0.0,0.0,0.0,0.0,0.0,0.0,0.0,0.0,0.0,0.0,0.0,0.0,0.0,0.0,0.0,0.0,0.0,0.0,0.0,0.0,0.0,0.0,0.0,0.0,0.0,0.0,0.0,0.0,0.0,0.0,0.0,0.0,0.0,0.0,0.0,0.0,-1.0467,-1.0687,-1.1944,0.0,0.0,0.0,0.0,0.0,0.0,-1.112,-1.0599,0.0,0.0,0.0,0.0,0.0,0.0,0.0,0.0,0.0,0.0,0.0,0.0,0.0,0.0,0.0,0.0,0.0,0.0,0.0,0.0,0.0,0.0,0.0,0.0,0.0,0.0,0.0,0.0,0.0,0.0,0.0,0.0,0.0,0.0,0.0,0.0,0.0,0.0,0.0,0.0,0.0,0.0,0.0,0.0,0.0,0.0,0.0,0.0,0.0,0.0,0.0,0.0,0.0,0.0,0.0,-1.8715,-2.1472,-2.4609,-2.7981,-2.7196,-2.7118,-2.7861,-2.3903,-2.0701,0.0,0.0,0.0,0.0,0.0,0.0,0.0,0.0,0.0,0.0,0.0,0.0,0.0,0.0,0.0,0.0,0.0,0.0,0.0,0.0,0.0,0.0,0.0,0.0,0.0,0.0,0.0,0.0,0.0,0.0,0.0,0.0,0.0,0.0,0.0,0.0,0.0,0.0,0.0,0.0,0.0,-1.213,-1.287,-1.2432,0.0,0.0,0.0,0.0,-1.2169,-1.1979,0.0,0.0,0.0,0.0,0.0,0.0,0.0,0.0,0.0,0.0,0.0,0.0,0.0,0.0,0.0,0.0,0.0,0.0,0.0,0.0,0.0,0.0,0.0,0.0,0.0,0.0,0.0,0.0,0.0,0.0,0.0,0.0,0.0,0.0,0.0,0.0,0.0,0.0,0.0,0.0,0.0,0.0,0.0,0.0,0.0,0.0,0.0,0.0,0.0,0.0,0.0,0.0,0.0,0.0,0.0,0.0,-1.8127,-2.0492,-2.3584,-2.7167,-2.6935,-2.6674,-2.6569,-2.3819,-2.074,0.0,0.0,0.0,0.0,0.0,0.0,0.0,0.0,0.0,0.0,0.0,0.0,0.0,0.0,0.0,0.0,0.0,0.0,0.0,0.0,0.0,0.0,0.0,0.0,0.0,0.0,0.0,0.0,0.0,0.0,0.0,0.0,0.0,0.0,0.0,0.0,0.0,0.0,0.0,0.0,0.0,-1.3643,-1.3608,-1.3255,-1.3125,0.0,0.0,0.0,-1.512,-1.5601,0.0,0.0,0.0,0.0,0.0,0.0,0.0,0.0,0.0,0.0,0.0,0.0,0.0,0.0,0.0,0.0,0.0,0.0,0.0,0.0,0.0,0.0,0.0,0.0,0.0,0.0,0.0,0.0,0.0,0.0,0.0,0.0,0.0,0.0,0.0,0.0,0.0,0.0,0.0,0.0,0.0,0.0,0.0,0.0,0.0,0.0,0.0,0.0,0.0,0.0,0.0,0.0,0.0,0.0,0.0,-1.5322,-1.7501,-2.094,-2.3785,-2.6039,-2.5678,-2.5536,-2.5781,-2.1546,-1.8558,0.0,0.0,0.0,0.0,0.0,0.0,0.0,0.0,0.0,0.0,0.0,0.0,0.0,0.0,0.0,0.0,0.0,0.0,0.0,0.0,0.0,0.0,0.0,0.0,0.0,0.0,0.0,0.0,0.0,0.0,0.0,0.0,0.0,0.0,0.0,0.0,0.0,0.0,0.0,0.0,0.0,0.0,-1.4757,-1.4568,0.0,0.0,0.0,-1.4409,-1.4305,0.0,0.0,0.0,0.0,0.0,0.0,0.0,0.0,0.0,0.0,0.0,0.0,0.0,0.0,0.0,0.0,0.0,0.0,0.0,0.0,0.0,0.0,0.0,0.0,0.0,0.0,0.0,0.0,0.0,0.0,0.0,0.0,0.0,0.0,0.0,0.0,0.0,0.0,0.0,0.0,0.0,0.0,0.0,0.0,0.0,0.0,0.0,0.0,0.0,0.0,0.0,0.0,0.0,0.0,0.0,0.0,0.0,-1.6806,-2.1104,-2.3885,-2.4758,-2.4461,-2.4372,-2.4502,-2.0002,0.0,0.0,0.0,0.0,0.0,0.0,0.0,0.0,0.0,0.0,0.0,0.0,0.0,0.0,0.0,0.0,0.0,0.0,0.0,0.0,0.0,0.0,0.0,0.0,0.0,0.0,0.0,-0.5903,0.0,0.0,0.0,0.0,0.0,0.0,0.0,0.0,0.0,0.0,0.0,0.0,0.0,0.0,-1.4429,-1.5332,-1.5446,-1.546,0.0,0.0,-1.4705,-1.4192,-1.5311,-1.55,0.0,0.0,0.0,0.0,0.0,0.0,0.0,0.0,0.0,0.0,0.0,0.0,0.0,0.0,0.0,0.0,0.0,0.0,0.0,0.0,0.0,0.0,0.0,0.0,0.0,0.0,0.0,0.0,0.0,0.0,0.0,0.0,0.0,0.0,0.0,0.0,0.0,0.0,0.0,0.0,0.0,0.0,0.0,0.0,0.0,0.0,0.0,0.0,0.0,0.0,0.0,0.0,0.0,0.0,0.0,-1.6184,-2.054,-2.3083,-2.3492,-2.3705,-2.3436,-2.268,-2.0463,-1.7945,0.0,0.0,0.0,0.0,0.0,0.0,0.0,0.0,0.0,0.0,0.0,0.0,0.0,0.0,0.0,0.0,0.0,0.0,0.0,0.0,0.0,0.0,0.0,0.0,0.0,0.0,0.0,0.0,0.0,0.0,0.0,0.0,0.0,0.0,0.0,0.0,0.0,0.0,0.0,0.0,0.0,-1.5362,-1.4625,-1.5555,-1.6641,0.0,0.0,-1.5465,-1.6476,-1.7781,-1.7722,-1.477,0.0,0.0,0.0,0.0,0.0,0.0,0.0,0.0,0.0,0.0,0.0,0.0,0.0,0.0,0.0,0.0,0.0,0.0,0.0,0.0,0.0,0.0,0.0,0.0,0.0,0.0,0.0,0.0,0.0,0.0,0.0,0.0,0.0,0.0,0.0,0.0,0.0,0.0,0.0,0.0,0.0,0.0,0.0,0.0,0.0,0.0,0.0,0.0,0.0,0.0,0.0,0.0,0.0,-1.521,-1.5426,-1.975,-2.2255,-2.2715,-2.2483,-2.2356,-2.2355,-1.9661,-1.7156,0.0,0.0,0.0,0.0,0.0,0.0,0.0,0.0,0.0,0.0,0.0,0.0,0.0,0.0,0.0,0.0,0.0,0.0,0.0,0.0,0.0,0.0,0.0,0.0,0.0,0.0,0.0,0.0,-0.8865,-0.9076,-0.8577,0.0,0.0,0.0,0.0,0.0,0.0,0.0,0.0,0.0,0.0,-1.54,-1.5387,-1.6249,0.0,0.0,-1.5974,-1.5242,-1.5205,-1.6056,-1.5986,-1.3755,-1.3612,0.0,0.0,0.0,0.0,0.0,0.0,0.0,0.0,0.0,0.0,0.0,0.0,0.0,0.0,0.0,0.0,0.0,0.0,0.0,0.0,0.0,0.0,0.0,0.0,0.0,0.0,0.0,0.0,0.0,0.0,0.0,0.0,0.0,0.0,0.0,0.0,0.0,0.0,0.0,0.0,0.0,0.0,0.0,0.0,0.0,0.0,0.0,0.0,0.0,0.0,0.0,0.0,-1.498,-1.5005,-1.9132,-2.143,-2.1807,-2.1443,-2.143,-2.1732,-1.9095,-1.6923,0.0,0.0,0.0,0.0,0.0,0.0,0.0,0.0,0.0,0.0,0.0,0.0,0.0,0.0,0.0,0.0,0.0,0.0,0.0,0.0,0.0,0.0,0.0,0.0,0.0,0.0,0.0,0.0,-0.9363,-0.954,-0.9197,0.0,0.0,0.0,0.0,0.0,0.0,0.0,0.0,0.0,0.0,-1.4981,-1.5096,-1.5873,-1.6373,-1.5931,-1.5278,-1.4728,-1.4524,-1.4843,-1.4569,-1.3028,0.0,0.0,0.0,0.0,0.0,0.0,0.0,0.0,0.0,0.0,0.0,0.0,0.0,0.0,0.0,0.0,0.0,0.0,0.0,0.0,0.0,0.0,0.0,0.0,0.0,0.0,0.0,0.0,0.0,0.0,0.0,0.0,0.0,0.0,0.0,0.0,0.0,0.0,0.0,0.0,0.0,0.0,0.0,0.0,0.0,0.0,0.0,0.0,0.0,0.0,0.0,0.0,0.0,0.0,-1.4953,-1.8742,-2.0743,-2.0769,-2.0743,-2.0743,-2.0743,-1.907,-1.7639,-1.6459,0.0,0.0,0.0,0.0,0.0,0.0,0.0,0.0,0.0,0.0,0.0,0.0,0.0,0.0,0.0,0.0,0.0,0.0,0.0,0.0,0.0,0.0,0.0,0.0,0.0,0.0,-0.9043,-0.9193,-0.9446,0.0,0.0,0.0,0.0,0.0,0.0,0.0,0.0,0.0,0.0,-1.31,-1.4037,-1.3255,-1.4179,-1.4881,-1.4624,-1.4023,-1.3896,-1.4848,-1.481,-1.4224,0.0,0.0,0.0,0.0,0.0,0.0,0.0,0.0,0.0,0.0,0.0,0.0,0.0,0.0,0.0,0.0,0.0,0.0,0.0,0.0,0.0,0.0,0.0,0.0,0.0,0.0,0.0,0.0,-1.4468,0.0,0.0,0.0,0.0,0.0,0.0,0.0,0.0,0.0,0.0,0.0,-2.1264,-2.1026,0.0,0.0,0.0,0.0,0.0,0.0,0.0,0.0,0.0,0.0,0.0,0.0,-1.4903,-1.5067,-1.8317,-2.0275,-2.0693,-2.0288,-2.0275,-2.0693,-1.907,-1.7325,-1.552,0.0,0.0,0.0,0.0,0.0,0.0,0.0,0.0,0.0,0.0,0.0,0.0,0.0,0.0,0.0,0.0,0.0,0.0,0.0,0.0,0.0,0.0,0.0,0.0,0.0,-1.0439,0.0,0.0,0.0,0.0,0.0,0.0,0.0,0.0,0.0,0.0,0.0,-1.1212,-1.1454,-1.294,-1.3639,-1.2813,-1.354,-1.3996,0.0,0.0,0.0,0.0,0.0,0.0,0.0,0.0,0.0,0.0,0.0,0.0,0.0,0.0,-1.0327,-0.9965,-1.0062,-1.0269,-1.0568,0.0,0.0,0.0,0.0,0.0,0.0,0.0,0.0,0.0,0.0,0.0,0.0,0.0,0.0,0.0,0.0,-1.6458,0.0,0.0,0.0,0.0,0.0,0.0,0.0,0.0,-2.0645,-2.2326,-2.3083,-2.2728,-2.2191,0.0,-2.0686,-1.8681,0.0,0.0,0.0,0.0,0.0,0.0,0.0,0.0,-1.5442,-1.5567,-1.8282,-1.9935,-2.0285,-1.9947,-1.9935,-2.0285,-1.897,-1.7338,-1.5477,-1.4387,-1.3563,0.0,0.0,0.0,0.0,0.0,0.0,0.0,0.0,0.0,0.0,0.0,0.0,0.0,0.0,0.0,0.0,0.0,0.0,0.0,0.0,0.0,0.0,0.0,-1.1431,0.0,0.0,0.0,0.0,0.0,0.0,0.0,0.0,0.0,-1.0295,-1.1098,-1.167,-1.167,-1.2646,-1.3116,-1.2338,0.0,0.0,0.0,0.0,0.0,0.0,0.0,-1.1465,-1.1219,-1.1404,-1.1483,-1.1345,-1.1417,-1.1291,-1.0698,0.0,0.0,-1.0441,-1.049,-1.0743,-1.1012,-1.1069,-1.0956,-1.0622,-1.0679,-1.0686,0.0,0.0,0.0,0.0,0.0,0.0,0.0,0.0,-2.0941,-2.1156,0.0,-1.9705,0.0,0.0,0.0,0.0,0.0,0.0,0.0,0.0,-2.3554,-2.4752,-2.4164,-2.3232,-2.2643,-2.2441,-2.1409,-2.057,-1.9773,-1.7903,0.0,0.0,0.0,0.0,0.0,0.0,-1.6534,-1.6541,-1.8547,-1.9565,-1.9617,-1.9617,-1.9592,-1.953,-1.8634,-1.7593,-1.6417,-1.5452,-1.4824,-1.4477,-1.2599,0.0,0.0,0.0,0.0,0.0,0.0,0.0,0.0,0.0,0.0,0.0,0.0,0.0,0.0,0.0,0.0,0.0,0.0,0.0,0.0,-1.2229,0.0,0.0,0.0,0.0,0.0,0.0,0.0,0.0,0.0,0.0,-1.098,-1.1541,-1.2019,-1.2035,0.0,0.0,0.0,0.0,-1.249,-1.2352,-1.2538,-1.2783,-1.3004,-1.3157,-1.2983,-1.2377,0.0,0.0,-1.1933,-1.1318,-1.0903,-1.0862,-1.0965,-1.0792,-1.0293,-1.0233,-1.0189,-1.0072,-1.0079,-0.9966,-0.9973,-1.0203,-1.0212,-2.9485,0.0,0.0,0.0,0.0,-2.2925,-2.3528,-2.4326,-2.4252,-2.4044,-2.3671,-2.2667,0.0,0.0,0.0,0.0,0.0,0.0,-2.1296,-2.3076,-2.421,-2.53,-2.6202,-2.5368,-2.4766,-2.4307,-2.3482,-2.2749,-2.2146,-2.1209,-1.9082,-1.5897,0.0,0.0,0.0,0.0,-1.6492,-1.686,-1.8561,-1.9473,-1.9473,-1.946,-1.9091,-1.8326,-1.7696,-1.7004,-1.63,-1.5978,-1.5406,-1.4472,-1.385,0.0,0.0,0.0,0.0,0.0,0.0,0.0,0.0,0.0,0.0,0.0,0.0,0.0,0.0,0.0,0.0,0.0,0.0,0.0,-1.3057,-1.3408,-1.2937,0.0,0.0,0.0,0.0,0.0,0.0,0.0,0.0,0.0,-1.1314,-1.1659,-1.1996,0.0,0.0,-1.2134,-1.2054,-1.2022,-1.2127,-1.253,0.0,0.0,0.0,-1.235,-1.2121,-1.2086,-1.2577,-1.2946,-1.2636,-1.2424,-1.2158,-1.1661,-1.1458,-1.1149,-1.087,-1.0918,-1.0967,-1.0974,-1.0826,-1.0759,-1.092,-1.0798,-1.0664,-3.5941,-3.1888,-2.8586,-2.6758,-2.6153,-2.6447,-2.6961,-2.7545,-2.7545,-2.7485,-2.721,-2.5809,-2.4537,-2.337,-2.2256,0.0,0.0,0.0,-2.4264,-2.6352,-2.619,-2.6644,-2.748,-2.6358,-2.5589,-2.5279,-2.4633,-2.4155,-2.3791,-2.3012,-2.1468,-1.9121,0.0,0.0,-1.6145,-1.7276,-1.7835,-1.7934,-1.9022,-1.9548,-1.9328,-1.9328,-1.8853,-1.7859,-1.7491,-1.6962,-1.6181,-1.6156,-1.5807,-1.4982,-1.4425,-1.3599,0.0,0.0,0.0,0.0,0.0,0.0,0.0,0.0,0.0,0.0,0.0,-1.0264,0.0,0.0,0.0,0.0,-1.208,-1.3143,-1.3711,-1.3786,0.0,0.0,0.0,0.0,0.0,0.0,0.0,-1.0139,-1.0868,-1.1413,-1.1609,-1.1867,-1.2205,-1.2798,-1.2594,-1.243,-1.25,0.0,-1.2355,-1.2632,-1.2564,-1.2461,-1.265,-1.2504,-1.2394,-1.2584,-1.2858,-1.3028,-1.2931,-1.2826,-1.2563,-1.2074,-1.1724,-1.151,-1.1223,-1.1309,-1.1336,-1.1129,-1.0949,-1.0889,-1.1049,-1.0918,-1.0862,-4.121,-4.0051,-3.4059,-3.0705,-2.9365,-2.9858,-3.0387,-3.0881,-3.0836,-3.115,-3.1495,-2.8996,-2.7859,-2.7664,-2.5082,0.0,0.0,-2.6986,-2.8068,-2.9701,-2.8977,-2.8571,-2.8337,-2.6595,-2.5699,-2.5649,-2.5184,-2.4958,-2.4895,-2.3853,-2.3253,-2.3153,-2.1512,-2.0349,-1.9688,-1.9924,-1.9871,-1.938,-1.9697,-1.9667,-1.9194,-1.9133,-1.8714,-1.7799,-1.7725,-1.7152,-1.6049,-1.61,-1.6057,-1.5756,-1.451,-1.3632,-1.3192,0.0,0.0,0.0,0.0,0.0,0.0,0.0,0.0,0.0,0.0,0.0,0.0,0.0,0.0,0.0,-1.3883,0.0,-1.4063,-1.3733,0.0,0.0,0.0,-1.1635,-1.1576,-1.1009,-1.0624,-1.0631,0.0,0.0,0.0,0.0,-1.2636,-1.3238,-1.3171,-1.2973,-1.291,-1.2994,-1.2983,-1.2877,-1.3078,-1.3264,-1.3104,-1.3265,-1.3375,-1.3389,-1.3346,-1.3185,-1.2966,-1.2778,-1.2449,-1.2067,-1.1901,-1.1767,-1.143,-1.1343,-1.1196,-1.0675,-1.0601,-1.0615,-1.0759,-1.0755,-1.0764,-4.2822,-4.1927,-4.0409,-3.8046,-3.5279,-3.4425,-3.4173,-3.4277,-3.3754,-3.335,-3.2916,-3.1315,-3.0298,-2.9789,-2.952,-2.9844,-3.0602,-3.0587,-3.0715,-3.0858,-3.0211,-2.9308,-2.8333,-2.7329,-2.6666,-2.6264,-2.6194,-2.6076,-2.6038,-2.536,-2.4808,-2.433,-2.3405,-2.1981,-2.0151,-1.9658,-1.9344,-1.9105,-1.9172,-1.9172,-1.9052,-1.8666,-1.8135,-1.7533,-1.7122,-1.6556,-1.5872,-1.5881,-1.5881,-1.578,-1.5145,-1.4525,-1.4007,-1.2678,0.0,0.0,0.0,0.0,0.0,0.0,0.0,0.0,0.0,-1.2461,-1.2988,0.0,-1.2998,0.0,-1.2239,-1.3013,-1.3765,-1.3802,0.0,0.0,-1.19,-1.144,-1.1471,-1.1206,-1.096,-1.096,-1.1458,-1.1926,-1.2321,-1.2645,-1.3038,-1.357,-1.3248,-1.315,-1.349,-1.3344,-1.3364,-1.3542,-1.352,-1.3542,-1.366,-1.3594,-1.3484,-1.3492,-1.3492,-1.3346,-1.3185,-1.292,-1.2586,-1.2212,-1.1689,-1.1337,-1.1109,-1.0929,-1.0813,-1.0672,-1.0728,-1.0962,-1.1162,-1.0934,-1.0685,-4.3628,-4.3113,-4.2396,-4.0657,-3.8302,-3.7612,-3.696,-3.6319,-3.5714,-3.4996,-3.4337,-3.329,-3.2467,-3.1884,-3.2065,-3.2464,-3.2871,-3.2698,-3.2492,-3.2222,-3.1607,-3.0514,-2.9268,-2.8278,-2.7511,-2.6918,-2.6658,-2.6521,-2.6508,-2.6138,-2.5837,-2.5536,-2.4564,-2.3368,-2.1811,-2.0839,-2.0171,-1.9708,-1.9227,-1.9052,-1.9093,-1.875,-1.8193,-1.7436,-1.6907,-1.6224,-1.5468,-1.5247,-1.5235,-1.542,-1.4819,-1.4283,-1.4026,-1.311,-1.2559,0.0,0.0,0.0,0.0,0.0,0.0,0.0,0.0,0.0,0.0,0.0,-1.3338,0.0,-1.2959,0.0,-1.3912,-1.3922,-1.3682,-1.2958,-1.2394,-1.2003,-1.1916,-1.1593,-1.1348,-1.1487,-1.1941,-1.2321,-1.2504,-1.2936,-1.3241,-1.323,-1.3085,-1.32,-1.3626,-1.3323,-1.312,-1.3448,-1.3397,-1.3389,-1.3718,-1.3616,-1.344,-1.3309,-1.3279,-1.3164,-1.2728,-1.2494,-1.2262,-1.1765,-1.1343,-1.1073,-1.0887,-1.0675,-1.0624,-1.0581,-1.0688,-1.0848,-1.1002,-1.0853,-1.0685,-4.3881,-4.3704,-4.238,-4.1071,-3.9849,-3.9788,-3.8727,-3.709,-3.6431,-3.5789,-3.5235,-3.4876,-3.4322,-3.3634,-3.36,-3.3769,-3.408,-3.395,-3.3645,-3.3324,-3.2738,-3.1738,-3.0294,-2.908,-2.8179,-2.7497,-2.6769,-2.6521,-2.6521,-2.6521,-2.6389,-2.6214,-2.5165,-2.4315,-2.3667,-2.2466,-2.143,-2.0559,-1.9631,-1.9202,-1.932,-1.9016,-1.841,-1.7448,-1.6859,-1.6116,-1.5145,-1.4694,-1.4622,-1.4893,-1.409,-1.3641,-1.3661,-1.3179,-1.2764,0.0,-1.2832,0.0,0.0,0.0,0.0,0.0,0.0,0.0,0.0,-1.4087,-1.4107,-1.4165,-1.4561,-1.4648,-1.4154,-1.408,-1.3949,-1.3654,-1.313,-1.2619,-1.2411,-1.1919,-1.1684,-1.1999,-1.2218,-1.2475,-1.2541,-1.3031,-1.3133,-1.268,-1.2694,-1.2991,-1.3457,-1.2954,-1.2672,-1.2958,-1.3009,-1.314,-1.3367,-1.3426,-1.3331,-1.3075,-1.2972,-1.2709,-1.2258,-1.203,-1.1769,-1.1268,-1.1034,-1.0907,-1.0665,-1.0624,-1.0618,-1.0561,-1.0575,-1.0651,-1.0595,-1.0588,-1.0618,-4.3923,-4.3628,-4.3355,-4.2749,-4.1993,-4.1403,-3.8815,-3.504,-3.434,-3.3993,-3.3993,-3.5459,-3.5429,-3.4367,-3.4812,-3.4916,-3.4743,-3.4677,-3.392,-3.2546,-3.2889,-3.1777,-2.9615,-2.9233,-2.8572,-2.7523,-2.685,-2.6521,-2.6521,-2.6521,-2.6,-2.5146,-2.4868,-2.4191,0.0,0.0,0.0,0.0,-1.994,-1.983,-1.9806,-1.8835,-1.8049,-1.7436,-1.6895,0.0,-1.5684,-1.5584,-1.5207,-1.4534,-1.3992,0.0,0.0,0.0,0.0,0.0,0.0,0.0,0.0,0.0,0.0,0.0,-1.4009,-1.4,-1.4077,-1.4087,-1.4277,-1.4629,-1.4736,-1.4723,-1.4455,-1.3938,-1.3373,-1.2825,-1.2188,-1.1804,-1.1802,-1.1685,-1.1684,-1.1992,-1.2029,-1.2167,-1.2482,-1.2643,-1.2665,-1.2504,-1.2343,-1.2358,-1.2672,-1.2592,-1.2636,-1.2936,-1.2958,-1.3009,-1.3097,-1.3104,-1.3075,-1.298,-1.2775,-1.2531,-1.2354,-1.2011,-1.1737,-1.1435,-1.1118,-1.0762,-1.0631,-1.0618,-1.0618,-1.0618,-1.0618,-1.0618,-1.0618,-1.0618,-1.0618,-4.4315,0.0,-4.369,-4.2629,0.0,-4.0305,-3.8123,-3.5026,-3.5654,-3.5729,-3.5504,-3.6507,-3.6567,-3.5893,-3.5265,-3.4867,-3.4519,-3.3475,-3.2625,-3.2033,-3.2597,-3.2184,-3.0872,-3.0883,-3.0132,-2.8865,-2.791,-2.7258,-2.6924,-2.6659,-2.6025,-2.5197,-2.4958,-2.4342,-2.3454,-2.294,-2.2056,-2.0859,-2.0342,-2.0165,-2.0195,-1.9275,-1.8542,-1.8019,0.0,0.0,0.0,0.0,0.0,0.0,0.0,0.0,0.0,0.0,0.0,-1.3809,-1.3961,-1.4175,-1.4434,-1.4453,-1.4541,-1.4746,-1.4766,-1.4678,-1.4473,-1.4648,-1.4853,-1.5068,-1.5088,-1.5061,-1.4972,-1.4638,-1.4154,-1.3545,-1.3191,-1.2834,-1.2158,-1.2035,-1.2047,-1.2027,-1.1963,-1.2043,-1.2262,-1.2431,-1.2365,-1.2109,-1.205,-1.2094,-1.2226,-1.2145,-1.2167,-1.2475,-1.2526,-1.2584,-1.2731,-1.276,-1.2701,-1.2555,-1.2387,-1.216,-1.1942,-1.1654,-1.1418,-1.1148,-1.0903,-1.0681,-1.0618,-1.0618,-1.0618,-1.0618,-1.0618,-1.0618,-1.0618,-1.0618,-1.0618,-4.465,-4.4031,-4.3814,-4.2314,-3.9975,-3.9323,-3.7938,-3.6297,0.0,0.0,0.0,-3.7494,-3.7509,-3.73,-3.5609,-3.4752,-3.4426,-3.2655,-3.1926,-3.2076,-3.2605,-3.2745,-3.2478,-3.2449,-3.1652,-3.0296,-2.9021,-2.8001,-2.7326,-2.6716,-2.6231,-2.5598,-2.5084,-2.4494,-2.3866,-2.3477,-2.2786,-2.1807,-2.0965,-2.0538,-2.0461,-1.9809,-1.9175,-1.8634,-1.8093,-1.7542,-1.6995,-1.6511,-1.6154,-1.5808,-1.5315,-1.4821,-1.4357,-1.4188,-1.4,-1.3877,-1.417,-1.4467,-1.4863,-1.4893,-1.5039,-1.5391,-1.542,-1.5264,-1.4922,-1.5205,-1.542,-1.542,-1.542,-1.541,-1.542,-1.5294,-1.5059,-1.4529,-1.441,-1.3863,-1.2818,-1.2573,-1.2383,-1.2146,-1.1998,-1.1948,-1.1955,-1.216,-1.2175,-1.1736,-1.1787,-1.1948,-1.1926,-1.1823,-1.1787,-1.1948,-1.2058,-1.216,-1.235,-1.2431,-1.2328,-1.2138,-1.2014,-1.1789,-1.1452,-1.1247,-1.1059,-1.0961,-1.0744,-1.0618,-1.0618,-1.0618,-1.0618,-1.0618,-1.0618,-1.0618,-1.0618,-1.0618,-1.0618,-4.4272,-4.3898,-4.3879,-4.3218,-4.209,-4.1355,-4.0214,-3.8796,-3.7943,-3.7195,-3.6686,-3.7778,-3.7928,-3.7375,-3.6567,-3.6126,-3.5852,-3.505,-3.4218,0.0,-3.4113,-3.3704,-3.2507,-3.2449,-3.1652,-3.0296,-2.9021,-2.8001,-2.7289,-2.681,-2.6163,-2.5598,-2.5084,-2.4305,-2.3376,-2.3665,-2.3552,-2.2912,-2.2197,-2.1405,-2.054,-1.9834,-1.9187,-1.8634,-1.8105,-1.7773,-1.7652,-1.7459,-1.6979,-1.6174,-1.5448,-1.5049,-1.4883,-1.443,-1.4379,-1.5078,-1.5205,-1.5264,-1.5322,-1.5322,-1.5342,-1.54,-1.542,-1.5391,-1.5332,-1.5381,-1.542,-1.542,-1.542,-1.542,-1.5352,-1.4951,-1.4675,-1.4547,-1.3992,-1.3571,-1.3338,-1.2826,-1.2474,-1.236,-1.1924,-1.1641,-1.1663,-1.1706,-1.1721,-1.1597,-1.1633,-1.1648,-1.1684,-1.1831,-1.1845,-1.1721,-1.186,-1.1963,-1.2094,-1.2036,-1.208,-1.1985,-1.1816,-1.1655,-1.1619,-1.138,-1.1185,-1.1059,-1.087,-1.0744,-1.0618,-1.0618,-1.0618,-1.0618,-1.0618,-1.0618,-1.0618,-1.0618,-1.0618,-4.4934,-4.4098,-4.4297,-4.3718,-4.2506,-4.1393,-4.0339,-3.9364,-3.8781,-3.8347,-3.8153,-3.8691,-3.8781,-3.8347,-3.6716,-3.5887,-3.5732,-3.394,-3.3173,-3.3431,-3.3563,-3.3652,-3.3704,-3.3552,-3.2953,-3.1875,-3.0993,-2.9789,-2.8466,-2.7842,-2.6905,-2.569,-2.5084,-2.4406,-2.3678,-2.3866,-2.3565,-2.2711,-2.2389,-2.1806,-2.1087,-2.0482,-1.9868,-1.9256,-1.8995,-1.8871,-1.8771,-1.8671,-1.8196,-1.7377,-1.6957,-1.6433,-1.5725,-1.5416,-1.5329,-1.5381,-1.542,-1.542,-1.542,-1.542,-1.5508,-1.5742,-1.5537,-1.5518,-1.5752,-1.5547,-1.542,-1.542,-1.542,-1.542,-1.543,-1.5388,-1.5352,-1.5403,-1.5102,-1.4608,-1.3899,-1.3361,-1.2765,-1.2166,-1.1802,-1.1622,-1.1622,-1.1622,-1.1622,-1.1622,-1.1622,-1.1622,-1.1622,-1.1677,-1.1736,-1.1604,-1.1684,-1.1758,-1.178,-1.178,-1.1845,-1.1992,-1.1765,-1.1663,-1.1743,-1.1509,-1.1199,-1.1122,-1.0877,-1.0688,-1.0618,-1.0618,-1.0618,-1.0618,-1.0618,-1.0618,-1.0618,-1.0618,-1.0618,-4.5564,-4.4398,-4.459,-4.3789,-4.2253,-4.1209,-4.02,-3.9424,-3.9409,-3.9424,-3.9424,-3.9424,-3.9424,-3.92,-3.7105,-3.6163,-3.5848,-3.3734,-3.3151,-3.3769,-3.3603,-3.3944,-3.4624,-3.4481,-3.3962,-3.3227,-3.2664,-3.1309,-2.9421,-2.869,-2.7488,-2.574,-2.5322,-2.4845,-2.4205,-2.418,-2.369,-2.2749,-2.256,-2.2184,-2.1506,-2.1121,-2.0577,-2.0037,-1.9861,-1.9747,-1.9668,-1.9512,-1.9198,-1.8602,-1.8309,-1.7655,-1.6652,-1.6358,-1.6026,-1.5468,-1.542,-1.542,-1.542,-1.5508,-1.5703,-1.6025,-1.5752,-1.5703,-1.5977,-1.5664,-1.542,-1.542,-1.5508,-1.5537,-1.5508,-1.5918,-1.6143,-1.5967,-1.6076,-1.5613,-1.4594,-1.397,-1.3321,-1.2228,-1.1926,-1.1802,-1.1622,-1.1622,-1.1622,-1.1622,-1.1622,-1.1622,-1.1622,-1.1622,-1.1622,-1.1622,-1.1622,-1.1637,-1.1622,-1.163,-1.167,-1.1897,-1.1728,-1.1677,-1.1723,-1.1439,-1.1143,-1.1059,-1.0807,-1.0681,-1.0618,-1.0618,-1.0618,-1.0618,-1.0618,-1.0618,-1.0618,-1.0618,-1.0618,-4.5546,-4.5043,-4.4482,-4.3207,-4.1656,-4.1459,-4.06,-3.9481,-3.9424,-3.9424,-3.9424,-3.9424,-3.9424,-3.932,-3.8452,-3.8018,-3.7958,-3.7225,-3.6417,-3.5867,-3.571,-3.5272,-3.4742,-3.4496,-3.3962,-3.3227,-3.2692,-3.1406,-2.9421,-2.8664,-2.7408,-2.5841,-2.6063,-2.5762,-2.487,-2.4745,-2.4443,-2.3853,-2.3326,-2.256,-2.1556,-2.1443,-2.1154,-2.0655,-2.0075,-1.9798,-1.9747,-1.9656,-1.9552,-1.9396,-1.8697,-1.7995,-1.7324,-1.6641,-1.6026,-1.5468,-1.542,-1.542,-1.5439,-1.5781,-1.6076,-1.6055,-1.6025,-1.5996,-1.6096,-1.5664,-1.542,-1.5469,-1.5762,-1.5811,-1.5527,-1.6172,-1.6348,-1.5684,-1.5898,-1.5858,-1.53,-1.4784,-1.4112,-1.3442,-1.2773,-1.2212,-1.1864,-1.1685,-1.1622,-1.1622,-1.1622,-1.1622,-1.1622,-1.1622,-1.1622,-1.1622,-1.1622,-1.1622,-1.1622,-1.1622,-1.1674,-1.1641,-1.1604,-1.1556,-1.1466,-1.1389,-1.1178,-1.0933,-1.0807,-1.0681,-1.0618,-1.0618,-1.0618,-1.0618,-1.0618,-1.0618,-1.0618,-1.0618,-1.0618,-4.59,-4.5118,-4.4398,-4.3064,-4.1591,-4.1525,-4.0737,-3.9424,-3.9424,-3.9424,-3.9424,-3.9424,-3.9424,-3.9379,-3.8706,-3.8377,-3.8332,-3.7719,-3.7201,-3.685,-3.6357,-3.5843,-3.5375,-3.4844,-3.4332,-3.3948,-3.369,-3.2288,-3.0021,-2.8157,-2.6871,-2.6244,-2.642,-2.605,-2.5335,-2.5285,-2.5021,-2.4494,-2.4255,-2.3753,-2.2949,-2.1995,-2.123,-2.0677,-2.0112,-1.9798,-1.9798,-1.9656,-1.9617,-1.9565,-1.9105,-1.856,-1.7941,-1.7202,-1.6595,-1.5968,-1.5575,-1.5527,-1.5771,-1.6027,-1.6182,-1.6436,-1.6211,-1.6125,-1.6105,-1.5664,-1.542,-1.5459,-1.5801,-1.5977,-1.5879,-1.6592,-1.6768,-1.6045,-1.6191,-1.6156,-1.5298,-1.4786,-1.4231,-1.3623,-1.326,-1.3025,-1.2712,-1.2343,-1.1981,-1.174,-1.1622,-1.1622,-1.1622,-1.1622,-1.1622,-1.1622,-1.1622,-1.1622,-1.1622,-1.1622,-1.1633,-1.1743,-1.1614,-1.1401,-1.151,-1.1206,-1.0926,-1.0807,-1.0744,-1.0681,-1.0618,-1.0618,-1.0618,-1.0618,-1.0618,-1.0618,-1.0618,-1.0618,-1.0618,-4.6288,-4.5446,-4.444,-4.3141,-4.1787,-4.1575,-4.0805,-3.9737,-3.9496,-3.9424,-3.9424,-3.9424,-3.9424,-3.9349,-3.8886,-3.8676,-3.8601,-3.8182,-3.7749,-3.7434,-3.6886,-3.6378,-3.5725,-3.5257,-3.4806,-3.4511,-3.4399,-3.3033,-3.0378,-2.7967,-2.6684,-2.6559,-2.6521,-2.6239,-2.5862,-2.5699,-2.541,-2.5059,-2.4908,-2.4556,-2.3879,-2.2661,-2.1606,-2.0916,-2.0338,-1.9962,-1.9811,-1.972,-1.9656,-1.9656,-1.942,-1.9052,-1.8375,-1.7644,-1.6922,-1.6151,-1.5761,-1.5732,-1.6115,-1.6351,-1.6504,-1.668,-1.6416,-1.6182,-1.6076,-1.5664,-1.5557,-1.5801,-1.5957,-1.6025,-1.5977,-1.6787,-1.6963,-1.6292,-1.6465,-1.6321,-1.5641,-1.5186,-1.4759,-1.4215,-1.425,-1.3891,-1.3428,-1.2838,-1.2274,-1.174,-1.1622,-1.1622,-1.1622,-1.1622,-1.156,-1.1498,-1.1498,-1.156,-1.156,-1.1622,-1.1692,-1.1694,-1.1481,-1.1389,-1.1546,-1.103,-1.0744,-1.0744,-1.0688,-1.0624,-1.0618,-1.0618,-1.0618,-1.0618,-1.0618,-1.0618,-1.0618,-1.0618,-1.0618,-4.6591,-4.6006,-4.4328,-4.3235,-4.2506,-4.1852,-4.1127,-4.0355,-3.9753,-3.9424,-3.9424,-3.9424,-3.9424,-3.9424,-3.9334,-3.9364,-3.9349,-3.926,-3.8601,-3.7659,-3.7848,-3.7025,-3.5296,-3.5516,-3.5283,-3.466,-3.4549,-3.3033,-3.0392,-2.8317,-2.6979,-2.6546,-2.6521,-2.6508,-2.6314,-2.5887,-2.5598,-2.5548,-2.5159,-2.4607,-2.4054,-2.3401,-2.256,-2.1568,-2.0916,-2.0376,-1.9911,-1.9811,-1.9811,-1.9811,-1.9668,-1.9251,-1.8548,-1.7854,-1.6885,-1.578,-1.588,-1.6115,-1.6201,-1.689,-1.7109,-1.6797,-1.668,-1.6494,-1.6035,-1.5684,-1.5771,-1.6471,-1.623,-1.5967,-1.5713,-1.6621,-1.6953,-1.6292,-1.6465,-1.6607,-1.6617,-1.6156,-1.5952,-1.5713,-1.5532,-1.4881,-1.3529,-1.2789,-1.2305,-1.1856,-1.1622,-1.1622,-1.1622,-1.1622,-1.1498,-1.1365,-1.1365,-1.1373,-1.1567,-1.157,-1.1493,-1.1445,-1.1354,-1.1213,-1.1003,-1.0807,-1.0744,-1.0681,-1.0618,-1.0618,-1.0618,-1.0618,-1.0618,-1.0618,-1.0618,-1.0618,-1.0618,-1.0618,-1.0618,-4.6035,-4.4851,-4.4097,-4.3295,-4.2585,-4.2317,-4.1591,-4.0478,-4.0216,-3.9809,-3.9424,-3.9424,-3.9424,-3.9424,-3.9424,-3.9424,-3.9424,-3.9424,-3.914,-3.8631,-3.8008,-3.7267,-3.6505,-3.5762,-3.5148,-3.4742,-3.4683,-3.3288,-3.0596,-2.8342,-2.7005,-2.6609,-2.6521,-2.6521,-2.6427,-2.6319,-2.6138,-2.6126,-2.595,-2.5598,-2.4996,-2.4494,-2.369,-2.2573,-2.1656,-2.0928,-2.0376,-2.0351,-2.02,-1.9823,-1.9656,-1.9673,-1.9697,-1.8896,-1.7954,-1.7042,-1.6654,-1.6611,-1.6894,-1.7197,-1.7197,-1.6797,-1.6665,-1.6416,-1.584,-1.5742,-1.5869,-1.5957,-1.6338,-1.6269,-1.6074,-1.6533,-1.6728,-1.626,-1.6455,-1.6685,-1.6709,-1.6582,-1.6427,-1.6379,-1.6172,-1.5439,-1.4382,-1.3527,-1.2895,-1.2274,-1.1856,-1.1685,-1.1622,-1.1622,-1.1498,-1.1365,-1.131,-1.1382,-1.1546,-1.1553,-1.1461,-1.127,-1.1157,-1.1114,-1.0917,-1.0764,-1.0624,-1.0618,-1.0618,-1.0618,-1.0618,-1.0618,-1.0618,-1.0618,-1.0618,-1.0618,-1.0618,-1.0618,-1.0618,-4.5513,-4.4239,-4.3939,-4.3568,-4.3052,-4.271,-4.2061,-4.1142,-4.0684,-4.0216,-3.9737,-3.9481,-3.9424,-3.9424,-3.9424,-3.9424,-3.9424,-3.9424,-3.9305,-3.905,-3.8377,-3.7769,-3.7193,-3.6253,-3.56,-3.5125,-3.4742,-3.3278,-3.0993,-2.8952,-2.7608,-2.6823,-2.6634,-2.6521,-2.6521,-2.6521,-2.6521,-2.6521,-2.6521,-2.6163,-2.5611,-2.5096,-2.4381,-2.3414,-2.2347,-2.1405,-2.0756,-2.0718,-2.0454,-1.9924,-1.9883,-2.0138,-2.033,-1.9715,-1.8786,-1.7966,-1.7478,-1.7244,-1.7409,-1.75,-1.7344,-1.6733,-1.6646,-1.6396,-1.5742,-1.5889,-1.5996,-1.6143,-1.6367,-1.6611,-1.6572,-1.666,-1.666,-1.6533,-1.6758,-1.7012,-1.7119,-1.7021,-1.7031,-1.7035,-1.6772,-1.6105,-1.5278,-1.4648,-1.3836,-1.2905,-1.2336,-1.207,-1.1714,-1.156,-1.1435,-1.1247,-1.1178,-1.1129,-1.1155,-1.1224,-1.1497,-1.1376,-1.1175,-1.104,-1.0907,-1.0685,-1.0624,-1.0618,-1.0618,-1.0618,-1.0618,-1.0618,-1.0618,-1.0618,-1.0618,-1.0618,-1.0618,-1.0618,-1.0618,-4.4983,-4.4286,-4.3998,-4.3898,-4.3704,-4.3052,-4.2648,-4.2173,-4.1075,-4.0478,-4.0146,-3.9696,-3.9424,-3.9424,-3.9424,-3.9424,-3.9424,-3.9424,-3.9125,-3.8646,-3.899,-3.8556,-3.7455,-3.7193,-3.6752,-3.6096,-3.4578,-3.3097,-3.1626,-3.0151,-2.8698,-2.748,-2.6836,-2.6565,-2.6559,-2.6571,-2.6521,-2.6521,-2.6521,-2.6176,-2.5611,-2.5084,-2.4531,-2.3904,-2.2887,-2.1845,-2.0803,-2.0756,-2.0504,-2.0049,-2.0351,-2.0618,-2.0499,-2.0135,-1.9358,-1.8462,-1.8249,-1.8019,-1.7563,-1.7792,-1.7519,-1.6963,-1.6748,-1.6523,-1.6094,-1.6145,-1.6367,-1.6816,-1.6953,-1.6924,-1.7178,-1.7041,-1.6953,-1.7266,-1.7295,-1.7461,-1.7734,-1.7617,-1.7519,-1.7734,-1.7471,-1.7081,-1.6468,-1.5688,-1.4751,-1.3636,-1.3068,-1.2575,-1.1833,-1.1515,-1.1283,-1.1122,-1.1003,-1.0932,-1.0894,-1.0873,-1.1228,-1.1478,-1.1254,-1.1118,-1.0911,-1.0739,-1.0638,-1.0618,-1.0618,-1.0618,-1.0618,-1.0618,-1.0618,-1.0618,-1.0618,-1.0618,-1.0618,-1.0618,-1.0618,-4.5115,-4.4327,-4.4196,-4.4097,-4.3998,-4.3628,-4.2958,-4.1949,-4.1377,-4.0668,-3.9809,-3.9481,-3.9424,-3.9424,-3.9424,-3.9424,-3.9424,-3.9424,-3.929,-3.908,-3.8856,-3.8542,-3.8093,-3.756,-3.7246,-3.6654,-3.4849,-3.3682,-3.3027,-3.1165,-2.9652,-2.8794,-2.7621,-2.7112,-2.6979,-2.6735,-2.6521,-2.6521,-2.6521,-2.6176,-2.5611,-2.5096,-2.4556,-2.3991,-2.3263,-2.2523,-2.1832,-2.1079,-2.0844,-2.0903,-2.0765,-2.0914,-2.1202,-2.0855,-2.0407,-2.0042,-1.8626,-1.8109,-1.8405,-1.7912,-1.75,-1.7178,-1.6914,-1.6533,-1.6191,-1.6348,-1.6494,-1.668,-1.7109,-1.7607,-1.7432,-1.7549,-1.7529,-1.7402,-1.7383,-1.7568,-1.791,-1.7881,-1.7734,-1.7578,-1.7461,-1.72,-1.655,-1.5864,-1.4976,-1.4309,-1.3483,-1.2636,-1.2106,-1.1882,-1.1454,-1.1185,-1.0989,-1.0939,-1.0978,-1.0938,-1.1048,-1.1296,-1.1195,-1.1093,-1.09,-1.0752,-1.0658,-1.0618,-1.0618,-1.0618,-1.0618,-1.0618,-1.0618,-1.0618,-1.0618,-1.0618,-1.0618,-1.0618,-1.0618,-4.4936,-4.444,-4.431,-4.427,-4.4097,-4.3939,-4.3218,-4.2078,-4.1641,-4.0873,-3.995,-3.9481,-3.9424,-3.9424,-3.9424,-3.9424,-3.9424,-3.9424,-3.9424,-3.9379,-3.9005,-3.8766,-3.8676,-3.8078,-3.7464,-3.6933,-3.5521,-3.4574,-3.3998,-3.2111,-3.065,-2.9742,-2.8203,-2.7339,-2.7231,-2.6753,-2.6521,-2.6521,-2.6521,-2.6176,-2.5611,-2.5096,-2.4556,-2.3979,-2.3251,-2.2739,-2.2535,-2.1568,-2.1129,-2.1418,-2.1317,-2.1618,-2.211,-2.1777,-2.1422,-2.0905,-1.9868,-1.8988,-1.9007,-1.842,-1.7784,-1.7419,-1.6982,-1.6738,-1.6582,-1.6748,-1.665,-1.6953,-1.749,-1.79,-1.7725,-1.7822,-1.7871,-1.7656,-1.7637,-1.7734,-1.7969,-1.8008,-1.791,-1.7715,-1.7637,-1.7471,-1.7023,-1.66,-1.5641,-1.5287,-1.4488,-1.3565,-1.3165,-1.2875,-1.2474,-1.1973,-1.166,-1.1482,-1.1233,-1.1094,-1.0889,-1.0962,-1.1055,-1.1008,-1.0934,-1.0745,-1.0618,-1.0618,-1.0618,-1.0618,-1.0618,-1.0618,-1.0618,-1.0618,-1.0618,-1.0618,-1.0618,-1.0618,-1.0618,-4.4587,-4.457,-4.4367,-4.4253,-4.4097,-4.4015,-4.3355,-4.2443,-4.1787,-4.106,-4.0285,-3.9681,-3.9424,-3.9424,-3.9424,-3.9424,-3.9424,-3.9424,-3.9424,-3.9424,-3.9334,-3.932,-3.92,-3.8586,-3.7838,-3.709,-3.6514,-3.5651,-3.4617,-3.2998,-3.1667,-3.057,-2.8898,-2.7652,-2.7511,-2.6886,-2.6559,-2.6578,-2.6571,-2.6163,-2.5611,-2.5096,-2.4556,-2.3991,-2.3037,-2.2661,-2.2849,-2.2159,-2.1606,-2.1619,-2.2033,-2.2393,-2.2772,-2.2714,-2.2091,-2.1479,-2.1141,-2.02,-1.9388,-1.8843,-1.84,-1.7546,-1.7119,-1.6924,-1.7178,-1.7002,-1.707,-1.7607,-1.79,-1.7998,-1.7969,-1.7998,-1.7988,-1.7998,-1.7939,-1.7969,-1.7998,-1.8008,-1.7969,-1.7969,-1.7998,-1.7988,-1.7813,-1.7687,-1.7167,-1.6538,-1.6075,-1.5294,-1.4579,-1.4024,-1.3941,-1.3276,-1.2398,-1.1816,-1.1383,-1.0951,-1.0806,-1.0775,-1.0828,-1.0828,-1.0815,-1.0661,-1.0618,-1.0618,-1.0618,-1.0618,-1.0618,-1.0618,-1.0618,-1.0618,-1.0618,-1.0618,-1.0618,-1.0618,-1.0618,-4.457,-4.457,-4.4514,-4.444,-4.4253,-4.4097,-4.3262,-4.2013,-4.1641,-4.0925,-3.9879,-3.9481,-3.9424,-3.9424,-3.9424,-3.9424,-3.9424,-3.9424,-3.9424,-3.9424,-3.9424,-3.9424,-3.929,-3.8751,-3.8482,-3.8317,-3.7165,-3.6477,-3.6339,-3.4311,-3.3071,-3.2176,-3.0218,-2.9041,-2.8613,-2.7354,-2.6867,-2.7012,-2.671,-2.6189,-2.5611,-2.5109,-2.4556,-2.3991,-2.3288,-2.3,-2.3065,-2.2874,-2.2485,-2.2159,-2.2611,-2.2855,-2.275,-2.2418,-2.214,-2.1844,-2.0833,-2.0104,-1.977,-1.9091,-1.841,-1.7927,-1.7402,-1.7275,-1.7353,-1.7285,-1.7324,-1.7598,-1.7793,-1.8008,-1.8008,-1.8008,-1.8008,-1.8008,-1.8008,-1.8008,-1.8008,-1.8008,-1.8008,-1.8008,-1.8008,-1.8008,-1.794,-1.7638,-1.7239,-1.6843,-1.636,-1.5859,-1.5349,-1.4874,-1.472,-1.3607,-1.2677,-1.2056,-1.1495,-1.0982,-1.0645,-1.0601,-1.0635,-1.0648,-1.0648,-1.0658,-1.0618,-1.0618,-1.0618,-1.0618,-1.0618,-1.0618,-1.0618,-1.0618,-1.0618,-1.0618,-1.0618,-1.0618,-1.0618,-4.457,-4.457,-4.457,-4.4497,-4.4293,-4.4212,-4.341,-4.2442,-4.2109,-4.128,-4.0185,-3.992,-3.9737,-3.9409,-3.9424,-3.9424,-3.9424,-3.9424,-3.9424,-3.9424,-3.9424,-3.9424,-3.932,-3.896,-3.8901,-3.8796,-3.7584,-3.7,-3.6656,-3.5078,-3.3934,-3.3141,-3.1585,-3.0458,-2.9624,-2.8595,-2.7608,-2.7359,-2.6929,-2.644,-2.5636,-2.5322,-2.4732,-2.4142,-2.364,-2.3427,-2.3188,-2.3125,-2.2962,-2.2774,-2.289,-2.2957,-2.2714,-2.2407,-2.225,-2.2149,-2.1209,-2.0646,-2.0092,-1.9447,-1.8806,-1.814,-1.7617,-1.7529,-1.7559,-1.751,-1.7412,-1.7686,-1.7891,-1.7978,-1.8008,-1.8008,-1.8008,-1.8008,-1.8008,-1.8008,-1.8008,-1.8008,-1.8008,-1.8008,-1.8008,-1.8008,-1.8008,-1.7579,-1.7432,-1.7285,-1.7111,-1.6716,-1.6347,-1.5895,-1.5335,-1.4374,-1.3252,-1.2601,-1.1859,-1.1192,-1.0807,-1.0688,-1.0751,-1.0681,-1.0618,-1.0618,-1.0618,-1.0618,-1.0618,-1.0618,-1.0618,-1.0618,-1.0618,-1.0618,-1.0618,-1.0618,-1.0618,-1.0618,-1.0618,-4.457,-4.457,-4.457,-4.4497,-4.431,-4.431,-4.3781,-4.3059,-4.2921,-4.2093,-4.1064,-4.0826,-4.0378,-3.9538,-3.9681,-3.9481,-3.9424,-3.9424,-3.9424,-3.9424,-3.9424,-3.9424,-3.9409,-3.9349,-3.908,-3.8646,-3.7868,-3.724,-3.6596,-3.5257,-3.4399,-3.3747,-3.2607,-3.1541,-3.0421,-2.9613,-2.8692,-2.7725,-2.7318,-2.6804,-2.6038,-2.5674,-2.5109,-2.4481,-2.4004,-2.3627,-2.3276,-2.3125,-2.31,-2.3125,-2.3125,-2.2957,-2.2739,-2.2678,-2.2482,-2.2235,-2.1966,-2.1444,-2.0484,-2.0063,-1.9475,-1.8402,-1.7809,-1.7607,-1.7822,-1.7686,-1.7637,-1.791,-1.7998,-1.8008,-1.8008,-1.8008,-1.8008,-1.8008,-1.8008,-1.8008,-1.8008,-1.8008,-1.8008,-1.8008,-1.8008,-1.8008,-1.8008,-1.8008,-1.8008,-1.7725,-1.7579,-1.7385,-1.7069,-1.6719,-1.6252,-1.5707,-1.4447,-1.3137,-1.232,-1.1538,-1.1108,-1.087,-1.087,-1.087,-1.0618,-1.0618,-1.0618,-1.0618,-1.0618,-1.0618,-1.0618,-1.0618,-1.0618,-1.0618,-1.0618,-1.0618,-1.0618,-1.0618,-1.0618,-4.457,-4.457,-4.457,-4.4497,-4.431,-4.431,-4.3839,-4.3059,-4.3043,-4.255,-4.1804,-4.1528,-4.108,-4.0363,-4.02,-3.995,-3.9409,-3.9424,-3.9424,-3.9424,-3.9424,-3.9424,-3.9424,-3.9424,-3.9334,-3.9005,-3.8497,-3.7838,-3.7112,-3.635,-3.5392,-3.423,-3.322,-3.1859,-3.1261,-2.9876,-2.8677,-2.8434,-2.7758,-2.7205,-2.6753,-2.6013,-2.5485,-2.5059,-2.4393,-2.3715,-2.3263,-2.3125,-2.3125,-2.3125,-2.3065,-2.2957,-2.2739,-2.2678,-2.2555,-2.2259,-2.2197,-2.18,-2.1008,-2.0355,-1.977,-1.889,-1.8372,-1.791,-1.7969,-1.7997,-1.7891,-1.8008,-1.8008,-1.8018,-1.8066,-1.8027,-1.8047,-1.8066,-1.8057,-1.8027,-1.8008,-1.8008,-1.8008,-1.8008,-1.8008,-1.8008,-1.8008,-1.8008,-1.8008,-1.8008,-1.794,-1.7872,-1.7678,-1.7378,-1.6834,-1.6305,-1.4836,-1.3543,-1.3216,-1.2328,-1.1611,-1.1199,-1.1115,-1.0933,-1.0681,-1.0618,-1.0618,-1.0618,-1.0618,-1.0618,-1.0618,-1.0618,-1.0618,-1.0618,-1.0618,-1.0618,-1.0618,-1.0618,-1.0618,-4.457,-4.457,-4.457,-4.4514,-4.444,-4.4423,-4.4179,-4.3781,-4.3781,-4.3333,-4.2691,-4.2425,-4.1723,-4.0743,-4.0531,-4.0076,-3.9553,-3.9424,-3.9424,-3.9424,-3.9424,-3.9424,-3.9424,-3.9424,-3.9409,-3.9305,-3.8706,-3.8182,-3.7778,-3.7225,-3.638,-3.5465,-3.4621,-3.3872,-3.2674,-3.1162,-3.0307,-2.9343,-2.8268,-2.7557,-2.7168,-2.6477,-2.5636,-2.5222,-2.4431,-2.3728,-2.314,-2.3125,-2.3125,-2.3125,-2.3078,-2.2957,-2.2739,-2.2678,-2.2567,-2.2259,-2.2197,-2.1862,-2.1187,-2.0741,-2.0291,-1.9573,-1.9187,-1.8865,-1.8596,-1.8462,-1.8259,-1.8066,-1.8027,-1.8066,-1.8271,-1.8311,-1.8301,-1.8301,-1.8291,-1.8223,-1.8057,-1.8008,-1.8008,-1.8008,-1.8008,-1.8008,-1.8008,-1.8008,-1.8008,-1.8008,-1.8008,-1.792,-1.7706,-1.7406,-1.7069,-1.6296,-1.4818,-1.3915,-1.3899,-1.3241,-1.2218,-1.1759,-1.1365,-1.1052,-1.0688,-1.0624,-1.0618,-1.0618,-1.0618,-1.0618,-1.0618,-1.0618,-1.0618,-1.0618,-1.0618,-1.0618,-1.0618,-1.0618,-1.0618,-4.457,-4.457,-4.457,-4.457,-4.457,-4.457,-4.457,-4.457,-4.457,-4.4121,-4.3545,-4.3273,-4.2425,-4.1213,-4.0842,-4.027,-3.9553,-3.9424,-3.9424,-3.9424,-3.9424,-3.9424,-3.9424,-3.9424,-3.9409,-3.9334,-3.8901,-3.8556,-3.8227,-3.7823,-3.7067,-3.6604,-3.6419,-3.5172,-3.3943,-3.3193,-3.1857,-3.0207,-2.8972,-2.8015,-2.7394,-2.6779,-2.5937,-2.5159,-2.4531,-2.3929,-2.3452,-2.3226,-2.3125,-2.3125,-2.3125,-2.2957,-2.2787,-2.2739,-2.2629,-2.2321,-2.2247,-2.1987,-2.1514,-2.1198,-2.0741,-2.0302,-2.0107,-1.977,-1.9309,-1.8977,-1.8654,-1.8367,-1.8213,-1.8232,-1.8436,-1.8484,-1.8535,-1.8506,-1.8516,-1.8369,-1.8115,-1.8008,-1.8008,-1.8008,-1.8008,-1.8008,-1.8008,-1.8008,-1.8008,-1.8008,-1.8008,-1.7959,-1.7754,-1.7375,-1.7009,-1.6367,-1.5003,-1.4285,-1.4195,-1.3802,-1.283,-1.2334,-1.1829,-1.1206,-1.0771,-1.0624,-1.0618,-1.0618,-1.0618,-1.0618,-1.0618,-1.0618,-1.0618,-1.0618,-1.0618,-1.0618,-1.0618,-1.0618,-1.0618,-4.457,-4.457,-4.457,-4.457,-4.457,-4.457,-4.457,-4.457,-4.457,-4.4514,-4.4327,-4.4105,-4.3273,-4.2189,-4.1609,-4.0758,-3.9737,-3.9424,-3.9424,-3.9424,-3.9424,-3.9424,-3.9424,-3.9424,-3.9424,-3.9409,-3.92,-3.8916,-3.8542,-3.8212,-3.7644,-3.6641,-3.5922,-3.4891,-3.3998,-3.2844,-3.2131,-3.095,-2.9725,-2.8736,-2.802,-2.7012,-2.6138,-2.5423,-2.4908,-2.4393,-2.3841,-2.3389,-2.3125,-2.3125,-2.3125,-2.303,-2.2971,-2.2922,-2.2849,-2.2616,-2.2432,-2.2235,-2.2025,-2.1514,-2.1135,-2.0869,-2.0549,-2.0172,-1.9835,-1.9375,-1.9008,-1.8805,-1.8587,-1.8467,-1.8144,-1.8584,-1.8397,-1.8301,-1.8252,-1.8174,-1.8057,-1.8008,-1.8008,-1.8008,-1.8008,-1.8008,-1.8008,-1.8008,-1.8008,-1.8008,-1.8008,-1.8008,-1.791,-1.7432,-1.686,-1.6109,-1.5237,-1.4744,-1.448,-1.3967,-1.3379,-1.2901,-1.2325,-1.134,-1.0939,-1.0701,-1.0618,-1.0618,-1.0618,-1.0618,-1.0618,-1.0618,-1.0618,-1.0618,-1.0618,-1.0618,-1.0618,-1.0618,-1.0618,-4.457,-4.457,-4.457,-4.457,-4.457,-4.457,-4.457,-4.457,-4.457,-4.457,-4.4514,-4.427,-4.3663,-4.2769,-4.2332,-4.1311,-4.02,-3.9481,-3.9424,-3.9424,-3.9424,-3.9424,-3.9424,-3.9424,-3.9424,-3.9424,-3.9394,-3.9275,-3.896,-3.8931,-3.8182,-3.7222,-3.6535,-3.5816,-3.4528,-3.3804,-3.2883,-3.1951,-3.0591,-2.9425,-2.86,-2.7284,-2.6282,-2.5674,-2.5322,-2.482,-2.4092,-2.3791,-2.359,-2.359,-2.3577,-2.3528,-2.3467,-2.3442,-2.3207,-2.2825,-2.2616,-2.2543,-2.2482,-2.2037,-2.1839,-2.1776,-2.1325,-2.1008,-2.056,-2.0042,-1.9393,-1.896,-1.9053,-1.8994,-1.9053,-1.9141,-1.9062,-1.8789,-1.8643,-1.8428,-1.8144,-1.8037,-1.8018,-1.8027,-1.8008,-1.8008,-1.8008,-1.8008,-1.8008,-1.8008,-1.8008,-1.8008,-1.8008,-1.7471,-1.6821,-1.6674,-1.6094,-1.5829,-1.5432,-1.4795,-1.4208,-1.3695,-1.2869,-1.1873,-1.1192,-1.0903,-1.0715,-1.0618,-1.0618,-1.0618,-1.0618,-1.0618,-1.0618,-1.0618,-1.0624,-1.0624,-1.0624,-1.0618,-1.0631,-4.457,-4.457,-4.457,-4.457,-4.4604,-4.4756,-4.4705,-4.4621,-4.4773,-4.4739,-4.457,-4.4286,-4.3798,-4.3031,-4.2348,-4.1475,-4.0285,-3.9625,-3.9424,-3.9424,-3.9424,-3.9424,-3.9424,-3.9424,-3.9424,-3.9424,-3.9424,-3.9424,-3.9349,-3.9334,-3.8676,-3.7948,-3.7972,-3.7124,-3.5424,-3.4677,-3.4157,-3.2946,-3.1561,-3.0259,-2.8961,-2.7467,-2.6264,-2.5737,-2.5561,-2.4983,-2.4318,-2.3816,-2.3828,-2.3879,-2.3954,-2.4017,-2.4142,-2.4167,-2.3779,-2.3133,-2.2825,-2.2751,-2.2678,-2.2543,-2.2359,-2.2223,-2.2247,-2.1862,-2.14,-2.0658,-2.0018,-1.9351,-1.9494,-1.9753,-1.9912,-2.0083,-1.9718,-1.9228,-1.9082,-1.8994,-1.834,-1.8076,-1.8115,-1.8096,-1.8037,-1.8008,-1.8008,-1.8008,-1.8008,-1.8008,-1.8008,-1.8008,-1.7939,-1.7461,-1.71,-1.7373,-1.7203,-1.7057,-1.658,-1.5964,-1.5309,-1.4718,-1.3599,-1.2375,-1.1703,-1.1177,-1.0973,-1.0758,-1.0618,-1.0618,-1.0618,-1.0618,-1.0681,-1.0688,-1.0688,-1.0688,-1.0751,-1.0771,-1.0728,-4.457,-4.457,-4.457,-4.457,-4.4671,-4.5213,-4.5145,-4.4671,-4.5196,-4.5179,-4.4587,-4.453,-4.4006,-4.3169,-4.1625,-4.0531,-3.9824,-3.9481,-3.9424,-3.9424,-3.9424,-3.9424,-3.9424,-3.9424,-3.9424,-3.9424,-3.9424,-3.9424,-3.9424,-3.9424,-3.9035,-3.8336,-3.7901,-3.7201,-3.5781,-3.5379,-3.4565,-3.3367,-3.2457,-3.0925,-2.8884,-2.7344,-2.6645,-2.6181,-2.5627,-2.4996,-2.4669,-2.4104,-2.3778,-2.4079,-2.4042,-2.4243,-2.4607,-2.4732,-2.4418,-2.3866,-2.3306,-2.286,-2.2848,-2.2739,-2.2616,-2.2482,-2.2432,-2.2235,-2.1883,-2.1446,-2.0917,-2.0773,-2.0952,-2.0828,-2.0565,-2.0761,-2.0081,-1.9508,-1.9111,-1.8818,-1.8301,-1.8105,-1.8154,-1.8096,-1.8018,-1.8008,-1.8008,-1.8008,-1.8008,-1.8008,-1.8008,-1.8008,-1.792,-1.7519,-1.7148,-1.7373,-1.7656,-1.7502,-1.7254,-1.6654,-1.6178,-1.5583,-1.442,-1.305,-1.2345,-1.1725,-1.1157,-1.0961,-1.0758,-1.0681,-1.0681,-1.0744,-1.0751,-1.0814,-1.0814,-1.094,-1.0996,-1.0968,-1.0889,-4.457,-4.457,-4.457,-4.457,-4.4621,-4.4942,-4.4891,-4.4688,-4.4908,-4.4891,-4.4621,-4.4497,-4.4138,-4.3443,-4.2013,-4.1095,-4.0585,-3.9879,-3.9424,-3.9424,-3.9424,-3.9424,-3.9424,-3.9424,-3.9424,-3.9424,-3.9424,-3.9424,-3.9424,-3.9364,-3.908,-3.8512,-3.8206,-3.7401,-3.6168,-3.5786,-3.502,-3.3862,-3.2546,-3.1086,-2.9605,-2.8331,-2.7417,-2.7095,-2.6501,-2.5945,-2.5224,-2.4908,-2.4632,-2.4845,-2.4669,-2.472,-2.4933,-2.4732,-2.4205,-2.4017,-2.3391,-2.3055,-2.303,-2.2934,-2.28,-2.2665,-2.258,-2.243,-2.223,-2.2062,-2.1856,-2.1721,-2.2051,-2.1862,-2.1239,-2.1281,-2.0417,-1.975,-1.9275,-1.888,-1.8527,-1.8252,-1.8144,-1.8066,-1.8008,-1.8008,-1.8008,-1.8008,-1.8008,-1.8008,-1.8008,-1.8008,-1.7998,-1.7861,-1.751,-1.7256,-1.7568,-1.7803,-1.7523,-1.7156,-1.677,-1.6147,-1.5332,-1.409,-1.3157,-1.2435,-1.1823,-1.1248,-1.1017,-1.0884,-1.0884,-1.087,-1.087,-1.0933,-1.0996,-1.1094,-1.1192,-1.1122,-1.1177,-4.457,-4.457,-4.457,-4.457,-4.4604,-4.4773,-4.4756,-4.4587,-4.4823,-4.479,-4.4604,-4.4384,-4.4196,-4.3697,-4.2599,-4.1804,-4.1528,-4.0447,-3.9879,-3.9753,-3.961,-3.9625,-3.9496,-3.9424,-3.9424,-3.9424,-3.9424,-3.9424,-3.9424,-3.9379,-3.9155,-3.8661,-3.868,-3.7749,-3.665,-3.606,-3.5448,-3.3984,-3.2421,-3.1188,-3.0198,-2.9073,-2.8158,-2.7617,-2.7235,-2.6736,-2.5782,-2.5335,-2.531,-2.5448,-2.5209,-2.5259,-2.5586,-2.5297,-2.4808,-2.4531,-2.3979,-2.3541,-2.3378,-2.318,-2.2994,-2.2848,-2.2776,-2.2627,-2.2591,-2.264,-2.2902,-2.2888,-2.3157,-2.2712,-2.211,-2.2103,-2.1271,-2.0452,-1.9655,-1.9232,-1.8824,-1.8458,-1.8174,-1.8047,-1.8008,-1.8008,-1.8008,-1.8008,-1.8008,-1.8008,-1.8008,-1.8008,-1.7998,-1.7988,-1.7832,-1.751,-1.7646,-1.792,-1.7794,-1.7463,-1.7179,-1.6784,-1.5949,-1.4874,-1.372,-1.3016,-1.239,-1.1899,-1.1277,-1.127,-1.1283,-1.11,-1.0996,-1.1052,-1.1136,-1.1291,-1.1333,-1.1326,-1.1482,-4.457,-4.457,-4.457,-4.457,-4.4621,-4.5331,-4.5179,-4.4637,-4.528,-4.5128,-4.4621,-4.4367,-4.4006,-4.3426,-4.297,-4.2316,-4.1723,-4.1444,-4.0857,-4.0478,-4.0339,-3.995,-3.9625,-3.9424,-3.9424,-3.9424,-3.9424,-3.9424,-3.9424,-3.9424,-3.9379,-3.9349,-3.9098,-3.8225,-3.7168,-3.631,-3.5371,-3.3978,-3.2482,-3.1457,-3.0532,-2.9513,-2.8457,-2.7696,-2.7092,-2.6401,-2.5706,-2.5454,-2.5441,-2.5807,-2.5577,-2.5699,-2.6038,-2.5799,-2.5423,-2.5172,-2.4607,-2.4142,-2.3841,-2.3328,-2.3042,-2.2909,-2.2849,-2.2886,-2.3168,-2.3143,-2.3508,-2.4124,-2.4236,-2.3805,-2.3385,-2.3035,-2.2092,-2.1,-2.0038,-1.9554,-1.9133,-1.8556,-1.8281,-1.8086,-1.8008,-1.8008,-1.8008,-1.8008,-1.8008,-1.8008,-1.8008,-1.8008,-1.8008,-1.7998,-1.7998,-1.7881,-1.79,-1.7988,-1.7988,-1.7774,-1.7531,-1.7301,-1.6758,-1.5384,-1.4045,-1.3461,-1.3124,-1.2055,-1.1439,-1.1596,-1.161,-1.1404,-1.1254,-1.124,-1.1331,-1.1459,-1.1646,-1.1689,-1.1861,-4.457,-4.457,-4.457,-4.457,-4.4604,-4.4891,-4.484,-4.4637,-4.4891,-4.4874,-4.457,-4.4497,-4.4327,-4.3931,-4.3196,-4.2798,-4.2425,-4.1755,-4.1194,-4.0668,-4.0409,-4.0021,-3.9625,-3.9424,-3.9424,-3.9424,-3.9424,-3.9424,-3.9424,-3.9424,-3.9424,-3.9352,-3.9307,-3.843,-3.7386,-3.6202,-3.5005,-3.433,-3.3252,-3.237,-3.1675,-3.0905,-2.9862,-2.8812,-2.8639,-2.8102,-2.7432,-2.6765,-2.6672,-2.6473,-2.6029,-2.6068,-2.6176,-2.5862,-2.5624,-2.5448,-2.482,-2.4293,-2.3991,-2.3489,-2.309,-2.3017,-2.2958,-2.317,-2.3833,-2.3904,-2.4413,-2.4896,-2.4998,-2.4474,-2.3508,-2.3166,-2.2514,-2.1283,-2.0411,-1.9928,-1.9377,-1.8863,-1.8359,-1.8164,-1.8057,-1.8008,-1.8008,-1.8008,-1.8008,-1.8008,-1.8008,-1.8008,-1.8008,-1.8008,-1.8008,-1.8008,-1.8008,-1.8008,-1.8008,-1.7978,-1.7872,-1.7648,-1.7348,-1.6085,-1.4737,-1.447,-1.3957,-1.271,-1.1725,-1.1689,-1.1674,-1.16,-1.1519,-1.1435,-1.1435,-1.1512,-1.176,-1.2058,-1.2159,-4.449,-4.4265,-4.4502,-4.457,-4.457,-4.457,-4.457,-4.457,-4.4587,-4.457,-4.457,-4.457,-4.457,-4.431,-4.3798,-4.3333,-4.3152,-4.2537,-4.1852,-4.1459,-4.1209,-4.0547,-4.0021,-3.9681,-3.9681,-3.9481,-3.9424,-3.9424,-3.9424,-3.9424,-3.9424,-3.9364,-3.9155,-3.8307,-3.7228,-3.5739,-3.4758,-3.4303,-3.3915,-3.3216,-3.2498,-3.1768,-3.0993,-2.9904,-2.9582,-2.9024,-2.8295,-2.7643,-2.7353,-2.7035,-2.6573,-2.6068,-2.5862,-2.5611,-2.5259,-2.4983,-2.4619,-2.4042,-2.3866,-2.3502,-2.3238,-2.3366,-2.3329,-2.3841,-2.4372,-2.4666,-2.5043,-2.564,-2.5448,-2.4835,-2.3656,-2.3561,-2.306,-2.1943,-2.0588,-1.9969,-1.9546,-1.9012,-1.8606,-1.8242,-1.8223,-1.8281,-1.8389,-1.8398,-1.8115,-1.8086,-1.8008,-1.8008,-1.8008,-1.8008,-1.8008,-1.8008,-1.8008,-1.8008,-1.8008,-1.7988,-1.793,-1.7637,-1.7271,-1.6571,-1.5613,-1.5269,-1.4408,-1.3034,-1.2191,-1.1873,-1.1743,-1.1699,-1.1633,-1.156,-1.1619,-1.1728,-1.1882,-1.2102,-1.2196,-4.4258,-4.3572,-4.4282,-4.457,-4.457,-4.457,-4.457,-4.457,-4.457,-4.457,-4.457,-4.457,-4.457,-4.4514,-4.408,-4.3931,-4.3889,-4.3535,-4.2974,-4.238,-4.1933,-4.1459,-4.0737,-4.0216,-3.9733,-3.9466,-3.9409,-3.9409,-3.9334,-3.9409,-3.9409,-3.917,-3.8766,-3.8048,-3.7315,-3.5933,-3.4735,-3.3914,-3.3791,-3.3296,-3.2527,-3.1932,-3.1237,-3.0472,-2.9959,-2.9421,-2.8953,-2.8247,-2.7999,-2.7749,-2.7139,-2.6518,-2.5899,-2.5836,-2.5479,-2.4971,-2.4443,-2.4092,-2.4004,-2.3464,-2.3565,-2.3904,-2.3917,-2.4316,-2.4996,-2.5277,-2.5413,-2.5938,-2.5709,-2.5253,-2.4627,-2.4075,-2.3323,-2.2492,-2.1149,-2.014,-1.9735,-1.911,-1.8675,-1.8447,-1.8603,-1.873,-1.8867,-1.8838,-1.8398,-1.8184,-1.8057,-1.8008,-1.8008,-1.8008,-1.8008,-1.8008,-1.8008,-1.8008,-1.8008,-1.8008,-1.79,-1.7598,-1.729,-1.6788,-1.6167,-1.5605,-1.4584,-1.326,-1.2744,-1.2493,-1.2141,-1.1794,-1.1794,-1.1823,-1.1882,-1.1977,-1.2036,-1.2094,-1.2153,-4.449,-4.4215,-4.4468,-4.457,-4.457,-4.457,-4.457,-4.457,-4.457,-4.457,-4.457,-4.457,-4.457,-4.4514,-4.4384,-4.4196,-4.4196,-4.3939,-4.3432,-4.2756,-4.2317,-4.1409,-4.0684,-4.01,-3.9541,-3.9047,-3.9065,-3.9095,-3.8721,-3.9035,-3.9349,-3.92,-3.8212,-3.7434,-3.6679,-3.5725,-3.4919,-3.4589,-3.4339,-3.3828,-3.2658,-3.228,-3.1676,-3.0692,-3.0377,-3.0111,-2.9747,-2.903,-2.8712,-2.8648,-2.8065,-2.7262,-2.6492,-2.6245,-2.5946,-2.534,-2.482,-2.4569,-2.4544,-2.4356,-2.4343,-2.4519,-2.4607,-2.4818,-2.5365,-2.5465,-2.5802,-2.5934,-2.5722,-2.5157,-2.4688,-2.3854,-2.3084,-2.2652,-2.16,-2.0688,-2.0031,-1.9281,-1.8675,-1.8742,-1.8818,-1.8818,-1.8906,-1.8926,-1.8594,-1.8252,-1.8096,-1.8027,-1.8018,-1.8008,-1.8008,-1.8008,-1.8008,-1.8008,-1.8008,-1.8008,-1.8008,-1.7822,-1.7639,-1.7437,-1.6784,-1.6048,-1.5019,-1.3908,-1.3433,-1.3084,-1.25,-1.2097,-1.2123,-1.2138,-1.2145,-1.2036,-1.1984,-1.2028,-1.2029,-4.4584,-4.4342,-4.458,-4.4626,-4.4626,-4.457,-4.457,-4.457,-4.457,-4.457,-4.457,-4.457,-4.457,-4.4514,-4.444,-4.431,-4.431,-4.4097,-4.3805,-4.3125,-4.2694,-4.1852,-4.0992,-4.0255,-3.9838,-3.9083,-3.8781,-3.8781,-3.8452,-3.8586,-3.8467,-3.8063,-3.7554,-3.6806,-3.6111,-3.5553,-3.5213,-3.4942,-3.4773,-3.4435,-3.363,-3.3019,-3.2416,-3.1646,-3.109,-3.0768,-3.0459,-3.0068,-2.9623,-2.9421,-2.8884,-2.7964,-2.7128,-2.6621,-2.6207,-2.5521,-2.4858,-2.4745,-2.4946,-2.4808,-2.4908,-2.5398,-2.5222,-2.5372,-2.5749,-2.5963,-2.6113,-2.6113,-2.5636,-2.5335,-2.4933,-2.4004,-2.3629,-2.3169,-2.2459,-2.1555,-2.1091,-2.0357,-1.9868,-1.9768,-1.9479,-1.9328,-1.8936,-1.8838,-1.873,-1.8418,-1.8135,-1.8115,-1.8076,-1.8027,-1.8018,-1.8008,-1.8008,-1.8008,-1.8008,-1.8008,-1.8008,-1.8008,-1.7862,-1.7716,-1.732,-1.6596,-1.5566,-1.4592,-1.4205,-1.3623,-1.276,-1.2394,-1.2362,-1.2358,-1.2321,-1.216,-1.1919,-1.205,-1.2182,-4.4536,-4.3861,-4.4402,-4.4635,-4.4558,-4.4519,-4.457,-4.457,-4.457,-4.457,-4.457,-4.457,-4.457,-4.457,-4.4384,-4.4367,-4.431,-4.4212,-4.3981,-4.3789,-4.3355,-4.249,-4.1706,-4.1111,-4.0033,-3.9244,-3.8781,-3.8422,-3.8242,-3.8003,-3.7434,-3.6881,-3.6791,-3.6252,-3.5818,-3.5499,-3.5359,-3.5162,-3.5052,-3.4765,-3.4141,-3.3724,-3.2972,-3.2192,-3.1544,-3.0988,-3.0592,-3.0129,-2.9808,-2.9546,-2.9066,-2.7998,-2.7269,-2.6828,-2.5962,-2.5153,-2.457,-2.4983,-2.5385,-2.5259,-2.5485,-2.5975,-2.5837,-2.6025,-2.6189,-2.6289,-2.6289,-2.6319,-2.5937,-2.5749,-2.541,-2.5046,-2.4695,-2.4134,-2.3474,-2.2924,-2.2556,-2.2037,-2.1599,-2.1206,-2.0812,-2.0353,-1.9452,-1.9111,-1.9115,-1.875,-1.8535,-1.8516,-1.8408,-1.8047,-1.8037,-1.8008,-1.8008,-1.8008,-1.8008,-1.8008,-1.8008,-1.8008,-1.7998,-1.7823,-1.7446,-1.7044,-1.6167,-1.54,-1.4876,-1.4185,-1.3186,-1.276,-1.2672,-1.2629,-1.2533,-1.2438,-1.2248,-1.2533,-1.2687,-4.3235,-4.303,-4.3146,-4.3413,-4.3956,-4.4389,-4.457,-4.457,-4.457,-4.457,-4.457,-4.457,-4.457,-4.457,-4.457,-4.4514,-4.444,-4.4327,-4.4155,-4.3889,-4.3453,-4.252,-4.1755,-4.1033,-3.9703,-3.8726,-3.8192,-3.7922,-3.7368,-3.709,-3.6985,-3.6626,-3.6327,-3.5953,-3.5654,-3.5474,-3.5299,-3.519,-3.5065,-3.4851,-3.4307,-3.3583,-3.2874,-3.2167,-3.1489,-3.0933,-3.0594,-3.0387,-3.0251,-3.019,-3.0115,-2.9374,-2.8277,-2.8071,-2.7536,-2.6375,-2.5957,-2.595,-2.6126,-2.6063,-2.6101,-2.6327,-2.6239,-2.6302,-2.6496,-2.6414,-2.6302,-2.6201,-2.6088,-2.5862,-2.5561,-2.5247,-2.5046,-2.4636,-2.4149,-2.3814,-2.3448,-2.3311,-2.2767,-2.1959,-2.1576,-2.0798,-1.9899,-1.9688,-1.9653,-1.9203,-1.8955,-1.8926,-1.8779,-1.8428,-1.8164,-1.8144,-1.8096,-1.8125,-1.8027,-1.8008,-1.8008,-1.8008,-1.7998,-1.7978,-1.7755,-1.7302,-1.6684,-1.6039,-1.5359,-1.4465,-1.3539,-1.3304,-1.3202,-1.2923,-1.2855,-1.2723,-1.2672,-1.2914,-1.2972,-4.2826,-4.2723,-4.2619,-4.277,-4.3105,-4.3525,-4.3673,-4.3775,-4.4299,-4.457,-4.457,-4.457,-4.457,-4.457,-4.457,-4.457,-4.4553,-4.4013,-4.3826,-4.3914,-4.3096,-4.2639,-4.1901,-4.1112,-4.0216,-3.9011,-3.8038,-3.7607,-3.6884,-3.6265,-3.5983,-3.6088,-3.5923,-3.5489,-3.516,-3.4996,-3.4797,-3.4703,-3.4609,-3.4579,-3.4065,-3.3313,-3.2617,-3.1907,-3.1243,-3.0979,-3.0657,-3.0642,-3.0642,-3.0642,-3.0642,-3.0122,-2.9026,-2.8567,-2.8053,-2.6909,-2.6238,-2.6249,-2.6276,-2.6126,-2.6251,-2.6389,-2.6521,-2.6521,-2.6508,-2.6496,-2.6357,-2.6231,-2.6025,-2.585,-2.5523,-2.5247,-2.5197,-2.5134,-2.4822,-2.4443,-2.4365,-2.4312,-2.3557,-2.2644,-2.186,-2.105,-2.0599,-2.0416,-2.0083,-1.9487,-1.9277,-1.9326,-1.918,-1.8906,-1.8584,-1.8408,-1.833,-1.8271,-1.8144,-1.8008,-1.8008,-1.8008,-1.8008,-1.7988,-1.7949,-1.7687,-1.7119,-1.6429,-1.5705,-1.4901,-1.4205,-1.3901,-1.3761,-1.3508,-1.3245,-1.3072,-1.3057,-1.3155,-1.3111,-4.2721,-4.2501,-4.2603,-4.2431,-4.2255,-4.2354,-4.2388,-4.2439,-4.3724,-4.4367,-4.4282,-4.4333,-4.4215,-4.4045,-4.4045,-4.4096,-4.3809,-4.3293,-4.316,-4.3813,-4.2772,-4.216,-4.1869,-4.1604,-4.0341,-3.9581,-3.8729,-3.7679,-3.695,-3.6176,-3.5461,-3.5419,-3.4801,-3.4457,-3.4442,-3.4412,-3.4233,-3.3946,-3.402,-3.405,-3.4065,-3.3508,-3.282,-3.2119,-3.1689,-3.1316,-3.0773,-3.0628,-3.0642,-3.0642,-3.0421,-3.0107,-2.9397,-2.8529,-2.7838,-2.7473,-2.683,-2.6368,-2.6388,-2.6232,-2.6186,-2.6294,-2.6427,-2.6521,-2.6521,-2.6521,-2.6395,-2.6151,-2.6013,-2.5988,-2.5737,-2.5624,-2.5573,-2.5573,-2.5428,-2.5319,-2.5358,-2.5063,-2.4331,-2.3451,-2.2637,-2.1817,-2.0966,-2.0764,-2.0657,-1.994,-1.9658,-1.9756,-1.9658,-1.9424,-1.9004,-1.8682,-1.8379,-1.8232,-1.8115,-1.8008,-1.8008,-1.8008,-1.8008,-1.7881,-1.7764,-1.7666,-1.7578,-1.686,-1.6163,-1.5652,-1.5106,-1.4875,-1.4631,-1.422,-1.3938,-1.3615,-1.3517,-1.3591,-1.3403,-4.0823,-4.1378,-4.1747,-4.1767,-4.1681,-4.2102,-4.2252,-4.2303,-4.2642,-4.2777,-4.2844,-4.2844,-4.2912,-4.3031,-4.298,-4.2946,-4.2743,-4.2267,-4.2088,-4.211,-4.1698,-4.1352,-4.1048,-4.0848,-4.0055,-3.9104,-3.8323,-3.7698,-3.6845,-3.5845,-3.5141,-3.5186,-3.4348,-3.3739,-3.3739,-3.3739,-3.3574,-3.326,-3.3125,-3.3335,-3.3484,-3.3019,-3.2316,-3.1929,-3.1602,-3.107,-3.0658,-3.0584,-3.0613,-3.0613,-3.006,-2.9768,-2.9533,-2.875,-2.8367,-2.8257,-2.7793,-2.7078,-2.6531,-2.6462,-2.6506,-2.6173,-2.6189,-2.6364,-2.6521,-2.6521,-2.6364,-2.6176,-2.6063,-2.6063,-2.605,-2.6,-2.5963,-2.6,-2.6038,-2.6113,-2.6189,-2.5652,-2.4967,-2.4259,-2.3474,-2.2553,-2.1681,-2.1141,-2.1024,-2.0781,-2.0476,-2.0342,-2.0264,-2.0039,-1.9355,-1.8936,-1.834,-1.8125,-1.8076,-1.8008,-1.8008,-1.8008,-1.8008,-1.7832,-1.7627,-1.7549,-1.7471,-1.7187,-1.6703,-1.6206,-1.598,-1.6175,-1.5878,-1.5051,-1.4696,-1.4403,-1.4119,-1.4101,-1.3845,-3.9721,-3.9881,-4.0314,-4.0491,-4.0509,-4.0714,-4.0646,-4.0375,-4.0341,-4.0341,-4.0663,-4.1593,-4.2269,-4.2151,-4.1982,-4.1728,-4.1593,-4.1,-4.0843,-4.0735,-4.0725,-4.0415,-4.0229,-4.0148,-3.9797,-3.8956,-3.8019,-3.7261,-3.6358,-3.5127,-3.4358,-3.4469,-3.3592,-3.3066,-3.3066,-3.3051,-3.2916,-3.2587,-3.2273,-3.2377,-3.2691,-3.2184,-3.1916,-3.1619,-3.1353,-3.0822,-3.0382,-3.0236,-3.0002,-2.9784,-2.9348,-2.9508,-2.9318,-2.8944,-2.8783,-2.8699,-2.8311,-2.7589,-2.6935,-2.6726,-2.6796,-2.6333,-2.6231,-2.6496,-2.6521,-2.6521,-2.6508,-2.6276,-2.6289,-2.6289,-2.6264,-2.6214,-2.6239,-2.6276,-2.6264,-2.6289,-2.6202,-2.5869,-2.5438,-2.5039,-2.4198,-2.3307,-2.239,-2.1668,-2.1435,-2.0767,-2.0615,-2.0547,-2.0547,-2.04,-1.9766,-1.9209,-1.8633,-1.834,-1.8359,-1.8193,-1.8008,-1.8008,-1.8008,-1.793,-1.7793,-1.7559,-1.7353,-1.7246,-1.7057,-1.6759,-1.6721,-1.6819,-1.6399,-1.5483,-1.5342,-1.5317,-1.4947,-1.4474,-1.3953,-3.9032,-3.8505,-3.8935,-3.9112,-3.9064,-3.8967,-3.8599,-3.8091,-3.799,-3.8024,-3.8396,-4.0612,-4.161,-4.1491,-4.1136,-4.0916,-4.0392,-3.9547,-3.9379,-3.9746,-3.9943,-3.9598,-3.9541,-3.9669,-3.923,-3.864,-3.7775,-3.6565,-3.5408,-3.4544,-3.4074,-3.3561,-3.2961,-3.2436,-3.2377,-3.2332,-3.2198,-3.1913,-3.1689,-3.1556,-3.1497,-3.1377,-3.1289,-3.1159,-3.0939,-3.0527,-2.9972,-2.9594,-2.9202,-2.8955,-2.8751,-2.8797,-2.8958,-2.8768,-2.8993,-2.8886,-2.8886,-2.8102,-2.7375,-2.7092,-2.6749,-2.64,-2.6455,-2.6476,-2.6463,-2.6402,-2.6389,-2.6352,-2.6364,-2.6496,-2.6402,-2.6389,-2.6483,-2.6452,-2.644,-2.6358,-2.6176,-2.598,-2.5816,-2.5569,-2.4838,-2.3879,-2.3147,-2.2414,-2.168,-2.1011,-2.0634,-2.0644,-2.0508,-2.0254,-1.9834,-1.9414,-1.8975,-1.8769,-1.8545,-1.8301,-1.8008,-1.8008,-1.8008,-1.8008,-1.793,-1.7627,-1.749,-1.7539,-1.7377,-1.7197,-1.7054,-1.6975,-1.6405,-1.6131,-1.5895,-1.5748,-1.4972,-1.4445,-1.3902,-3.818,-3.8567,-3.8557,-3.8499,-3.8389,-3.8231,-3.8085,-3.7922,-3.7872,-3.7922,-3.8024,-3.821,-3.8751,-3.8785,-3.865,-3.8616,-3.8768,-3.8027,-3.8351,-3.8875,-3.874,-3.8539,-3.8503,-3.8552,-3.8302,-3.7783,-3.7246,-3.6894,-3.5364,-3.4809,-3.4441,-3.3864,-3.2721,-3.2148,-3.1689,-3.1571,-3.1554,-3.136,-3.1362,-3.1362,-3.1285,-3.1106,-3.0746,-3.0425,-2.9971,-2.9678,-2.9374,-2.9304,-2.916,-2.8884,-2.8408,-2.821,-2.8262,-2.8482,-2.8685,-2.8984,-2.8961,-2.8377,-2.7742,-2.7507,-2.7067,-2.5755,-2.5846,-2.6212,-2.6193,-2.6226,-2.6176,-2.605,-2.6113,-2.6352,-2.6377,-2.6339,-2.6352,-2.6427,-2.6383,-2.6327,-2.6201,-2.5992,-2.5828,-2.5594,-2.5229,-2.4492,-2.3818,-2.3084,-2.2349,-2.168,-2.1088,-2.1088,-2.0981,-2.051,-1.9938,-1.9585,-1.9223,-1.8643,-1.8193,-1.8184,-1.8008,-1.8008,-1.8008,-1.8008,-1.7891,-1.7627,-1.7549,-1.7686,-1.7803,-1.7784,-1.7552,-1.7254,-1.7358,-1.7092,-1.6563,-1.6044,-1.5222,-1.4703,-1.4458]},{"header":{"parameterUnit":"m.s-1","parameterCategory":1,"la1":31.0,"la2":29.5877,"lo1":-88.7671,"lo2":-86.6584,"dy":0.0162,"dx":0.0185,"nx":115,"ny":88,"refTime":"2023-07-28T06:00:00:Z","depth":0,"parameterNumber":3,"parameterNumberName":"V-component_of_WINDS"},"data":[0.0,0.0,0.0,0.0,0.0,0.0,0.0,0.0,0.0,0.0,0.0,0.0,0.0,0.0,0.0,0.0,0.0,0.0,0.0,0.0,0.0,0.0,0.0,0.0,0.0,0.0,0.0,0.0,0.0,0.0,0.0,0.0,0.0,0.0,0.0,0.0,0.0,0.0,0.0,0.0,0.0,0.0,0.0,0.0,0.0,0.0,0.0,0.0,0.0,0.0,0.0,0.0,0.0,0.0,0.0,0.0,0.0,0.0,0.0,0.0,0.0,0.0,0.0,0.0,0.0,0.0,0.0,0.0,0.0,0.0,0.0,0.0,0.0,0.0,0.0,0.0,0.0,0.0,0.0,0.0,0.0,0.0,0.0,0.0,0.0,0.0,0.0,0.0,0.0,0.0,0.0,0.0,0.0,0.0,0.0,0.0,0.0,0.0,0.0,0.0,0.0,0.0,0.0,0.0,0.0,0.0,0.0,0.0,0.0,0.0,0.0,0.0,0.0,0.0,0.0,0.0,0.0,0.0,0.0,0.0,0.0,0.0,0.0,0.0,0.0,0.0,0.0,0.0,0.0,0.0,0.0,0.0,0.0,0.0,0.0,0.0,0.0,0.0,0.0,0.0,0.0,0.0,0.0,0.0,0.0,0.0,0.0,0.0,0.0,0.0,0.0,0.0,0.0,0.0,0.0,0.0,0.0,0.0,0.0,0.0,0.0,0.0,0.0,0.0,0.0,0.0,0.0,0.0,0.0,0.0,0.0,0.0,0.0,0.0,0.0,0.0,0.0,0.0,0.0,0.0,0.0,0.0,0.0,0.0,0.0,0.0,0.0,0.0,0.0,0.0,0.0,0.0,0.0,0.0,0.0,0.0,0.0,0.0,0.0,0.0,0.0,0.0,0.0,0.0,0.0,0.0,0.0,0.0,0.0,0.0,0.0,0.0,0.0,0.0,0.0,0.0,0.0,0.0,0.0,0.0,0.0,0.0,0.0,0.0,0.0,0.0,0.0,0.0,0.0,0.0,0.0,0.0,0.0,0.0,0.0,0.0,0.0,0.0,0.0,0.0,0.0,0.0,0.0,0.0,0.0,0.0,0.0,0.0,0.0,0.0,0.0,0.0,0.0,0.0,0.0,0.0,0.0,0.0,0.0,0.0,0.0,0.0,0.0,0.0,0.0,0.0,0.0,0.0,0.0,0.0,0.0,0.0,0.0,0.0,0.0,0.0,0.0,0.0,0.0,0.0,0.0,0.0,0.0,0.0,0.0,0.0,0.0,0.0,0.0,0.0,0.0,0.0,0.0,0.0,0.0,0.0,0.0,0.0,0.0,0.0,0.0,0.0,0.0,0.0,0.0,0.0,0.0,0.0,0.0,0.0,0.0,0.0,0.0,0.0,0.0,0.0,0.0,0.0,0.0,0.0,0.0,0.0,0.0,0.0,0.0,0.0,0.0,0.0,0.0,0.0,0.0,0.0,0.0,0.0,0.0,0.0,0.0,0.0,0.0,0.0,0.0,0.0,0.0,0.0,0.0,0.0,0.0,0.0,0.0,0.0,0.0,0.0,0.0,0.0,0.0,0.0,0.0,0.0,0.0,0.0,0.0,0.0,0.0,0.0,0.0,0.0,0.0,0.0,0.0,0.0,0.0,0.0,0.0,0.0,0.0,0.0,0.0,0.0,0.0,0.0,0.0,0.0,0.0,0.0,0.0,0.0,0.0,0.0,0.0,0.0,0.0,0.0,0.0,0.0,0.0,0.0,0.0,0.0,0.0,0.0,0.0,0.0,0.0,0.0,0.0,0.0,0.0,0.0,0.0,0.0,0.0,0.0,0.0,0.0,0.0,0.0,0.0,0.0,0.0,0.0,0.0,0.0,0.0,0.0,0.0,0.0,0.0,0.0,0.0,0.0,0.0,0.0,0.0,0.0,0.0,0.0,0.0,0.0,0.0,0.0,0.0,0.0,0.0,0.0,0.0,0.0,0.0,0.0,0.0,0.0,0.0,0.0,0.0,0.0,0.0,0.0,0.0,0.0,0.0,0.0,0.0,0.0,0.0,0.0,0.0,0.0,0.0,0.0,0.0,0.0,0.0,0.0,0.0,0.0,0.0,0.0,0.0,0.0,0.0,0.0,0.0,0.0,0.0,0.0,0.0,0.0,0.0,0.0,0.0,0.0,0.0,0.0,0.0,0.0,0.0,0.0,0.0,0.0,0.0,0.0,0.0,0.0,0.0,0.0,0.0,0.0,0.0,0.0,0.0,0.0,0.0,0.0,0.0,0.0,0.0,0.0,0.0,0.0,0.0,0.0,0.0,0.0,0.0,0.0,0.0,0.0,0.0,0.0,0.0,0.0,0.0,0.0,0.0,0.0,0.0,0.0,0.0,0.0,0.0,0.0,0.0,0.0,0.0,0.0,0.0,0.0,0.0,0.0,0.0,0.0,0.0,0.0,0.0,0.0,0.0,0.0,0.0,0.0,0.0,0.0,0.0,0.0,0.0,0.0,0.0,0.0,0.0,0.0,0.0,0.0,0.0,0.0,0.0,0.0,0.0,0.0,0.0,0.0,0.0,0.0,0.0,0.0,0.0,0.0,0.0,0.0,0.0,0.0,0.0,0.0,0.0,0.0,0.0,0.0,0.0,0.0,0.0,0.0,0.0,0.0,0.0,0.0,0.0,0.0,0.0,0.0,0.0,0.0,0.0,0.0,0.0,0.0,0.0,0.0,0.0,0.0,0.0,0.0,0.0,0.0,0.0,0.0,0.0,0.0,0.0,0.0,0.0,0.0,0.0,0.0,0.0,0.0,0.0,0.0,0.0,0.0,0.0,0.0,0.0,0.0,0.0,0.0,0.0,0.0,0.0,0.0,0.0,0.0,0.0,0.0,0.0,0.0,0.0,0.0,0.0,0.0,0.0,0.0,0.0,0.0,0.0,0.0,0.0,0.0,0.0,0.0,0.0,0.0,0.0,0.0,0.0,0.0,0.0,0.0,0.0,0.0,0.0,0.0,0.0,0.0,0.0,0.0,0.0,0.0,0.0,0.0,0.0,0.0,0.0,0.0,0.0,0.0,0.0,0.0,0.0,0.0,0.0,0.0,0.0,0.0,0.0,0.0,0.0,0.0,0.0,0.0,0.0,0.0,0.0,0.0,0.0,0.0,0.0,0.0,0.0,0.0,0.0,0.0,0.0,0.0,0.0,0.0,0.0,0.0,0.0,0.0,0.0,0.0,0.0,0.0,0.0,0.0,0.0,0.0,0.0,0.0,0.0,0.0,0.0,0.0,0.0,0.0,0.0,0.0,0.0,0.0,0.0,0.0,0.0,0.0,0.0,0.0,0.0,0.0,0.0,0.0,0.0,0.0,0.0,0.0,0.0,0.0,0.0,0.0,0.0,0.0,0.0,0.0,0.0,0.0,0.0,0.0,0.0,0.0,0.0,0.0,0.0,0.0,0.0,0.0,0.0,0.0,0.0,0.0,0.0,0.0,0.0,0.0,0.0,0.0,0.0,0.0,0.0,0.0,0.0,0.0,0.0,0.0,0.0,0.0,0.0,0.0,0.0,0.0,0.0,0.0,0.0,0.0,0.0,0.0,0.0,0.0,0.0,0.0,0.0,0.0,0.0,0.0,0.0,0.0,0.0,0.0,0.0,0.0,0.0,0.0,0.0,0.0,0.0,0.0,0.0,0.0,0.0,0.0,0.0,0.0,0.0,0.0,0.0,0.0,0.0,0.0,0.0,0.0,0.0,0.0,0.0,0.0,0.0,0.0,0.0,0.0,0.0,0.0,0.0,0.0,0.0,0.0,0.0,0.0,0.0,0.0,0.0,0.0,0.0,0.0,0.0,0.0,0.0,0.0,0.0,0.0,0.0,0.0,0.0,0.0,0.0,0.0,0.0,0.0,0.0,0.0,0.0,0.0,0.0,0.0,0.0,0.0,0.0,0.0,0.0,0.0,0.0,0.0,0.0,0.0,0.0,0.0,0.0,0.0,0.0,0.0,0.0,0.0,0.0,0.0,0.0,0.0,0.0,0.0,0.0,0.0,0.0,0.0,0.0,0.0,0.0,0.0,0.0,0.0,0.0,0.0,0.0,0.0,0.0,0.0,0.0,0.0,0.0,0.0,0.0,0.0,0.0,0.0,0.0,0.0,0.0,0.0,0.0,0.0,0.0,0.0,0.0,0.0,0.0,0.0,0.0,0.0,0.0,0.0,0.0,0.0,0.0,0.0,0.0,0.0,0.0,0.0,0.0,0.0,0.0,0.0,0.0,0.0,0.0,0.0,-0.665,0.0,0.0,0.0,0.0,0.0,0.0,0.0,0.0,0.0,0.0,0.0,0.0,0.0,0.0,0.0,0.0,0.0,0.0,0.0,0.0,0.0,0.0,0.0,0.0,0.0,0.0,0.0,0.0,0.0,0.0,0.0,0.0,0.0,0.0,0.0,0.0,0.0,0.0,0.0,0.0,0.0,0.0,0.0,0.0,0.0,0.0,0.0,0.0,0.0,0.0,0.0,0.0,0.0,0.0,0.0,0.0,0.0,0.0,0.0,0.0,0.0,0.0,0.0,0.0,0.0,0.0,0.0,0.0,0.0,0.0,0.0,0.0,0.0,0.0,0.0,0.0,0.0,0.0,0.0,0.0,0.0,0.0,0.0,0.0,0.0,0.0,0.0,0.0,0.0,0.0,0.0,0.0,0.0,0.0,0.0,0.0,0.0,0.0,0.0,0.0,0.0,0.0,0.0,0.0,0.0,0.0,0.0,0.0,0.0,0.0,-0.7436,-0.6641,-0.776,-0.7923,-0.6883,0.0,0.0,0.0,0.0,0.0,0.0,0.0,0.0,0.0,0.0,0.0,0.0,0.0,0.0,0.0,0.0,0.0,0.0,0.0,0.0,0.0,0.0,0.0,0.0,0.0,0.0,0.0,0.0,0.0,0.0,0.0,0.0,0.0,0.0,0.0,0.0,0.0,0.0,0.0,0.0,0.0,0.0,0.0,0.0,0.0,0.0,0.0,0.0,0.0,0.0,0.0,0.0,0.0,0.0,0.0,0.0,0.0,0.0,0.0,0.0,0.0,0.0,0.0,0.0,0.0,0.0,0.0,0.0,0.0,0.0,0.0,0.0,0.0,0.0,0.0,0.0,0.0,0.0,0.0,0.0,0.0,0.0,0.0,0.0,0.0,0.0,0.0,0.0,0.0,0.0,0.0,0.0,0.0,0.0,0.0,0.0,0.0,0.0,0.0,0.0,0.0,0.0,0.0,0.0,0.0,0.0,0.0,0.0,0.0,0.0,0.0,0.0,-0.8766,-0.885,-0.8081,0.0,0.0,0.0,0.0,0.0,0.0,0.0,0.0,0.0,0.0,0.0,0.0,0.0,0.0,0.0,0.0,0.0,0.0,0.0,0.0,0.0,0.0,0.0,0.0,0.0,0.0,0.0,0.0,0.0,0.0,0.0,0.0,0.0,0.0,0.0,0.0,0.0,0.0,0.0,0.0,0.0,0.0,0.0,0.0,0.0,0.0,0.0,0.0,0.0,0.0,0.0,0.0,0.0,0.0,0.0,0.0,0.0,0.0,0.0,0.0,0.0,0.0,0.0,0.0,0.0,0.0,0.0,0.0,0.0,0.0,0.0,0.0,0.0,0.0,0.0,0.0,0.0,0.0,0.0,0.0,0.0,0.0,0.0,0.0,0.0,0.0,0.0,0.0,0.0,0.0,0.0,0.0,0.0,0.0,0.0,0.0,0.0,0.0,0.0,0.0,0.0,0.0,0.0,0.0,0.0,0.0,0.0,0.0,0.0,0.0,-0.8186,-0.9956,-1.0558,0.0,-1.069,0.0,0.0,0.0,0.0,0.0,0.0,0.0,0.0,0.0,0.0,0.0,0.0,0.0,0.0,0.0,0.0,0.0,0.0,0.0,0.0,0.0,0.0,0.0,0.0,0.0,0.0,0.0,0.0,0.0,0.0,0.0,0.0,0.0,0.0,0.0,0.0,0.0,0.0,0.0,0.0,0.0,0.0,0.0,0.0,0.0,0.0,0.0,0.0,0.0,0.0,0.0,0.0,0.0,0.0,0.0,0.0,0.0,0.0,0.0,0.0,0.0,0.0,0.0,0.0,0.0,0.0,0.0,0.0,0.0,0.0,0.0,0.0,0.0,0.0,0.0,0.0,0.0,0.0,0.0,0.0,0.0,0.0,0.0,0.0,0.0,0.0,0.0,0.0,0.0,0.0,0.0,0.0,0.0,0.0,0.0,0.0,0.0,0.0,0.0,0.0,0.0,0.0,0.0,0.0,0.0,0.0,0.0,0.0,0.0,0.0,-0.9165,-1.0281,-1.0221,-0.986,0.0,0.0,0.0,0.0,0.0,0.0,0.0,0.0,0.0,0.0,0.0,0.0,0.0,0.0,0.0,0.0,0.0,0.0,0.0,0.0,0.0,0.0,0.0,0.0,0.0,0.0,0.0,0.0,0.0,0.0,0.0,0.0,0.0,0.0,0.0,0.0,0.0,0.0,0.0,0.0,0.0,0.0,0.0,0.0,0.0,0.0,0.0,0.0,0.0,0.0,0.0,0.0,0.0,0.0,0.0,0.0,0.0,0.0,0.0,0.0,0.0,0.0,0.0,0.0,0.0,0.0,0.0,0.0,0.0,0.0,0.0,0.0,0.0,0.0,0.0,0.0,0.0,0.0,0.0,0.0,0.0,0.0,0.0,0.0,0.0,0.0,0.0,0.0,0.0,0.0,0.0,0.0,0.0,0.0,0.0,0.0,0.0,0.0,0.0,0.0,0.0,0.0,0.0,0.0,0.0,0.0,0.0,0.0,0.0,0.0,-0.9544,-1.0314,-1.1267,-1.0161,-0.9185,-0.8574,0.0,0.0,0.0,0.0,0.0,0.0,0.0,0.0,0.0,0.0,0.0,0.0,0.0,0.0,0.0,0.0,0.0,0.0,0.0,0.0,0.0,0.0,0.0,0.0,0.0,0.0,0.0,0.0,0.0,0.0,0.0,0.0,0.0,0.0,0.0,0.0,0.0,0.0,0.0,0.0,0.0,0.0,0.0,0.0,0.0,0.0,0.0,0.0,0.0,0.0,0.0,0.0,0.0,0.0,0.0,0.0,0.0,0.0,0.0,0.0,0.0,0.0,0.0,0.0,0.0,0.0,0.0,0.0,0.0,0.0,0.0,0.0,0.0,0.0,0.0,0.0,0.0,0.0,0.0,0.0,0.0,0.0,0.0,0.0,0.0,0.0,0.0,0.0,0.0,0.0,0.0,0.0,0.0,0.0,0.0,0.0,0.0,0.0,0.0,0.0,0.0,0.0,0.0,0.0,0.0,0.0,0.0,0.0,-1.3076,-1.1394,-1.1579,-1.3867,-1.1111,-0.9701,0.0,0.0,0.0,0.0,0.0,0.0,0.0,0.0,0.0,0.0,0.0,0.0,0.0,0.0,0.0,0.0,0.0,0.0,0.0,0.0,0.0,0.0,0.0,0.0,0.0,0.0,0.0,0.0,0.0,0.0,0.0,0.0,0.0,0.0,0.0,0.0,0.0,0.0,0.0,0.0,0.0,0.0,0.0,0.0,0.0,0.0,0.0,0.0,0.0,0.0,0.0,0.0,0.0,0.0,0.0,0.0,0.0,0.0,0.0,0.0,0.0,0.0,0.0,0.0,0.0,0.0,0.0,0.0,0.0,0.0,0.0,0.0,0.0,0.0,0.0,0.0,0.0,0.0,0.0,0.0,0.0,0.0,0.0,0.0,0.0,0.0,0.0,0.0,0.0,0.0,0.0,0.0,0.0,0.0,0.0,0.0,0.0,0.0,0.0,0.0,0.0,0.0,0.0,0.0,0.0,0.0,0.0,0.0,0.0,-0.9022,-1.0209,-1.1612,-1.3131,-1.1471,-1.0774,0.0,0.0,0.0,0.0,0.0,0.0,0.0,0.0,0.0,0.0,0.0,0.0,0.0,0.0,0.0,0.0,0.0,0.0,0.0,0.0,0.0,0.0,0.0,0.0,0.0,0.0,0.0,0.0,0.0,0.0,0.0,0.0,0.0,0.0,0.0,0.0,0.0,0.0,0.0,0.0,0.0,0.0,0.0,0.0,0.0,0.0,0.0,0.0,0.0,0.0,0.0,0.0,0.0,0.0,0.0,0.0,0.0,0.0,0.0,0.0,0.0,0.0,0.0,0.0,0.0,0.0,0.0,0.0,0.0,0.0,0.0,0.0,0.0,0.0,0.0,0.0,0.0,0.0,0.0,0.0,0.0,0.0,0.0,0.0,0.0,0.0,0.0,0.0,0.0,0.0,0.0,0.0,0.0,0.0,0.0,0.0,0.0,0.0,0.0,0.0,0.0,0.0,0.0,0.0,0.0,0.0,0.0,0.0,0.0,-0.8488,0.0,-1.2842,-1.3143,-1.1853,-1.0942,0.0,0.0,0.0,0.0,0.0,0.0,0.0,0.0,0.0,0.0,0.0,0.0,0.0,0.0,0.0,0.0,0.0,0.0,0.0,0.0,0.0,0.0,0.0,0.0,0.0,0.0,0.0,0.0,0.0,0.0,0.0,0.0,0.0,0.0,0.0,0.0,0.0,0.0,0.0,0.0,0.0,0.0,0.0,0.0,0.0,0.0,0.0,0.0,0.0,0.0,0.0,0.0,0.0,0.0,0.0,0.0,0.0,0.0,0.0,0.0,0.0,0.0,0.0,0.0,0.0,0.0,0.0,0.0,0.0,0.0,0.0,0.0,0.0,0.0,0.0,0.0,0.0,0.0,0.0,0.0,0.0,0.0,0.0,0.0,0.0,0.0,0.0,0.0,0.0,0.0,0.0,0.0,0.0,0.0,0.0,0.0,0.0,0.0,0.0,0.0,0.0,0.0,0.0,0.0,0.0,0.0,0.0,0.0,-0.8639,-1.2535,-1.47,-1.5253,-1.4301,-1.2227,-1.0137,0.0,0.0,0.0,0.0,0.0,0.0,0.0,0.0,0.0,0.0,0.0,0.0,0.0,0.0,0.0,0.0,0.0,0.0,0.0,0.0,0.0,0.0,0.0,0.0,0.0,0.0,0.0,0.0,0.0,0.0,0.0,0.0,0.0,0.0,0.0,0.0,0.0,0.0,0.0,0.0,0.0,0.0,0.0,0.0,0.0,0.0,0.0,0.0,0.0,0.0,0.0,0.0,0.0,0.0,0.0,0.0,0.0,0.0,0.0,0.0,0.0,0.0,0.0,0.0,0.0,0.0,0.0,0.0,0.0,0.0,0.0,0.0,0.0,0.0,0.0,0.0,0.0,0.0,0.0,0.0,0.0,0.0,0.0,0.0,0.0,0.0,0.0,0.0,0.0,0.0,0.0,0.0,0.0,0.0,0.0,0.0,0.0,0.0,0.0,0.0,0.0,0.0,0.0,0.0,0.0,0.0,0.0,0.0,0.0,-1.0842,-1.3094,-1.4771,-1.5716,-1.2421,-1.1099,0.0,0.0,0.0,0.0,0.0,0.0,0.0,0.0,0.0,0.0,0.0,0.0,0.0,0.0,0.0,0.0,0.0,0.0,0.0,0.0,0.0,0.0,0.0,0.0,0.0,0.0,0.0,0.0,0.0,0.0,0.0,0.0,0.0,0.0,0.0,0.0,0.0,0.0,0.0,0.0,0.0,0.0,0.0,0.0,0.0,0.0,0.0,0.0,0.0,0.0,0.0,0.0,0.0,0.0,0.0,0.0,0.0,0.0,0.0,0.0,0.0,0.0,0.0,0.0,0.0,0.0,0.0,0.0,0.0,0.0,0.0,0.0,0.0,0.0,0.0,0.0,0.0,0.0,0.0,0.0,0.0,0.0,0.0,0.0,0.0,0.0,0.0,0.0,0.0,0.0,0.0,0.0,0.0,0.0,0.0,0.0,0.0,0.0,0.0,0.0,0.0,0.0,0.0,0.0,0.0,0.0,0.0,0.0,0.0,-1.3999,-1.5377,-1.6546,-1.7484,-1.3857,-1.2389,-1.3423,0.0,0.0,0.0,0.0,0.0,0.0,0.0,0.0,0.0,0.0,0.0,0.0,0.0,0.0,0.0,0.0,0.0,0.0,0.0,0.0,0.0,0.0,0.0,0.0,0.0,0.0,0.0,0.0,0.0,0.0,0.0,0.0,0.0,0.0,0.0,0.0,0.0,0.0,0.0,0.0,0.0,0.0,0.0,0.0,0.0,0.0,0.0,0.0,0.0,0.0,0.0,0.0,0.0,0.0,0.0,0.0,0.0,0.0,0.0,0.0,0.0,0.0,0.0,0.0,0.0,0.0,0.0,0.0,0.0,0.0,0.0,0.0,0.0,0.0,0.0,0.0,0.0,0.0,0.0,0.0,0.0,0.0,0.0,0.0,0.0,0.0,0.0,0.0,0.0,0.0,0.0,0.0,0.0,0.0,0.0,0.0,0.0,0.0,0.0,0.0,0.0,0.0,0.0,0.0,0.0,0.0,0.0,0.0,-2.0758,-2.0914,-2.0499,-1.9466,-1.6352,-1.4038,0.0,0.0,0.0,0.0,0.0,0.0,0.0,0.0,0.0,0.0,0.0,0.0,0.0,0.0,0.0,0.0,0.0,0.0,0.0,0.0,0.0,0.0,0.0,0.0,0.0,0.0,0.0,0.0,0.0,0.0,0.0,0.0,0.0,0.0,0.0,0.0,0.0,0.0,0.0,0.0,0.0,0.0,0.0,0.0,0.0,0.0,0.0,0.0,0.0,0.0,0.0,0.0,0.0,0.0,0.0,0.0,0.0,0.0,0.0,0.0,0.0,0.0,0.0,0.0,0.0,0.0,0.0,0.0,0.0,0.0,0.0,0.0,0.0,0.0,0.0,0.0,0.0,0.0,0.0,0.0,0.0,0.0,0.0,0.0,0.0,0.0,0.0,0.0,0.0,0.0,0.0,0.0,0.0,0.0,0.0,0.0,0.0,0.0,0.0,0.0,0.0,0.0,0.0,0.0,0.0,0.0,0.0,0.0,0.0,-2.2028,-2.4349,-2.5153,-2.4223,-1.9501,-1.6467,0.0,0.0,0.0,0.0,0.0,0.0,0.0,0.0,0.0,0.0,0.0,0.0,0.0,0.0,0.0,0.0,0.0,0.0,0.0,0.0,0.0,0.0,0.0,0.0,0.0,0.0,0.0,0.0,0.0,0.0,0.0,0.0,0.0,0.0,0.0,0.0,0.0,0.0,0.0,0.0,0.0,0.0,0.0,0.0,0.0,0.0,0.0,0.0,0.0,0.0,0.0,0.0,0.0,0.0,0.0,0.0,0.0,0.0,0.0,0.0,0.0,0.0,0.0,0.0,0.0,0.0,0.0,0.0,0.0,0.0,0.0,0.0,0.0,0.0,0.0,0.0,0.0,0.0,0.0,0.0,0.0,0.0,0.0,0.0,0.0,0.0,0.0,0.0,0.0,0.0,0.0,0.0,0.0,0.0,0.0,0.0,0.0,0.0,0.0,0.0,0.0,0.0,0.0,0.0,0.0,0.0,0.0,0.0,-2.1229,-2.5331,-2.8469,-2.9924,-2.955,-2.3694,-1.9354,0.0,0.0,0.0,0.0,0.0,0.0,0.0,0.0,0.0,0.0,0.0,0.0,0.0,0.0,0.0,0.0,0.0,0.0,0.0,0.0,0.0,0.0,0.0,0.0,0.0,0.0,0.0,0.0,0.0,0.0,0.0,0.0,0.0,0.0,0.0,0.0,0.0,0.0,0.0,0.0,0.0,0.0,0.0,0.0,0.0,0.0,0.0,0.0,0.0,0.0,0.0,0.0,0.0,0.0,0.0,0.0,0.0,0.0,0.0,0.0,0.0,0.0,0.0,0.0,0.0,0.0,0.0,0.0,0.0,0.0,0.0,0.0,0.0,0.0,0.0,0.0,0.0,0.0,0.0,0.0,0.0,0.0,0.0,0.0,0.0,0.0,0.0,0.0,0.0,0.0,0.0,0.0,0.0,0.0,0.0,0.0,0.0,0.0,0.0,0.0,0.0,0.0,0.0,0.0,0.0,0.0,0.0,0.0,-2.3583,-2.9202,-3.2313,-3.3865,-3.3819,-2.7888,-2.2396,0.0,0.0,0.0,0.0,0.0,0.0,0.0,0.0,0.0,0.0,0.0,0.0,0.0,0.0,0.0,0.0,0.0,0.0,0.0,0.0,0.0,0.0,0.0,0.0,0.0,0.0,0.0,0.0,0.0,0.0,0.0,0.0,0.0,0.0,0.0,0.0,0.0,0.0,0.0,0.0,0.0,0.0,0.0,0.0,0.0,0.0,0.0,0.0,0.0,0.0,0.0,0.0,0.0,0.0,0.0,0.0,0.0,0.0,0.0,0.0,0.0,0.0,0.0,0.0,0.0,0.0,0.0,0.0,0.0,0.0,0.0,0.0,0.0,0.0,0.0,0.0,0.0,0.0,0.0,0.0,0.0,0.0,0.0,0.0,0.0,0.0,0.0,0.0,0.0,0.0,0.0,0.0,0.0,0.0,0.0,0.0,0.0,0.0,0.0,0.0,0.0,0.0,0.0,0.0,0.0,0.0,0.0,0.0,-2.3757,-2.9363,-3.2217,-3.3557,-3.352,-2.8708,-2.4234,0.0,0.0,0.0,0.0,0.0,0.0,0.0,0.0,0.0,0.0,0.0,0.0,0.0,0.0,0.0,0.0,0.0,0.0,0.0,0.0,0.0,0.0,0.0,0.0,0.0,0.0,0.0,0.0,0.0,0.0,0.0,0.0,0.0,0.0,0.0,0.0,0.0,0.0,0.0,0.0,0.0,0.0,0.0,0.0,0.0,0.0,0.0,0.0,-1.1737,0.0,0.0,0.0,0.0,0.0,0.0,0.0,0.0,0.0,0.0,0.0,0.0,0.0,0.0,0.0,0.0,0.0,0.0,0.0,0.0,0.0,0.0,0.0,0.0,0.0,0.0,0.0,0.0,0.0,0.0,0.0,0.0,0.0,0.0,0.0,0.0,0.0,0.0,0.0,0.0,0.0,0.0,0.0,0.0,0.0,0.0,0.0,0.0,0.0,0.0,0.0,0.0,0.0,0.0,0.0,0.0,0.0,0.0,0.0,-2.5009,-3.0321,-3.215,-3.3324,-3.3708,-2.9793,-2.5451,0.0,0.0,0.0,0.0,0.0,0.0,0.0,0.0,0.0,0.0,0.0,0.0,0.0,0.0,0.0,0.0,0.0,0.0,0.0,0.0,0.0,0.0,0.0,0.0,0.0,0.0,0.0,0.0,0.0,0.0,0.0,0.0,0.0,0.0,0.0,0.0,0.0,0.0,0.0,0.0,0.0,0.0,0.0,0.0,0.0,0.0,0.0,0.0,0.0,0.0,0.0,0.0,0.0,0.0,0.0,0.0,0.0,0.0,0.0,0.0,0.0,0.0,0.0,0.0,0.0,0.0,0.0,0.0,0.0,0.0,0.0,0.0,0.0,0.0,0.0,0.0,0.0,0.0,0.0,0.0,0.0,0.0,0.0,0.0,0.0,0.0,0.0,0.0,0.0,0.0,0.0,0.0,0.0,0.0,0.0,0.0,0.0,0.0,0.0,0.0,0.0,0.0,0.0,0.0,0.0,0.0,0.0,-2.212,-2.6126,-3.1424,-3.2237,-3.3079,-3.4167,-3.064,-2.6285,-2.1307,0.0,0.0,0.0,0.0,0.0,0.0,0.0,0.0,0.0,0.0,0.0,0.0,0.0,0.0,0.0,0.0,0.0,0.0,0.0,0.0,0.0,0.0,0.0,0.0,0.0,0.0,0.0,0.0,0.0,0.0,0.0,0.0,0.0,0.0,0.0,0.0,0.0,0.0,-1.1579,-1.2008,0.0,0.0,0.0,0.0,0.0,0.0,0.0,0.0,-1.3405,0.0,0.0,0.0,0.0,0.0,0.0,0.0,0.0,0.0,0.0,0.0,0.0,0.0,0.0,0.0,0.0,0.0,0.0,0.0,0.0,0.0,0.0,0.0,0.0,0.0,0.0,0.0,0.0,0.0,0.0,0.0,0.0,0.0,0.0,0.0,0.0,0.0,0.0,0.0,0.0,0.0,0.0,0.0,0.0,0.0,0.0,0.0,0.0,0.0,0.0,0.0,0.0,0.0,0.0,0.0,0.0,-2.1409,-2.1496,-2.4994,-3.2135,-3.2454,-3.2861,-3.3499,-3.0422,-2.6524,-2.2076,0.0,0.0,0.0,0.0,0.0,0.0,0.0,0.0,0.0,0.0,0.0,0.0,0.0,0.0,0.0,0.0,0.0,0.0,0.0,0.0,0.0,0.0,0.0,0.0,0.0,0.0,0.0,0.0,0.0,0.0,0.0,0.0,0.0,0.0,0.0,0.0,0.0,0.0,0.0,-1.4353,-1.4378,0.0,0.0,0.0,0.0,0.0,0.0,0.0,0.0,-1.4144,0.0,0.0,0.0,0.0,0.0,0.0,0.0,0.0,0.0,0.0,0.0,0.0,0.0,0.0,0.0,0.0,0.0,0.0,0.0,0.0,0.0,0.0,0.0,0.0,0.0,0.0,0.0,0.0,0.0,0.0,0.0,0.0,0.0,0.0,0.0,0.0,0.0,0.0,0.0,0.0,0.0,0.0,0.0,0.0,0.0,0.0,0.0,0.0,0.0,0.0,0.0,0.0,0.0,0.0,0.0,-2.1235,-2.2788,-2.6242,-3.1729,-3.1351,-3.1482,-3.2324,-2.839,-2.4704,0.0,0.0,0.0,0.0,0.0,0.0,0.0,0.0,0.0,0.0,0.0,0.0,0.0,0.0,0.0,0.0,0.0,0.0,0.0,0.0,0.0,0.0,0.0,0.0,0.0,0.0,0.0,0.0,0.0,0.0,0.0,0.0,0.0,0.0,0.0,0.0,0.0,0.0,0.0,0.0,-1.6118,-1.6301,-1.8046,0.0,0.0,0.0,0.0,0.0,0.0,-1.5097,-1.4655,0.0,0.0,0.0,0.0,0.0,0.0,0.0,0.0,0.0,0.0,0.0,0.0,0.0,0.0,0.0,0.0,0.0,0.0,0.0,0.0,0.0,0.0,0.0,0.0,0.0,0.0,0.0,0.0,0.0,0.0,0.0,0.0,0.0,0.0,0.0,0.0,0.0,0.0,0.0,0.0,0.0,0.0,0.0,0.0,0.0,0.0,0.0,0.0,0.0,0.0,0.0,0.0,0.0,0.0,0.0,-2.0785,-2.3847,-2.7331,-3.1076,-3.0205,-3.0118,-3.1078,-2.6547,-2.2991,0.0,0.0,0.0,0.0,0.0,0.0,0.0,0.0,0.0,0.0,0.0,0.0,0.0,0.0,0.0,0.0,0.0,0.0,0.0,0.0,0.0,0.0,0.0,0.0,0.0,0.0,0.0,0.0,0.0,0.0,0.0,0.0,0.0,0.0,0.0,0.0,0.0,0.0,0.0,0.0,0.0,-1.8414,-1.9353,-1.8259,0.0,0.0,0.0,0.0,-1.6749,-1.6717,0.0,0.0,0.0,0.0,0.0,0.0,0.0,0.0,0.0,0.0,0.0,0.0,0.0,0.0,0.0,0.0,0.0,0.0,0.0,0.0,0.0,0.0,0.0,0.0,0.0,0.0,0.0,0.0,0.0,0.0,0.0,0.0,0.0,0.0,0.0,0.0,0.0,0.0,0.0,0.0,0.0,0.0,0.0,0.0,0.0,0.0,0.0,0.0,0.0,0.0,0.0,0.0,0.0,0.0,0.0,0.0,-2.0132,-2.2759,-2.6308,-3.0572,-3.0046,-2.9755,-3.0031,-2.657,-2.3035,0.0,0.0,0.0,0.0,0.0,0.0,0.0,0.0,0.0,0.0,0.0,0.0,0.0,0.0,0.0,0.0,0.0,0.0,0.0,0.0,0.0,0.0,0.0,0.0,0.0,0.0,0.0,0.0,0.0,0.0,0.0,0.0,0.0,0.0,0.0,0.0,0.0,0.0,0.0,0.0,0.0,-2.0809,-2.027,-1.9377,-1.892,0.0,0.0,0.0,-2.1003,-2.2385,0.0,0.0,0.0,0.0,0.0,0.0,0.0,0.0,0.0,0.0,0.0,0.0,0.0,0.0,0.0,0.0,0.0,0.0,0.0,0.0,0.0,0.0,0.0,0.0,0.0,0.0,0.0,0.0,0.0,0.0,0.0,0.0,0.0,0.0,0.0,0.0,0.0,0.0,0.0,0.0,0.0,0.0,0.0,0.0,0.0,0.0,0.0,0.0,0.0,0.0,0.0,0.0,0.0,0.0,0.0,-1.7242,-1.9695,-2.3668,-2.7122,-2.9692,-2.9151,-2.899,-2.9398,-2.4461,-2.0977,0.0,0.0,0.0,0.0,0.0,0.0,0.0,0.0,0.0,0.0,0.0,0.0,0.0,0.0,0.0,0.0,0.0,0.0,0.0,0.0,0.0,0.0,0.0,0.0,0.0,0.0,0.0,0.0,0.0,0.0,0.0,0.0,0.0,0.0,0.0,0.0,0.0,0.0,0.0,0.0,0.0,0.0,-2.2086,-2.1907,0.0,0.0,0.0,-2.2082,-2.1308,0.0,0.0,0.0,0.0,0.0,0.0,0.0,0.0,0.0,0.0,0.0,0.0,0.0,0.0,0.0,0.0,0.0,0.0,0.0,0.0,0.0,0.0,0.0,0.0,0.0,0.0,0.0,0.0,0.0,0.0,0.0,0.0,0.0,0.0,0.0,0.0,0.0,0.0,0.0,0.0,0.0,0.0,0.0,0.0,0.0,0.0,0.0,0.0,0.0,0.0,0.0,0.0,0.0,0.0,0.0,0.0,0.0,-1.9163,-2.4277,-2.7476,-2.8606,-2.8139,-2.8036,-2.8311,-2.301,0.0,0.0,0.0,0.0,0.0,0.0,0.0,0.0,0.0,0.0,0.0,0.0,0.0,0.0,0.0,0.0,0.0,0.0,0.0,0.0,0.0,0.0,0.0,0.0,0.0,0.0,0.0,-0.9874,0.0,0.0,0.0,0.0,0.0,0.0,0.0,0.0,0.0,0.0,0.0,0.0,0.0,0.0,-2.3204,-2.395,-2.448,-2.4862,0.0,0.0,-2.3997,-2.2822,-2.4033,-2.4098,0.0,0.0,0.0,0.0,0.0,0.0,0.0,0.0,0.0,0.0,0.0,0.0,0.0,0.0,0.0,0.0,0.0,0.0,0.0,0.0,0.0,0.0,0.0,0.0,0.0,0.0,0.0,0.0,0.0,0.0,0.0,0.0,0.0,0.0,0.0,0.0,0.0,0.0,0.0,0.0,0.0,0.0,0.0,0.0,0.0,0.0,0.0,0.0,0.0,0.0,0.0,0.0,0.0,0.0,0.0,-1.8617,-2.3629,-2.6672,-2.7505,-2.727,-2.696,-2.6555,-2.3644,-2.0735,0.0,0.0,0.0,0.0,0.0,0.0,0.0,0.0,0.0,0.0,0.0,0.0,0.0,0.0,0.0,0.0,0.0,0.0,0.0,0.0,0.0,0.0,0.0,0.0,0.0,0.0,0.0,0.0,0.0,0.0,0.0,0.0,0.0,0.0,0.0,0.0,0.0,0.0,0.0,0.0,0.0,-2.595,-2.5588,-2.6539,-2.8393,0.0,0.0,-2.5866,-2.7832,-2.8456,-2.7685,-2.4461,0.0,0.0,0.0,0.0,0.0,0.0,0.0,0.0,0.0,0.0,0.0,0.0,0.0,0.0,0.0,0.0,0.0,0.0,0.0,0.0,0.0,0.0,0.0,0.0,0.0,0.0,0.0,0.0,0.0,0.0,0.0,0.0,0.0,0.0,0.0,0.0,0.0,0.0,0.0,0.0,0.0,0.0,0.0,0.0,0.0,0.0,0.0,0.0,0.0,0.0,0.0,0.0,0.0,-1.7652,-1.7981,-2.3124,-2.6173,-2.6832,-2.644,-2.6292,-2.6523,-2.3122,-2.0176,0.0,0.0,0.0,0.0,0.0,0.0,0.0,0.0,0.0,0.0,0.0,0.0,0.0,0.0,0.0,0.0,0.0,0.0,0.0,0.0,0.0,0.0,0.0,0.0,0.0,0.0,0.0,0.0,-1.5201,-1.5485,-1.4782,0.0,0.0,0.0,0.0,0.0,0.0,0.0,0.0,0.0,0.0,-2.6945,-2.7759,-2.8574,0.0,0.0,-2.942,-2.7928,-2.7859,-2.8235,-2.7689,-2.5202,-2.4812,0.0,0.0,0.0,0.0,0.0,0.0,0.0,0.0,0.0,0.0,0.0,0.0,0.0,0.0,0.0,0.0,0.0,0.0,0.0,0.0,0.0,0.0,0.0,0.0,0.0,0.0,0.0,0.0,0.0,0.0,0.0,0.0,0.0,0.0,0.0,0.0,0.0,0.0,0.0,0.0,0.0,0.0,0.0,0.0,0.0,0.0,0.0,0.0,0.0,0.0,0.0,0.0,-1.7617,-1.7647,-2.27,-2.554,-2.5989,-2.5555,-2.554,-2.5899,-2.2757,-2.0168,0.0,0.0,0.0,0.0,0.0,0.0,0.0,0.0,0.0,0.0,0.0,0.0,0.0,0.0,0.0,0.0,0.0,0.0,0.0,0.0,0.0,0.0,0.0,0.0,0.0,0.0,0.0,0.0,-1.5974,-1.6277,-1.6339,0.0,0.0,0.0,0.0,0.0,0.0,0.0,0.0,0.0,0.0,-2.7736,-2.8693,-2.9541,-3.0314,-3.1098,-2.9984,-2.8905,-2.8505,-2.8362,-2.769,-2.5847,0.0,0.0,0.0,0.0,0.0,0.0,0.0,0.0,0.0,0.0,0.0,0.0,0.0,0.0,0.0,0.0,0.0,0.0,0.0,0.0,0.0,0.0,0.0,0.0,0.0,0.0,0.0,0.0,0.0,0.0,0.0,0.0,0.0,0.0,0.0,0.0,0.0,0.0,0.0,0.0,0.0,0.0,0.0,0.0,0.0,0.0,0.0,0.0,0.0,0.0,0.0,0.0,0.0,0.0,-1.7742,-2.2237,-2.4612,-2.4642,-2.4612,-2.4612,-2.4612,-2.2727,-2.1021,-1.9615,0.0,0.0,0.0,0.0,0.0,0.0,0.0,0.0,0.0,0.0,0.0,0.0,0.0,0.0,0.0,0.0,0.0,0.0,0.0,0.0,0.0,0.0,0.0,0.0,0.0,0.0,-1.5663,-1.553,-1.6197,0.0,0.0,0.0,0.0,0.0,0.0,0.0,0.0,0.0,0.0,-2.6858,-2.8465,-2.8105,-2.907,-3.051,-3.2464,-2.9902,-2.8491,-3.0612,-2.9542,-2.8066,0.0,0.0,0.0,0.0,0.0,0.0,0.0,0.0,0.0,0.0,0.0,0.0,0.0,0.0,0.0,0.0,0.0,0.0,0.0,0.0,0.0,0.0,0.0,0.0,0.0,0.0,0.0,0.0,-1.214,0.0,0.0,0.0,0.0,0.0,0.0,0.0,0.0,0.0,0.0,0.0,-1.9146,-1.9436,0.0,0.0,0.0,0.0,0.0,0.0,0.0,0.0,0.0,0.0,0.0,0.0,-1.7682,-1.7876,-2.1829,-2.4163,-2.4552,-2.4178,-2.4163,-2.4552,-2.2727,-2.0647,-1.8414,0.0,0.0,0.0,0.0,0.0,0.0,0.0,0.0,0.0,0.0,0.0,0.0,0.0,0.0,0.0,0.0,0.0,0.0,0.0,0.0,0.0,0.0,0.0,0.0,0.0,-1.8172,0.0,0.0,0.0,0.0,0.0,0.0,0.0,0.0,0.0,0.0,0.0,-2.4746,-2.528,-2.6827,-2.7964,-2.8116,-2.8229,-2.8855,0.0,0.0,0.0,0.0,0.0,0.0,0.0,0.0,0.0,0.0,0.0,0.0,0.0,0.0,-2.5086,-2.3056,-2.3141,-2.3477,-2.3323,0.0,0.0,0.0,0.0,0.0,0.0,0.0,0.0,0.0,0.0,0.0,0.0,0.0,0.0,0.0,0.0,-1.381,0.0,0.0,0.0,0.0,0.0,0.0,0.0,0.0,-1.8753,-2.082,-2.2291,-2.2237,-2.2582,0.0,-2.2873,-2.1208,0.0,0.0,0.0,0.0,0.0,0.0,0.0,0.0,-1.8403,-1.8553,-2.1884,-2.3863,-2.4282,-2.3878,-2.3863,-2.4282,-2.2607,-2.0662,-1.8527,-1.7146,-1.6308,0.0,0.0,0.0,0.0,0.0,0.0,0.0,0.0,0.0,0.0,0.0,0.0,0.0,0.0,0.0,0.0,0.0,0.0,0.0,0.0,0.0,0.0,0.0,-2.0102,0.0,0.0,0.0,0.0,0.0,0.0,0.0,0.0,0.0,-2.3124,-2.4926,-2.6211,-2.6211,-2.7118,-2.7653,-2.7388,0.0,0.0,0.0,0.0,0.0,0.0,0.0,-2.7342,-2.7423,-2.7875,-2.8243,-2.8257,-2.8985,-2.9223,-2.8237,0.0,0.0,-2.5842,-2.5801,-2.6098,-2.5943,-2.5919,-2.5967,-2.6126,-2.6103,-2.6121,0.0,0.0,0.0,0.0,0.0,0.0,0.0,0.0,-1.7339,-1.7752,0.0,-1.6534,0.0,0.0,0.0,0.0,0.0,0.0,0.0,0.0,-2.245,-2.4218,-2.4913,-2.4696,-2.471,-2.4814,-2.4737,-2.4298,-2.3565,-2.1054,0.0,0.0,0.0,0.0,0.0,0.0,-1.9705,-1.9801,-2.24,-2.3839,-2.3797,-2.3797,-2.3767,-2.3691,-2.2404,-2.106,-1.9827,-1.8497,-1.7824,-1.7958,-1.5558,0.0,0.0,0.0,0.0,0.0,0.0,0.0,0.0,0.0,0.0,0.0,0.0,0.0,0.0,0.0,0.0,0.0,0.0,0.0,0.0,-2.1288,0.0,0.0,0.0,0.0,0.0,0.0,0.0,0.0,0.0,0.0,-2.4807,-2.6075,-2.6996,-2.7032,0.0,0.0,0.0,0.0,-2.8219,-2.8407,-2.9008,-2.9753,-3.0635,-3.1376,-3.1343,-2.9882,0.0,0.0,-3.0293,-2.9484,-2.9161,-2.9051,-2.9722,-2.9452,-2.6991,-2.6658,-2.6717,-2.6761,-2.6779,-2.6655,-2.6673,-2.6753,-2.6603,-1.9609,0.0,0.0,0.0,0.0,-1.8647,-1.9482,-2.0142,-2.026,-2.0175,-1.995,-1.902,0.0,0.0,0.0,0.0,0.0,0.0,-1.9344,-2.0869,-2.3176,-2.508,-2.6663,-2.7085,-2.7505,-2.7963,-2.7616,-2.7111,-2.6393,-2.5164,-2.264,-1.8862,0.0,0.0,0.0,0.0,-2.0095,-2.0728,-2.2819,-2.394,-2.394,-2.3925,-2.347,-2.2531,-2.1659,-2.0812,-1.995,-1.9556,-1.894,-1.8112,-1.7334,0.0,0.0,0.0,0.0,0.0,0.0,0.0,0.0,0.0,0.0,0.0,0.0,0.0,0.0,0.0,0.0,0.0,0.0,0.0,-2.2615,-2.3224,-2.2751,0.0,0.0,0.0,0.0,0.0,0.0,0.0,0.0,0.0,-2.6494,-2.6813,-2.7263,0.0,0.0,-2.7415,-2.7557,-2.7486,-2.8058,-2.9881,0.0,0.0,0.0,-3.0188,-2.9628,-2.9727,-3.1129,-3.2244,-3.2493,-3.2365,-3.209,-3.1609,-3.1268,-3.0632,-2.9465,-2.9593,-2.9929,-2.9947,-2.9544,-2.936,-2.98,-2.9075,-2.8333,-2.3118,-2.061,-2.0296,-2.044,-2.0897,-2.1898,-2.2623,-2.3113,-2.3113,-2.3062,-2.2934,-2.1656,-2.0589,-1.961,-1.8841,0.0,0.0,0.0,-2.2234,-2.4147,-2.5736,-2.7351,-2.8958,-2.9146,-2.9437,-2.9729,-2.9227,-2.8786,-2.8353,-2.7425,-2.5585,-2.2888,0.0,0.0,-1.9672,-2.1145,-2.2024,-2.2245,-2.3701,-2.4356,-2.4082,-2.4082,-2.3386,-2.2055,-2.1599,-2.0946,-2.0071,-2.0041,-1.9695,-1.9004,-1.8547,-1.7803,0.0,0.0,0.0,0.0,0.0,0.0,0.0,0.0,0.0,0.0,0.0,-1.7777,0.0,0.0,0.0,0.0,-2.0923,-2.288,-2.3748,-2.3998,0.0,0.0,0.0,0.0,0.0,0.0,0.0,-2.4783,-2.6237,-2.7385,-2.7684,-2.7957,-2.8407,-2.9086,-2.8792,-2.8586,-2.8748,0.0,-2.9107,-3.0685,-3.0333,-3.027,-3.131,-3.0948,-3.0677,-3.1148,-3.2027,-3.2863,-3.3468,-3.3633,-3.3378,-3.2727,-3.221,-3.1623,-3.0834,-3.1072,-3.1146,-3.0577,-3.0081,-2.9916,-3.0356,-2.9593,-2.9051,-2.5751,-2.5392,-2.4294,-2.3989,-2.4315,-2.4943,-2.5498,-2.5912,-2.5875,-2.6138,-2.6427,-2.433,-2.3376,-2.3213,-2.1517,0.0,0.0,-2.4086,-2.5946,-2.8682,-2.9358,-3.0239,-3.1333,-3.0865,-3.0627,-3.0567,-3.0013,-2.9744,-2.9669,-2.8427,-2.7835,-2.7715,-2.598,-2.4686,-2.399,-2.4605,-2.4648,-2.404,-2.4762,-2.4836,-2.4239,-2.4162,-2.3422,-2.2078,-2.1987,-2.1371,-2.0177,-2.0061,-2.0096,-2.0258,-1.9342,-1.8849,-1.9017,0.0,0.0,0.0,0.0,0.0,0.0,0.0,0.0,0.0,0.0,0.0,0.0,0.0,0.0,0.0,-2.4167,0.0,-2.4605,-2.4028,0.0,0.0,0.0,-2.481,-2.5697,-2.6093,-2.6294,-2.6312,0.0,0.0,0.0,0.0,-3.0134,-3.0812,-3.0841,-3.0564,-2.9868,-3.0427,-3.0962,-3.1281,-3.1769,-3.222,-3.2433,-3.2832,-3.3103,-3.314,-3.3452,-3.3473,-3.3559,-3.3505,-3.3296,-3.2708,-3.2478,-3.2111,-3.1403,-3.1164,-3.076,-2.9329,-2.9127,-2.9163,-2.936,-2.9153,-2.8983,-2.7149,-2.7882,-2.7514,-2.7013,-2.6464,-2.8001,-2.8674,-2.8762,-2.8323,-2.7984,-2.762,-2.6276,-2.5423,-2.4996,-2.5102,-2.5715,-2.6719,-2.7061,-2.8145,-2.9929,-3.0609,-3.1155,-3.1467,-3.1857,-3.1779,-3.13,-3.1078,-3.1076,-3.1031,-3.0223,-2.9564,-2.9124,-2.8267,-2.6784,-2.4773,-2.4493,-2.4319,-2.4234,-2.443,-2.443,-2.4276,-2.3784,-2.3108,-2.224,-2.1719,-2.1095,-2.0316,-2.0235,-2.0235,-2.0289,-2.0282,-2.0083,-1.9637,-1.9246,0.0,0.0,0.0,0.0,0.0,0.0,0.0,0.0,0.0,-2.1583,-2.2496,0.0,-2.2513,0.0,-2.1305,-2.3,-2.5485,-2.5554,0.0,0.0,-2.5375,-2.5544,-2.5765,-2.6561,-2.7127,-2.7127,-2.8359,-2.9518,-3.0306,-3.1102,-3.187,-3.2559,-3.1593,-3.1168,-3.2169,-3.2018,-3.2264,-3.3309,-3.3255,-3.3309,-3.381,-3.3647,-3.3375,-3.3393,-3.3393,-3.3452,-3.3473,-3.3011,-3.2575,-3.2446,-3.1474,-3.0729,-3.0522,-3.0026,-2.9507,-2.9122,-2.9475,-3.0118,-3.0668,-2.9837,-2.9159,-2.7262,-2.7998,-2.9002,-2.8733,-2.7828,-2.9518,-2.993,-2.9542,-2.9571,-2.9365,-2.8812,-2.7934,-2.7243,-2.6753,-2.7265,-2.785,-2.8574,-2.8802,-2.9385,-3.0311,-3.0924,-3.1051,-3.0573,-3.1544,-3.1648,-3.1102,-3.1351,-3.1467,-3.1452,-3.115,-3.0791,-3.0432,-2.9666,-2.8348,-2.6695,-2.5849,-2.5358,-2.5226,-2.461,-2.4276,-2.4219,-2.3892,-2.3286,-2.2317,-2.1639,-2.0859,-1.9888,-1.9516,-1.95,-1.9826,-2.0304,-2.0399,-2.0031,-2.048,-2.0799,0.0,0.0,0.0,0.0,0.0,0.0,0.0,0.0,0.0,0.0,0.0,-2.3219,0.0,-2.2446,0.0,-2.5227,-2.5377,-2.5463,-2.5708,-2.5985,-2.6339,-2.6764,-2.7479,-2.8087,-2.8431,-2.9554,-3.0496,-3.0948,-3.2017,-3.2567,-3.234,-3.1787,-3.1867,-3.2895,-3.2365,-3.2068,-3.3284,-3.3158,-3.314,-3.3954,-3.3701,-3.3266,-3.294,-3.2868,-3.2788,-3.252,-3.2129,-3.1737,-3.1466,-3.0748,-3.0015,-2.9709,-2.9329,-2.8994,-2.9072,-2.9365,-2.9806,-3.0228,-2.9617,-2.9159,-2.689,-2.7177,-2.8991,-2.9296,-2.8688,-3.0119,-3.0121,-2.9108,-2.9898,-3.003,-2.9566,-2.9264,-2.88,-2.8222,-2.8445,-2.8969,-2.9625,-2.9774,-3.003,-3.027,-3.0931,-3.0649,-2.964,-3.0913,-3.1159,-3.0539,-3.1204,-3.1467,-3.1467,-3.1467,-3.145,-3.124,-3.0258,-2.9365,-2.8583,-2.7497,-2.6702,-2.6197,-2.5013,-2.4357,-2.4288,-2.423,-2.3563,-2.2332,-2.1676,-2.072,-1.9472,-1.8808,-1.8715,-1.9321,-1.9937,-2.0319,-2.0446,-2.1611,-2.2107,0.0,-2.2226,0.0,0.0,0.0,0.0,0.0,0.0,0.0,0.0,-2.4523,-2.4557,-2.4659,-2.522,-2.5372,-2.489,-2.4887,-2.5295,-2.6229,-2.6626,-2.7217,-2.804,-2.8422,-2.892,-2.9699,-3.0432,-3.0876,-3.1039,-3.2252,-3.2506,-3.1383,-3.1419,-3.1952,-3.269,-3.1862,-3.1365,-3.2071,-3.2198,-3.2524,-3.3085,-3.323,-3.2995,-3.2361,-3.2107,-3.1855,-3.1319,-3.1136,-3.0859,-3.0338,-3.0112,-2.9764,-2.9104,-2.8994,-2.8975,-2.9017,-2.9053,-2.9067,-2.9108,-2.909,-2.8975,-2.6784,-2.7262,-2.762,-2.8161,-2.8727,-2.9806,-2.9784,-2.8884,-2.8687,-2.8524,-2.8524,-2.9754,-2.9729,-2.8837,-2.934,-2.9821,-3.0202,-3.0277,-3.0542,-3.102,-3.1622,-3.1364,-3.0401,-3.1625,-3.1594,-3.0568,-3.1161,-3.1467,-3.1467,-3.1467,-3.0986,-2.9968,-2.9768,-2.9087,0.0,0.0,0.0,0.0,-2.5068,-2.493,-2.49,-2.3999,-2.3102,-2.2317,-2.1624,0.0,-2.0165,-1.9946,-1.9818,-1.9641,-1.9983,0.0,0.0,0.0,0.0,0.0,0.0,0.0,0.0,0.0,0.0,0.0,-2.4388,-2.4371,-2.4506,-2.4523,-2.4729,-2.5338,-2.5524,-2.5892,-2.6622,-2.6918,-2.7268,-2.766,-2.8031,-2.8322,-2.8492,-2.8562,-2.892,-2.9681,-2.9961,-3.0305,-3.0894,-3.1292,-3.1347,-3.0948,-3.055,-3.0586,-3.1365,-3.1166,-3.1274,-3.2017,-3.2071,-3.2198,-3.2415,-3.2433,-3.2361,-3.2125,-3.1618,-3.1211,-3.0966,-3.0493,-3.0181,-2.9983,-2.9539,-2.9172,-2.9012,-2.8975,-2.8975,-2.8975,-2.8975,-2.8975,-2.8975,-2.8975,-2.8975,-2.6891,0.0,-2.7968,-2.8484,0.0,-2.9688,-2.9785,-2.939,-2.9917,-2.998,-2.9792,-3.0633,-3.0683,-3.0118,-2.9591,-2.9517,-2.9744,-2.91,-2.9119,-2.9741,-3.0397,-3.0408,-2.9943,-3.1154,-3.1476,-3.0954,-3.127,-3.1634,-3.1945,-3.1631,-3.1016,-3.0028,-2.9744,-2.9139,-2.8201,-2.746,-2.6519,-2.5304,-2.5121,-2.5013,-2.4938,-2.4124,-2.331,-2.2653,0.0,0.0,0.0,0.0,0.0,0.0,0.0,0.0,0.0,0.0,0.0,-2.3917,-2.4303,-2.4675,-2.5,-2.5033,-2.5186,-2.5541,-2.5575,-2.5423,-2.5067,-2.5372,-2.5727,-2.6099,-2.6133,-2.6351,-2.6872,-2.71,-2.7334,-2.7619,-2.7811,-2.8,-2.8299,-2.8352,-2.8729,-2.9582,-2.9797,-2.9997,-3.0351,-3.0767,-3.0604,-2.997,-2.9826,-2.9934,-3.026,-3.0061,-3.0115,-3.0876,-3.1003,-3.1148,-3.151,-3.1582,-3.1437,-3.1075,-3.0659,-3.0287,-2.9932,-2.9584,-2.9362,-2.9424,-2.9161,-2.8952,-2.8975,-2.8975,-2.8975,-2.8975,-2.8975,-2.8975,-2.8975,-2.8975,-2.8975,-2.6828,-2.6719,-2.8317,-2.8811,-2.8646,-2.9632,-3.0177,-3.0457,0.0,0.0,0.0,-3.1461,-3.1474,-3.1298,-2.988,-2.929,-2.9403,-2.8137,-2.7875,-2.8503,-2.9229,-2.9483,-2.9371,-3.0525,-3.124,-3.1373,-3.1395,-3.1789,-3.2422,-3.1839,-3.1123,-3.0507,-2.9894,-2.919,-2.8442,-2.7979,-2.7156,-2.5989,-2.5546,-2.5137,-2.4822,-2.4245,-2.3679,-2.3011,-2.2343,-2.1759,-2.1271,-2.0757,-2.0864,-2.1758,-2.2179,-2.2606,-2.3088,-2.3967,-2.4371,-2.4036,-2.4543,-2.5184,-2.5744,-2.5795,-2.6048,-2.6657,-2.6708,-2.6437,-2.5845,-2.6336,-2.6708,-2.6708,-2.6708,-2.6691,-2.6708,-2.6758,-2.6891,-2.7181,-2.7244,-2.7504,-2.7964,-2.8075,-2.8479,-2.9322,-2.951,-2.9572,-2.959,-3.0097,-3.0133,-2.9047,-2.9174,-2.9572,-2.9518,-2.9264,-2.9174,-2.9572,-2.9844,-3.0097,-3.0568,-3.0767,-3.0514,-3.0043,-2.9735,-2.9362,-2.8887,-2.8737,-2.881,-2.8931,-2.8929,-2.8975,-2.8975,-2.8975,-2.8975,-2.8975,-2.8975,-2.8975,-2.8975,-2.8975,-2.8975,-2.647,-2.69,-2.7153,-2.7799,-2.8793,-2.9772,-3.1137,-3.2554,-3.1838,-3.121,-3.0783,-3.17,-3.1825,-3.1361,-3.0683,-3.0448,-3.062,-2.9935,-2.9615,0.0,-3.018,-3.0082,-2.9398,-3.0525,-3.124,-3.1373,-3.1395,-3.1789,-3.2378,-3.181,-3.118,-3.0507,-2.9894,-2.8966,-2.7859,-2.8203,-2.8068,-2.7305,-2.6808,-2.5967,-2.4807,-2.4275,-2.3694,-2.3011,-2.2358,-2.1948,-2.1896,-2.185,-2.1732,-2.1561,-2.2063,-2.2736,-2.3703,-2.4255,-2.5031,-2.6116,-2.6336,-2.6437,-2.6539,-2.6539,-2.6573,-2.6674,-2.6708,-2.6657,-2.6556,-2.664,-2.6708,-2.6708,-2.6708,-2.6708,-2.6725,-2.6973,-2.7169,-2.7215,-2.7461,-2.7672,-2.7806,-2.7982,-2.8183,-2.8425,-2.8611,-2.8811,-2.8866,-2.8974,-2.9011,-2.8703,-2.8793,-2.883,-2.892,-2.9282,-2.9318,-2.9011,-2.9355,-2.9797,-2.9934,-2.9979,-2.9898,-2.9852,-2.9246,-2.8848,-2.8757,-2.8705,-2.8761,-2.881,-2.8881,-2.8929,-2.8975,-2.8975,-2.8975,-2.8975,-2.8975,-2.8975,-2.8975,-2.8975,-2.8975,-2.6733,-2.6759,-2.7145,-2.7851,-2.8806,-3.0351,-3.1801,-3.3031,-3.2541,-3.2177,-3.2014,-3.2466,-3.2541,-3.2177,-3.0809,-3.0247,-3.0249,-2.8859,-2.8584,-2.9061,-2.9563,-2.9904,-3.0082,-3.0745,-3.1272,-3.1736,-3.1402,-3.1667,-3.2317,-3.1748,-3.1087,-3.0481,-2.9894,-2.9086,-2.8218,-2.8442,-2.8083,-2.7066,-2.6801,-2.6219,-2.5242,-2.4627,-2.3995,-2.336,-2.3043,-2.2892,-2.2975,-2.3056,-2.3185,-2.3271,-2.3555,-2.4136,-2.5043,-2.528,-2.5765,-2.664,-2.6708,-2.6708,-2.6708,-2.6708,-2.686,-2.7266,-2.6911,-2.6877,-2.7283,-2.6928,-2.6708,-2.6708,-2.6708,-2.6708,-2.6725,-2.7199,-2.7555,-2.7504,-2.767,-2.7912,-2.8185,-2.8012,-2.801,-2.8317,-2.8492,-2.8587,-2.8587,-2.8587,-2.8587,-2.8587,-2.8587,-2.8587,-2.8587,-2.8902,-2.9047,-2.8721,-2.892,-2.9101,-2.9156,-2.9156,-2.9318,-2.9681,-2.9119,-2.8866,-2.9065,-2.9032,-2.8798,-2.8785,-2.89,-2.897,-2.8975,-2.8975,-2.8975,-2.8975,-2.8975,-2.8975,-2.8975,-2.8975,-2.8975,-2.6973,-2.6677,-2.7191,-2.8031,-2.9176,-3.0633,-3.1977,-3.3081,-3.3068,-3.3081,-3.3081,-3.3081,-3.3081,-3.2893,-3.1135,-3.0344,-3.008,-2.8558,-2.8189,-2.8969,-2.934,-2.9899,-3.0633,-3.0911,-3.1394,-3.1947,-3.1405,-3.1584,-3.2248,-3.1724,-3.107,-3.0541,-3.0178,-2.9609,-2.8846,-2.8816,-2.8233,-2.7111,-2.6886,-2.6437,-2.563,-2.506,-2.4522,-2.3879,-2.367,-2.3638,-2.3754,-2.3882,-2.4135,-2.4574,-2.4744,-2.5214,-2.5888,-2.6052,-2.628,-2.6657,-2.6708,-2.6708,-2.6708,-2.686,-2.7199,-2.7757,-2.7283,-2.7199,-2.7672,-2.7131,-2.6708,-2.6708,-2.686,-2.6911,-2.686,-2.7571,-2.796,-2.7655,-2.7705,-2.7879,-2.8184,-2.7866,-2.7771,-2.8291,-2.844,-2.8492,-2.8587,-2.8587,-2.8587,-2.8587,-2.8587,-2.8587,-2.8587,-2.8587,-2.8587,-2.8587,-2.8587,-2.8623,-2.8587,-2.8605,-2.8884,-2.9445,-2.9029,-2.8902,-2.9199,-2.9039,-2.884,-2.881,-2.8905,-2.8952,-2.8975,-2.8975,-2.8975,-2.8975,-2.8975,-2.8975,-2.8975,-2.8975,-2.8975,-2.6695,-2.6931,-2.6728,-2.7925,-2.9988,-3.026,-3.1436,-3.2982,-3.3081,-3.3081,-3.3081,-3.3081,-3.3081,-3.2993,-3.2265,-3.1901,-3.1851,-3.1235,-3.083,-3.0633,-3.0906,-3.0933,-3.0737,-3.0924,-3.1394,-3.1947,-3.1433,-3.1543,-3.2248,-3.1695,-3.1115,-3.066,-3.1061,-3.0702,-2.9639,-2.949,-2.9131,-2.8427,-2.7799,-2.6886,-2.5689,-2.5555,-2.5211,-2.4507,-2.3924,-2.3595,-2.3638,-2.3739,-2.3824,-2.3952,-2.4477,-2.4997,-2.5443,-2.5872,-2.628,-2.6657,-2.6708,-2.6708,-2.6742,-2.7334,-2.7705,-2.7807,-2.7757,-2.7706,-2.7739,-2.7131,-2.6708,-2.6793,-2.73,-2.7385,-2.6894,-2.801,-2.8315,-2.7165,-2.7537,-2.7605,-2.7181,-2.7087,-2.74,-2.7713,-2.8027,-2.8255,-2.8466,-2.8562,-2.8587,-2.8587,-2.8587,-2.8587,-2.8587,-2.8587,-2.8587,-2.8587,-2.8587,-2.8587,-2.8587,-2.8587,-2.8714,-2.8811,-2.8721,-2.8782,-2.8923,-2.8912,-2.8743,-2.8858,-2.8905,-2.8952,-2.8975,-2.8975,-2.8975,-2.8975,-2.8975,-2.8975,-2.8975,-2.8975,-2.8975,-2.6902,-2.711,-2.6677,-2.7966,-3.0079,-3.017,-3.1258,-3.3081,-3.3081,-3.3081,-3.3081,-3.3081,-3.3081,-3.3043,-3.2478,-3.2202,-3.2164,-3.165,-3.1354,-3.1196,-3.1052,-3.1021,-3.1023,-3.0827,-3.1048,-3.1381,-3.1143,-3.1317,-3.1636,-3.1547,-3.1323,-3.1138,-3.1347,-3.1046,-3.0193,-3.0133,-2.9819,-2.919,-2.8906,-2.8308,-2.735,-2.6213,-2.53,-2.4642,-2.3969,-2.3595,-2.3595,-2.3739,-2.3797,-2.3839,-2.4234,-2.463,-2.5036,-2.5503,-2.5924,-2.6315,-2.6573,-2.6894,-2.7317,-2.762,-2.8027,-2.8467,-2.8078,-2.7789,-2.7755,-2.7131,-2.6708,-2.6776,-2.7368,-2.7672,-2.7503,-2.8738,-2.9042,-2.7791,-2.8044,-2.8267,-2.7741,-2.7375,-2.7338,-2.7624,-2.78,-2.7933,-2.8055,-2.8219,-2.8396,-2.8518,-2.8587,-2.8587,-2.8587,-2.8587,-2.8587,-2.8587,-2.8587,-2.8587,-2.8587,-2.8587,-2.8793,-2.9065,-2.8927,-2.876,-2.9221,-2.9004,-2.8839,-2.8905,-2.8929,-2.8952,-2.8975,-2.8975,-2.8975,-2.8975,-2.8975,-2.8975,-2.8975,-2.8975,-2.8975,-2.713,-2.7172,-2.6835,-2.7882,-2.9806,-3.0068,-3.1169,-3.2612,-3.2995,-3.3081,-3.3081,-3.3081,-3.3081,-3.3018,-3.2629,-3.2453,-3.239,-3.2039,-3.1675,-3.1411,-3.1364,-3.1207,-3.0918,-3.092,-3.0929,-3.0937,-3.0973,-3.1074,-3.1321,-3.1611,-3.1661,-3.1511,-3.1467,-3.127,-3.0821,-3.0627,-3.0283,-2.9864,-2.9684,-2.9265,-2.8457,-2.7006,-2.5749,-2.4926,-2.4238,-2.3789,-2.361,-2.3711,-2.3739,-2.3739,-2.3982,-2.4276,-2.4719,-2.5198,-2.5689,-2.6227,-2.6758,-2.7249,-2.7772,-2.8178,-2.8586,-2.889,-2.8433,-2.8027,-2.7705,-2.7131,-2.6945,-2.7368,-2.7638,-2.7757,-2.7672,-2.9076,-2.9381,-2.8076,-2.8518,-2.8847,-2.8511,-2.7825,-2.7612,-2.8049,-2.8272,-2.8167,-2.8153,-2.817,-2.8228,-2.8518,-2.8587,-2.8587,-2.8587,-2.8587,-2.8612,-2.8637,-2.8637,-2.8612,-2.8612,-2.8587,-2.8938,-2.9127,-2.896,-2.8912,-2.9501,-2.9113,-2.8929,-2.8929,-2.897,-2.8994,-2.8975,-2.8975,-2.8975,-2.8975,-2.8975,-2.8975,-2.8975,-2.8975,-2.8975,-2.7307,-2.7643,-2.7431,-2.7809,-2.8806,-2.9715,-3.0711,-3.1813,-3.2624,-3.3081,-3.3081,-3.3081,-3.3081,-3.3081,-3.3006,-3.3031,-3.3018,-3.2943,-3.239,-3.1599,-3.2041,-3.1622,-3.0279,-3.101,-3.1216,-3.0799,-3.0836,-3.1074,-3.1335,-3.2006,-3.2153,-3.1497,-3.1467,-3.1452,-3.136,-3.0851,-3.0507,-3.0447,-2.9983,-2.9325,-2.8667,-2.7889,-2.6886,-2.5704,-2.4926,-2.4283,-2.3729,-2.361,-2.361,-2.361,-2.3754,-2.4094,-2.4614,-2.5146,-2.5877,-2.6656,-2.7367,-2.7772,-2.8061,-2.9107,-2.9634,-2.9093,-2.889,-2.8569,-2.7774,-2.7165,-2.7317,-2.8672,-2.8112,-2.7655,-2.7215,-2.8789,-2.9364,-2.8076,-2.8518,-2.8909,-2.8926,-2.8267,-2.8338,-2.8939,-2.9059,-2.8893,-2.9012,-2.8556,-2.83,-2.8448,-2.8587,-2.8587,-2.8587,-2.8587,-2.8637,-2.8669,-2.8669,-2.8687,-2.863,-2.8819,-2.8808,-2.8869,-2.9009,-2.8834,-2.8852,-2.8905,-2.8929,-2.8952,-2.8975,-2.8975,-2.8975,-2.8975,-2.8975,-2.8975,-2.8975,-2.8975,-2.8975,-2.8975,-2.8975,-2.6981,-2.6949,-2.7023,-2.7715,-2.8724,-2.9084,-3.0079,-3.1625,-3.1989,-3.2525,-3.3081,-3.3081,-3.3081,-3.3081,-3.3081,-3.3081,-3.3081,-3.3081,-3.2842,-3.2416,-3.2034,-3.1549,-3.1179,-3.0815,-3.0689,-3.0737,-3.0685,-3.0771,-3.1135,-3.2035,-3.2183,-3.1571,-3.1467,-3.1467,-3.1495,-3.1228,-3.115,-3.1135,-3.0926,-3.0507,-2.9789,-2.919,-2.8233,-2.6901,-2.5809,-2.4941,-2.4283,-2.4253,-2.4073,-2.3625,-2.3739,-2.4079,-2.4762,-2.6009,-2.6997,-2.7674,-2.8272,-2.8772,-2.9262,-2.9786,-2.9786,-2.9093,-2.9011,-2.8433,-2.7435,-2.7266,-2.7486,-2.7638,-2.8298,-2.818,-2.7841,-2.8636,-2.8975,-2.8163,-2.8501,-2.9045,-2.8941,-2.8721,-2.8742,-2.8949,-2.873,-2.8288,-2.8227,-2.7889,-2.7971,-2.8228,-2.8448,-2.8562,-2.8587,-2.8587,-2.8637,-2.8669,-2.8712,-2.8894,-2.9501,-2.9519,-2.9471,-2.9168,-2.9065,-2.9144,-2.9198,-2.8983,-2.8994,-2.8975,-2.8975,-2.8975,-2.8975,-2.8975,-2.8975,-2.8975,-2.8975,-2.8975,-2.8975,-2.8975,-2.8975,-2.6675,-2.645,-2.6794,-2.7357,-2.8092,-2.8538,-2.9452,-3.0722,-3.1359,-3.1989,-3.2612,-3.2982,-3.3081,-3.3081,-3.3081,-3.3081,-3.3081,-3.3081,-3.298,-3.2767,-3.2202,-3.1833,-3.1486,-3.0963,-3.0675,-3.0804,-3.0737,-3.0897,-3.1265,-3.2014,-3.2183,-3.1825,-3.1601,-3.1467,-3.1467,-3.1467,-3.1467,-3.1467,-3.1467,-3.118,-3.0522,-2.9909,-2.9056,-2.7904,-2.6632,-2.551,-2.4627,-2.4582,-2.4268,-2.3744,-2.3906,-2.443,-2.5331,-2.6522,-2.7591,-2.8201,-2.8803,-2.9421,-3.0002,-3.0311,-3.004,-2.913,-2.8977,-2.8399,-2.7266,-2.752,-2.7706,-2.796,-2.8349,-2.8772,-2.8704,-2.8856,-2.8856,-2.8636,-2.9025,-2.9465,-2.9651,-2.9482,-2.9499,-2.9655,-2.9197,-2.8611,-2.8286,-2.8288,-2.8368,-2.8482,-2.8712,-2.8783,-2.8634,-2.8612,-2.8662,-2.8737,-2.8743,-2.8992,-2.9442,-2.9625,-3.0148,-3.0027,-2.9497,-2.9527,-2.9368,-2.9159,-2.8994,-2.8975,-2.8975,-2.8975,-2.8975,-2.8975,-2.8975,-2.8975,-2.8975,-2.8975,-2.8975,-2.8975,-2.8975,-2.6497,-2.6217,-2.6699,-2.69,-2.7177,-2.8092,-2.8631,-2.9257,-3.0812,-3.1625,-3.2077,-3.2723,-3.3081,-3.3081,-3.3081,-3.3081,-3.3081,-3.3081,-3.283,-3.2428,-3.2717,-3.2353,-3.1568,-3.1486,-3.1251,-3.0966,-3.1271,-3.1546,-3.1765,-3.2051,-3.2295,-3.2318,-3.184,-3.1659,-3.1511,-3.1526,-3.1467,-3.1467,-3.1467,-3.1195,-3.0522,-2.9894,-2.9235,-2.8487,-2.7275,-2.6033,-2.4792,-2.4627,-2.4328,-2.3894,-2.4253,-2.5123,-2.612,-2.672,-2.7264,-2.8159,-2.8923,-2.9549,-3.0116,-3.0661,-3.0345,-2.9381,-2.9008,-2.8619,-2.7875,-2.7823,-2.8349,-2.9127,-2.9364,-2.9313,-2.9753,-2.9516,-2.9364,-2.9905,-2.9956,-3.0243,-3.0717,-3.0514,-3.0345,-3.0717,-3.026,-3.019,-3.0173,-2.9661,-2.9266,-2.9243,-2.9351,-2.9268,-2.8923,-2.8862,-2.8828,-2.8785,-2.8852,-2.9046,-2.9331,-2.9672,-3.0436,-3.0906,-3.0302,-2.9936,-2.9575,-2.9305,-2.903,-2.8975,-2.8975,-2.8975,-2.8975,-2.8975,-2.8975,-2.8975,-2.8975,-2.8975,-2.8975,-2.8975,-2.8975,-2.631,-2.611,-2.6294,-2.6496,-2.6699,-2.7262,-2.8164,-2.951,-3.0339,-3.1347,-3.2525,-3.2982,-3.3081,-3.3081,-3.3081,-3.3081,-3.3081,-3.3081,-3.2968,-3.2792,-3.2604,-3.234,-3.1964,-3.1656,-3.1392,-3.1305,-3.1378,-3.1409,-3.1478,-3.2272,-3.2645,-3.2261,-3.2198,-3.2169,-3.2153,-3.1721,-3.1467,-3.1467,-3.1467,-3.1195,-3.0522,-2.9909,-2.9265,-2.8592,-2.7724,-2.6841,-2.6019,-2.5121,-2.4731,-2.4911,-2.4747,-2.5258,-2.6535,-2.7178,-2.7832,-2.8622,-2.8682,-2.9264,-3.0182,-3.0409,-3.0311,-2.9753,-2.9296,-2.8636,-2.8044,-2.8315,-2.8569,-2.889,-2.9634,-3.0497,-3.0192,-3.0395,-3.0362,-3.0142,-3.0108,-3.0429,-3.1021,-3.097,-3.0717,-3.0446,-3.0243,-2.9942,-2.9704,-2.9524,-2.9874,-2.9832,-3.0107,-3.0134,-2.9592,-2.9409,-2.9264,-2.8949,-2.9004,-2.9064,-2.9362,-2.9648,-3.0149,-3.0619,-3.0345,-3.007,-2.9745,-2.9342,-2.9085,-2.8975,-2.8975,-2.8975,-2.8975,-2.8975,-2.8975,-2.8975,-2.8975,-2.8975,-2.8975,-2.8975,-2.8975,-2.6075,-2.5917,-2.61,-2.6207,-2.6496,-2.6794,-2.7799,-2.9326,-2.9977,-3.108,-3.2351,-3.2982,-3.3081,-3.3081,-3.3081,-3.3081,-3.3081,-3.3081,-3.3081,-3.3043,-3.2729,-3.2528,-3.2453,-3.1951,-3.1436,-3.1128,-3.1151,-3.113,-3.1154,-3.1971,-3.244,-3.2457,-3.2444,-3.2437,-3.2452,-3.1884,-3.1467,-3.1467,-3.1467,-3.1195,-3.0522,-2.9909,-2.9265,-2.8577,-2.7709,-2.722,-2.6856,-2.5704,-2.5181,-2.5525,-2.5405,-2.5993,-2.7182,-2.7624,-2.8171,-2.8774,-2.8909,-2.9239,-3.027,-3.0356,-3.0191,-3.0019,-2.9414,-2.8991,-2.8721,-2.9008,-2.8839,-2.9364,-3.0294,-3.1004,-3.07,-3.0869,-3.0954,-3.0581,-3.0548,-3.0717,-3.1123,-3.119,-3.1021,-3.0683,-3.0548,-3.026,-3.0088,-3.0101,-3.0369,-3.033,-3.0547,-3.0648,-3.0098,-2.9968,-2.9566,-2.9267,-2.9225,-2.9337,-2.9454,-2.9673,-2.9916,-3.0118,-3.0167,-3.0039,-2.9837,-2.9324,-2.8975,-2.8975,-2.8975,-2.8975,-2.8975,-2.8975,-2.8975,-2.8975,-2.8975,-2.8975,-2.8975,-2.8975,-2.8975,-2.5742,-2.5732,-2.6004,-2.6197,-2.6496,-2.6709,-2.762,-2.8899,-2.9806,-3.08,-3.1901,-3.2711,-3.3081,-3.3081,-3.3081,-3.3081,-3.3081,-3.3081,-3.3081,-3.3081,-3.3006,-3.2993,-3.2893,-3.2378,-3.175,-3.1122,-3.0775,-3.0854,-3.1169,-3.1451,-3.1944,-3.2782,-3.2378,-3.2377,-3.2497,-3.19,-3.1511,-3.1674,-3.1526,-3.118,-3.0522,-2.9909,-2.9265,-2.8592,-2.7455,-2.7006,-2.723,-2.6408,-2.5749,-2.5764,-2.6258,-2.6924,-2.7625,-2.7925,-2.8148,-2.8764,-2.8965,-2.9392,-3.0143,-3.0303,-3.0323,-3.0239,-2.9651,-2.9313,-2.9753,-2.9448,-2.9567,-3.0497,-3.1004,-3.1173,-3.1123,-3.1173,-3.1157,-3.1173,-3.1072,-3.1123,-3.1173,-3.119,-3.1123,-3.1123,-3.1173,-3.1157,-3.1009,-3.1104,-3.097,-3.0779,-3.0716,-3.0676,-3.0395,-3.0247,-2.9897,-2.9643,-2.9386,-2.9246,-2.9271,-2.9289,-2.9489,-2.9604,-2.9751,-2.9751,-2.9714,-2.9292,-2.8975,-2.8975,-2.8975,-2.8975,-2.8975,-2.8975,-2.8975,-2.8975,-2.8975,-2.8975,-2.8975,-2.8975,-2.8975,-2.5732,-2.5732,-2.583,-2.5917,-2.6197,-2.6496,-2.7694,-2.9418,-2.9977,-3.0979,-3.2438,-3.2982,-3.3081,-3.3081,-3.3081,-3.3081,-3.3081,-3.3081,-3.3081,-3.3081,-3.3081,-3.3081,-3.2968,-3.2516,-3.229,-3.2152,-3.1185,-3.088,-3.1312,-3.1303,-3.1658,-3.2458,-3.2122,-3.2538,-3.3354,-3.2169,-3.1737,-3.2049,-3.1691,-3.121,-3.0522,-2.9924,-2.9265,-2.8592,-2.7754,-2.741,-2.761,-2.726,-2.6797,-2.6408,-2.6946,-2.748,-2.7845,-2.7561,-2.771,-2.834,-2.8027,-2.8315,-2.9589,-2.9823,-3.0042,-3.074,-3.0142,-2.9922,-3.0057,-2.9939,-3.0006,-3.048,-3.0818,-3.119,-3.119,-3.119,-3.119,-3.119,-3.119,-3.119,-3.119,-3.119,-3.119,-3.119,-3.119,-3.119,-3.123,-3.1334,-3.1422,-3.1347,-3.1426,-3.1463,-3.0954,-3.0665,-3.0349,-2.9686,-2.9331,-2.9106,-2.8996,-2.8985,-2.9049,-2.9127,-2.9219,-2.9255,-2.9255,-2.9085,-2.8975,-2.8975,-2.8975,-2.8975,-2.8975,-2.8975,-2.8975,-2.8975,-2.8975,-2.8975,-2.8975,-2.8975,-2.8975,-2.5732,-2.5732,-2.5732,-2.582,-2.6091,-2.6304,-2.7389,-2.8762,-2.9212,-3.0406,-3.1965,-3.2326,-3.2612,-3.3068,-3.3081,-3.3081,-3.3081,-3.3081,-3.3081,-3.3081,-3.3081,-3.3081,-3.2993,-3.2692,-3.2641,-3.2554,-3.1537,-3.1047,-3.1032,-3.1034,-3.1368,-3.1726,-3.1723,-3.2378,-3.3484,-3.2463,-3.19,-3.2318,-3.2093,-3.1509,-3.0552,-3.0178,-2.9475,-2.8771,-2.8173,-2.7919,-2.7634,-2.756,-2.7365,-2.7141,-2.74,-2.7725,-2.7925,-2.7671,-2.7722,-2.835,-2.7891,-2.8286,-2.9371,-2.9662,-3.0096,-3.0796,-3.0514,-3.0362,-3.0412,-3.0328,-3.0159,-3.0632,-3.0987,-3.114,-3.119,-3.119,-3.119,-3.119,-3.119,-3.119,-3.119,-3.119,-3.119,-3.119,-3.119,-3.119,-3.119,-3.1389,-3.1449,-3.1507,-3.1514,-3.1438,-3.1235,-3.1029,-3.059,-2.98,-2.9247,-2.898,-2.8807,-2.8779,-2.8905,-2.897,-2.8947,-2.8952,-2.8975,-2.8975,-2.8975,-2.8975,-2.8975,-2.8975,-2.8975,-2.8975,-2.8975,-2.8975,-2.8975,-2.8975,-2.8975,-2.8975,-2.8975,-2.5732,-2.5732,-2.5732,-2.582,-2.61,-2.61,-2.6829,-2.7829,-2.8006,-2.9201,-3.0664,-3.1045,-3.1689,-3.2884,-3.2711,-3.2982,-3.3081,-3.3081,-3.3081,-3.3081,-3.3081,-3.3081,-3.3068,-3.3018,-3.2792,-3.2428,-3.1775,-3.1248,-3.0981,-3.092,-3.0973,-3.1196,-3.1351,-3.2096,-3.3054,-3.2601,-3.243,-3.275,-3.2557,-3.1943,-3.1031,-3.0597,-2.9924,-2.9175,-2.8607,-2.8158,-2.7739,-2.756,-2.753,-2.756,-2.756,-2.7725,-2.7955,-2.8005,-2.8137,-2.8332,-2.8369,-2.8717,-2.9528,-2.9745,-3.0133,-3.0778,-3.0538,-3.0497,-3.0869,-3.0632,-3.0548,-3.1021,-3.1173,-3.119,-3.119,-3.119,-3.119,-3.119,-3.119,-3.119,-3.119,-3.119,-3.119,-3.119,-3.119,-3.119,-3.119,-3.119,-3.119,-3.1329,-3.1389,-3.1363,-3.1113,-3.0793,-3.0246,-2.9541,-2.9134,-2.8827,-2.8676,-2.8558,-2.8749,-2.8881,-2.8881,-2.8881,-2.8975,-2.8975,-2.8975,-2.8975,-2.8975,-2.8975,-2.8975,-2.8975,-2.8975,-2.8975,-2.8975,-2.8975,-2.8975,-2.8975,-2.8975,-2.5732,-2.5732,-2.5732,-2.582,-2.61,-2.61,-2.6733,-2.7829,-2.7819,-2.8566,-2.9681,-3.0033,-3.0676,-3.1677,-3.1977,-3.2351,-3.3068,-3.3081,-3.3081,-3.3081,-3.3081,-3.3081,-3.3081,-3.3081,-3.3006,-3.2729,-3.2303,-3.175,-3.1279,-3.0909,-3.0766,-3.0957,-3.1387,-3.2139,-3.3232,-3.318,-3.3428,-3.3737,-3.308,-3.2422,-3.1884,-3.1001,-3.0372,-2.9864,-2.9071,-2.8263,-2.7724,-2.756,-2.756,-2.756,-2.761,-2.7725,-2.7955,-2.8005,-2.8103,-2.8363,-2.8411,-2.8668,-2.9182,-2.9617,-3.0011,-3.0526,-3.0727,-3.1021,-3.1123,-3.1016,-3.0987,-3.119,-3.119,-3.1207,-3.1292,-3.1224,-3.1258,-3.1292,-3.1275,-3.1224,-3.119,-3.119,-3.119,-3.119,-3.119,-3.119,-3.119,-3.119,-3.119,-3.119,-3.123,-3.1269,-3.093,-3.0561,-3.006,-2.9416,-2.8806,-2.8553,-2.8834,-2.8694,-2.8739,-2.8798,-2.8767,-2.8858,-2.8952,-2.8975,-2.8975,-2.8975,-2.8975,-2.8975,-2.8975,-2.8975,-2.8975,-2.8975,-2.8975,-2.8975,-2.8975,-2.8975,-2.8975,-2.5732,-2.5732,-2.5732,-2.583,-2.5917,-2.5907,-2.6284,-2.6829,-2.6829,-2.7474,-2.8391,-2.8751,-2.9761,-3.1122,-3.1524,-3.2164,-3.2896,-3.3081,-3.3081,-3.3081,-3.3081,-3.3081,-3.3081,-3.3081,-3.3068,-3.298,-3.2478,-3.2039,-3.17,-3.1235,-3.0934,-3.083,-3.131,-3.1864,-3.2816,-3.3271,-3.3659,-3.3755,-3.3391,-3.2841,-3.2377,-3.1554,-3.0552,-3.0058,-2.9116,-2.8278,-2.77,-2.756,-2.756,-2.756,-2.7625,-2.7725,-2.7955,-2.8005,-2.8118,-2.8363,-2.8411,-2.8621,-2.9028,-2.9348,-2.9661,-3.014,-3.041,-3.0634,-3.0797,-3.0878,-3.0998,-3.1134,-3.1224,-3.1292,-3.1647,-3.1715,-3.1698,-3.1698,-3.1681,-3.1562,-3.1275,-3.119,-3.119,-3.119,-3.119,-3.119,-3.119,-3.119,-3.119,-3.119,-3.119,-3.1196,-3.0823,-3.0455,-3.0017,-2.9399,-2.8618,-2.8373,-2.8815,-2.8887,-2.8784,-2.8742,-2.8669,-2.8791,-2.897,-2.8994,-2.8975,-2.8975,-2.8975,-2.8975,-2.8975,-2.8975,-2.8975,-2.8975,-2.8975,-2.8975,-2.8975,-2.8975,-2.8975,-2.5732,-2.5732,-2.5732,-2.5732,-2.5732,-2.5732,-2.5732,-2.5732,-2.5732,-2.638,-2.721,-2.7568,-2.8751,-3.0496,-3.1057,-3.1889,-3.2896,-3.3081,-3.3081,-3.3081,-3.3081,-3.3081,-3.3081,-3.3081,-3.3068,-3.3006,-3.2641,-3.2353,-3.2077,-3.1738,-3.1241,-3.0851,-3.1519,-3.1808,-3.1931,-3.2904,-3.3717,-3.3696,-3.3328,-3.3093,-3.2647,-3.1913,-3.0911,-2.9983,-2.9235,-2.8517,-2.7949,-2.7679,-2.756,-2.756,-2.756,-2.7725,-2.789,-2.7955,-2.8069,-2.8314,-2.8348,-2.8525,-2.8811,-2.9044,-2.9348,-2.9677,-2.981,-3.0011,-3.0309,-3.0518,-3.074,-3.1026,-3.123,-3.1579,-3.2093,-3.2178,-3.2104,-3.2053,-3.207,-3.1816,-3.1376,-3.119,-3.119,-3.119,-3.119,-3.119,-3.119,-3.119,-3.119,-3.119,-3.119,-3.1106,-3.0751,-3.0247,-2.9759,-2.9225,-2.8366,-2.8188,-2.8627,-2.91,-2.8987,-2.8883,-2.8735,-2.8816,-2.9002,-2.8994,-2.8975,-2.8975,-2.8975,-2.8975,-2.8975,-2.8975,-2.8975,-2.8975,-2.8975,-2.8975,-2.8975,-2.8975,-2.8975,-2.5732,-2.5732,-2.5732,-2.5732,-2.5732,-2.5732,-2.5732,-2.5732,-2.5732,-2.583,-2.611,-2.637,-2.7568,-2.9131,-2.9954,-3.1134,-3.2612,-3.3081,-3.3081,-3.3081,-3.3081,-3.3081,-3.3081,-3.3081,-3.3081,-3.3068,-3.2893,-3.2654,-3.234,-3.2064,-3.1587,-3.1019,-3.1642,-3.1972,-3.1843,-3.2701,-3.3564,-3.3628,-3.3158,-3.2912,-3.2807,-3.2049,-3.115,-3.0298,-2.9684,-2.9071,-2.8412,-2.7874,-2.756,-2.756,-2.756,-2.769,-2.7866,-2.7931,-2.7966,-2.8054,-2.8201,-2.8332,-2.8446,-2.8811,-2.909,-2.9257,-2.9483,-2.9766,-2.9968,-3.0267,-3.0568,-3.099,-3.1554,-3.1985,-3.1427,-3.2188,-3.2026,-3.1698,-3.1613,-3.1478,-3.1275,-3.119,-3.119,-3.119,-3.119,-3.119,-3.119,-3.119,-3.119,-3.119,-3.119,-3.119,-3.1021,-3.0192,-2.935,-2.8765,-2.8064,-2.8172,-2.8418,-2.8956,-2.9189,-2.9147,-2.9035,-2.8973,-2.9064,-2.9007,-2.8975,-2.8975,-2.8975,-2.8975,-2.8975,-2.8975,-2.8975,-2.8975,-2.8975,-2.8975,-2.8975,-2.8975,-2.8975,-2.5732,-2.5732,-2.5732,-2.5732,-2.5732,-2.5732,-2.5732,-2.5732,-2.5732,-2.5732,-2.583,-2.6207,-2.702,-2.8308,-2.8958,-3.0429,-3.1977,-3.2982,-3.3081,-3.3081,-3.3081,-3.3081,-3.3081,-3.3081,-3.3081,-3.3081,-3.3056,-3.2955,-3.2692,-3.2667,-3.2039,-3.1511,-3.204,-3.1967,-3.1501,-3.2219,-3.2883,-3.3087,-3.2949,-3.2824,-3.2901,-3.1946,-3.1183,-3.0597,-3.0178,-2.9579,-2.8712,-2.8353,-2.8113,-2.8113,-2.8098,-2.8165,-2.8216,-2.8186,-2.8152,-2.8061,-2.8054,-2.8088,-2.8137,-2.8462,-2.859,-2.8637,-2.8951,-2.9182,-2.9499,-2.9853,-3.0441,-3.1399,-3.2185,-3.2899,-3.3,-3.3152,-3.3017,-3.2544,-3.229,-3.1918,-3.1427,-3.1241,-3.1207,-3.1224,-3.119,-3.119,-3.119,-3.119,-3.119,-3.119,-3.119,-3.119,-3.119,-3.026,-2.9282,-2.9321,-2.8885,-2.8853,-2.9023,-2.9353,-2.962,-2.9538,-2.9247,-2.9202,-2.9156,-2.9161,-2.9044,-2.8975,-2.8975,-2.8975,-2.8975,-2.8975,-2.8975,-2.8975,-2.8994,-2.8994,-2.8994,-2.8975,-2.9012,-2.5732,-2.5732,-2.5732,-2.5732,-2.5752,-2.584,-2.581,-2.5762,-2.585,-2.583,-2.5732,-2.6217,-2.6839,-2.7945,-2.8969,-3.0272,-3.1901,-3.281,-3.3081,-3.3081,-3.3081,-3.3081,-3.3081,-3.3081,-3.3081,-3.3081,-3.3081,-3.3081,-3.3018,-3.3006,-3.2453,-3.1984,-3.2288,-3.1988,-3.1203,-3.1915,-3.2131,-3.2376,-3.254,-3.2591,-3.2164,-3.1737,-3.13,-3.0672,-3.0462,-2.9774,-2.8981,-2.8382,-2.8397,-2.8457,-2.8547,-2.8622,-2.8771,-2.8801,-2.8591,-2.8188,-2.8061,-2.797,-2.8005,-2.8088,-2.8235,-2.8317,-2.8348,-2.8621,-2.892,-2.9502,-3.0245,-3.1733,-3.2605,-3.3201,-3.347,-3.4095,-3.3811,-3.3305,-3.3051,-3.2899,-3.1765,-3.1309,-3.1376,-3.1343,-3.1241,-3.119,-3.119,-3.119,-3.119,-3.119,-3.119,-3.119,-3.1072,-3.0243,-2.9617,-3.0091,-3.0099,-2.9844,-2.9911,-3.0024,-3.0209,-3.0176,-2.9668,-2.9332,-2.9334,-2.9308,-2.9156,-2.8965,-2.8975,-2.8975,-2.8975,-2.8975,-2.8952,-2.897,-2.897,-2.897,-2.8947,-2.9002,-2.908,-2.5732,-2.5732,-2.5732,-2.5732,-2.5791,-2.6103,-2.6064,-2.5791,-2.6094,-2.6084,-2.5742,-2.5839,-2.6572,-2.7767,-2.9966,-3.1524,-3.2537,-3.2982,-3.3081,-3.3081,-3.3081,-3.3081,-3.3081,-3.3081,-3.3081,-3.3081,-3.3081,-3.3081,-3.3081,-3.3081,-3.2754,-3.2311,-3.2371,-3.2196,-3.1241,-3.1577,-3.1951,-3.1942,-3.1619,-3.1469,-3.1521,-3.1456,-3.1336,-3.1063,-3.0406,-2.9789,-2.94,-2.8727,-2.8338,-2.8697,-2.8652,-2.8891,-2.9325,-2.9475,-2.9101,-2.8569,-2.8147,-2.7855,-2.784,-2.7955,-2.8054,-2.8137,-2.8201,-2.8332,-2.8777,-2.9249,-3.0012,-3.0797,-3.1805,-3.2537,-3.3233,-3.3549,-3.3255,-3.3119,-3.3102,-3.2594,-3.1698,-3.136,-3.1444,-3.1343,-3.1207,-3.119,-3.119,-3.119,-3.119,-3.119,-3.119,-3.119,-3.1038,-3.0345,-2.9702,-3.0091,-3.0581,-3.0467,-3.0496,-3.0673,-3.075,-3.0749,-3.0233,-2.9658,-2.962,-2.9577,-2.9065,-2.8931,-2.8965,-2.8952,-2.8952,-2.8929,-2.8947,-2.8923,-2.8923,-2.8876,-2.8834,-2.8949,-2.9125,-2.5732,-2.5732,-2.5732,-2.5732,-2.5762,-2.5947,-2.5918,-2.5801,-2.5928,-2.5918,-2.5762,-2.582,-2.639,-2.741,-2.9418,-3.0687,-3.1424,-3.2438,-3.3081,-3.3081,-3.3081,-3.3081,-3.3081,-3.3081,-3.3081,-3.3081,-3.3081,-3.3081,-3.3081,-3.3031,-3.2792,-3.2315,-3.2344,-3.2085,-3.1302,-3.1383,-3.1394,-3.1302,-3.102,-3.0951,-3.1061,-3.0783,-3.0584,-3.0896,-3.0352,-3.011,-2.9928,-2.9684,-2.9355,-2.9609,-2.94,-2.946,-2.9714,-2.9475,-2.8846,-2.8622,-2.8,-2.772,-2.769,-2.7821,-2.7905,-2.7989,-2.8134,-2.8452,-2.9102,-2.9815,-3.0641,-3.1901,-3.2692,-3.303,-3.3179,-3.3892,-3.3645,-3.3362,-3.3052,-3.2536,-3.1928,-3.1613,-3.1427,-3.1292,-3.119,-3.119,-3.119,-3.119,-3.119,-3.119,-3.119,-3.119,-3.1173,-3.0937,-3.0328,-2.9888,-3.0429,-3.0835,-3.0972,-3.111,-3.121,-3.1185,-3.0919,-3.0389,-3.008,-2.9837,-2.9264,-2.8925,-2.8888,-2.8918,-2.8918,-2.8881,-2.8881,-2.8858,-2.8834,-2.8901,-2.8968,-2.8974,-2.9308,-2.5732,-2.5732,-2.5732,-2.5732,-2.5752,-2.585,-2.584,-2.5742,-2.5879,-2.5859,-2.5752,-2.6014,-2.6294,-2.704,-2.8598,-2.9681,-3.0033,-3.1601,-3.2438,-3.2624,-3.2797,-3.281,-3.2995,-3.3081,-3.3081,-3.3081,-3.3081,-3.3081,-3.3081,-3.3043,-3.2855,-3.2441,-3.26,-3.2098,-3.158,-3.1485,-3.15,-3.0734,-3.0499,-3.0515,-3.0596,-2.9975,-3.0064,-3.0271,-3.038,-3.0353,-3.0455,-3.0193,-3.0163,-3.0328,-3.0043,-3.0103,-3.0492,-3.0148,-2.9564,-2.9235,-2.8704,-2.818,-2.7985,-2.787,-2.7771,-2.784,-2.8,-2.8446,-2.9441,-3.0456,-3.1234,-3.2088,-3.2615,-3.3045,-3.3404,-3.3713,-3.3228,-3.289,-3.2873,-3.2488,-3.2117,-3.181,-3.1478,-3.1258,-3.119,-3.119,-3.119,-3.119,-3.119,-3.119,-3.119,-3.119,-3.1173,-3.1157,-3.0886,-3.0328,-3.0565,-3.1038,-3.1133,-3.1342,-3.1476,-3.1401,-3.1133,-3.0665,-3.0107,-2.9758,-2.9368,-2.9086,-2.8998,-2.9168,-2.9393,-2.9107,-2.8834,-2.8791,-2.8822,-2.9034,-2.9143,-2.9125,-2.9526,-2.5732,-2.5732,-2.5732,-2.5732,-2.5762,-2.6172,-2.6084,-2.5771,-2.6143,-2.6055,-2.5762,-2.6004,-2.6572,-2.74,-2.8038,-2.8947,-2.9761,-3.0249,-3.1069,-3.1625,-3.1801,-3.2351,-3.281,-3.3081,-3.3081,-3.3081,-3.3081,-3.3081,-3.3081,-3.3081,-3.3043,-3.3018,-3.2953,-3.2503,-3.2026,-3.1703,-3.1293,-3.0594,-3.029,-2.9982,-2.9873,-2.9513,-2.9727,-3.0093,-2.9957,-2.9841,-3.0365,-3.0067,-3.0052,-3.0485,-3.0347,-3.0627,-3.1031,-3.0746,-3.0298,-2.9998,-2.9325,-2.8771,-2.8412,-2.7925,-2.7705,-2.779,-2.7966,-2.8388,-2.9388,-2.9357,-3.0089,-3.144,-3.2017,-3.2024,-3.2187,-3.2294,-3.2144,-3.203,-3.2067,-3.2067,-3.1842,-3.1979,-3.1664,-3.1326,-3.119,-3.119,-3.119,-3.119,-3.119,-3.119,-3.119,-3.119,-3.119,-3.1173,-3.1173,-3.097,-3.1004,-3.1157,-3.1157,-3.1257,-3.1304,-3.1052,-3.0705,-3.0193,-2.9611,-2.9367,-2.9476,-2.9465,-2.9416,-2.9628,-2.9664,-2.9137,-2.8755,-2.8718,-2.8767,-2.8905,-2.9377,-2.9675,-3.0111,-2.5732,-2.5732,-2.5732,-2.5732,-2.5752,-2.5918,-2.5889,-2.5771,-2.5918,-2.5908,-2.5732,-2.582,-2.611,-2.6658,-2.7652,-2.8193,-2.8751,-2.9784,-3.0621,-3.1347,-3.1713,-3.2264,-3.281,-3.3081,-3.3081,-3.3081,-3.3081,-3.3081,-3.3081,-3.3081,-3.3081,-3.3167,-3.3129,-3.2533,-3.2072,-3.147,-3.097,-3.0641,-3.0204,-2.9923,-2.9409,-2.8946,-2.8964,-2.9192,-2.9143,-2.9228,-2.9806,-3.0119,-3.028,-3.0454,-3.0476,-3.0929,-3.1195,-3.0821,-3.0537,-3.0328,-2.9579,-2.8951,-2.8592,-2.7993,-2.764,-2.7675,-2.7851,-2.8359,-2.9431,-2.965,-3.0418,-3.1158,-3.1427,-3.1466,-3.1197,-3.1306,-3.1274,-3.1112,-3.1132,-3.1281,-3.1465,-3.1549,-3.1799,-3.1461,-3.1275,-3.119,-3.119,-3.119,-3.119,-3.119,-3.119,-3.119,-3.119,-3.119,-3.119,-3.119,-3.119,-3.119,-3.119,-3.114,-3.1111,-3.0722,-3.0353,-2.9936,-2.9557,-2.9667,-2.9761,-2.9763,-2.9577,-2.9486,-2.9261,-2.8891,-2.8692,-2.8662,-2.8662,-2.8674,-2.929,-3.0033,-3.0476,-2.5557,-2.5557,-2.5693,-2.5732,-2.5732,-2.5732,-2.5732,-2.5732,-2.5742,-2.5732,-2.5732,-2.5732,-2.5732,-2.61,-2.6839,-2.7474,-2.7757,-2.8691,-2.9715,-3.026,-3.0633,-3.1536,-3.2264,-3.2711,-3.2711,-3.2982,-3.3081,-3.3081,-3.3081,-3.3081,-3.3081,-3.3031,-3.2855,-3.2286,-3.1655,-3.0931,-3.0482,-3.0348,-3.0138,-2.9777,-2.9261,-2.873,-2.865,-2.8752,-2.8692,-2.8898,-2.9558,-3.0036,-3.0379,-3.0558,-3.0703,-3.0929,-3.0821,-3.0522,-3.0103,-2.9774,-2.934,-2.8652,-2.8442,-2.8008,-2.7694,-2.797,-2.8051,-2.8793,-2.9697,-3.0189,-3.0788,-3.1663,-3.1566,-3.1082,-3.0691,-3.0567,-3.0188,-2.9927,-3.038,-3.0604,-3.083,-3.1025,-3.1429,-3.1596,-3.1562,-3.1664,-3.185,-3.1867,-3.1376,-3.1326,-3.119,-3.119,-3.119,-3.119,-3.119,-3.119,-3.119,-3.119,-3.119,-3.1157,-3.1055,-3.0548,-3.0217,-3.005,-2.9833,-2.9967,-2.9871,-2.9622,-2.9431,-2.9202,-2.9065,-2.8956,-2.8793,-2.8612,-2.8757,-2.9029,-2.9409,-3.0142,-3.0377,-2.5295,-2.5156,-2.5566,-2.5732,-2.5732,-2.5732,-2.5732,-2.5732,-2.5732,-2.5732,-2.5732,-2.5732,-2.5732,-2.583,-2.6486,-2.6658,-2.6764,-2.7336,-2.8175,-2.8991,-2.9635,-3.026,-3.1258,-3.1989,-3.2463,-3.297,-3.3068,-3.3068,-3.3006,-3.3068,-3.3068,-3.2867,-3.2528,-3.1926,-3.1311,-3.0555,-3.0062,-2.9873,-2.9895,-2.9718,-2.9287,-2.8752,-2.8875,-2.8665,-2.8554,-2.8661,-2.9079,-2.9766,-3.0025,-3.0151,-3.0675,-3.0776,-3.0458,-3.0383,-3.0097,-2.9759,-2.9131,-2.8712,-2.8607,-2.7964,-2.8083,-2.8487,-2.8629,-2.9237,-3.0322,-3.08,-3.0966,-3.1747,-3.1607,-3.1046,-3.0548,-2.9863,-2.919,-2.9049,-2.9513,-2.9999,-3.0244,-3.1033,-3.1547,-3.1952,-3.2222,-3.2442,-3.2679,-3.2628,-3.1867,-3.1495,-3.1275,-3.119,-3.119,-3.119,-3.119,-3.119,-3.119,-3.119,-3.119,-3.119,-3.1004,-3.048,-3.0251,-3.0287,-3.0247,-3.0299,-3.0068,-2.9608,-2.9663,-2.9791,-2.9493,-2.9192,-2.9192,-2.9264,-2.9409,-2.9644,-2.9979,-3.0124,-3.0269,-2.5557,-2.5527,-2.5674,-2.5732,-2.5732,-2.5732,-2.5732,-2.5732,-2.5732,-2.5732,-2.5732,-2.5732,-2.5732,-2.583,-2.6014,-2.6294,-2.6294,-2.6794,-2.7536,-2.8434,-2.9084,-3.0362,-3.1359,-3.204,-3.2451,-3.2619,-3.278,-3.2805,-3.2491,-3.2754,-3.3018,-3.2893,-3.2064,-3.1411,-3.0914,-3.0378,-3.0088,-3.02,-3.0248,-3.006,-2.9405,-2.9065,-2.8773,-2.8372,-2.808,-2.8079,-2.8352,-2.903,-2.9345,-2.9407,-2.9964,-3.0145,-2.9944,-2.9927,-2.998,-2.9933,-2.9579,-2.928,-2.925,-2.9026,-2.9011,-2.922,-2.9325,-2.9708,-3.0498,-3.0618,-3.1024,-3.1321,-3.1065,-3.0518,-2.9816,-2.8809,-2.8253,-2.8351,-2.8795,-2.9409,-2.9978,-3.1157,-3.2023,-3.23,-3.2594,-3.2594,-3.2747,-3.278,-3.2205,-3.1613,-3.1343,-3.1224,-3.1207,-3.119,-3.119,-3.119,-3.119,-3.119,-3.119,-3.119,-3.119,-3.0869,-3.0862,-3.0976,-3.0913,-3.0664,-3.0289,-2.9827,-3.0172,-3.0453,-2.9809,-2.9385,-2.9817,-3.0043,-3.0061,-2.9789,-2.9663,-2.9771,-2.9961,-2.5353,-2.5344,-2.5479,-2.5635,-2.5635,-2.5732,-2.5732,-2.5732,-2.5732,-2.5732,-2.5732,-2.5732,-2.5732,-2.583,-2.5917,-2.61,-2.61,-2.6496,-2.6976,-2.7872,-2.8527,-2.9715,-3.089,-3.1877,-3.2117,-3.2361,-3.2541,-3.2541,-3.2265,-3.2378,-3.2277,-3.1938,-3.1512,-3.0884,-3.0435,-3.0098,-3.0075,-3.0241,-3.0227,-3.0198,-2.9753,-2.947,-2.906,-2.8369,-2.7994,-2.7826,-2.7788,-2.8039,-2.8481,-2.8661,-2.901,-2.9468,-2.9475,-2.9566,-2.9752,-2.9882,-2.9624,-2.949,-2.9729,-2.9564,-2.9684,-3.0268,-3.0058,-3.0238,-3.0687,-3.0941,-3.112,-3.112,-3.0552,-3.0193,-2.9714,-2.8607,-2.8411,-2.8612,-2.8876,-2.9533,-2.9842,-3.105,-3.2264,-3.2577,-3.3068,-3.2976,-3.2797,-3.2628,-3.2442,-3.1901,-3.141,-3.1376,-3.1309,-3.1224,-3.1207,-3.119,-3.119,-3.119,-3.119,-3.119,-3.119,-3.119,-3.1252,-3.1312,-3.1086,-3.0726,-3.0386,-3.0085,-3.0119,-3.0066,-2.9699,-2.9557,-2.9846,-3.0207,-3.0496,-3.0097,-2.95,-2.9826,-3.0341,-2.456,-2.4689,-2.5121,-2.5382,-2.5596,-2.5703,-2.5732,-2.5732,-2.5732,-2.5732,-2.5732,-2.5732,-2.5732,-2.5732,-2.6014,-2.6004,-2.61,-2.6304,-2.6688,-2.6965,-2.762,-2.8795,-2.9886,-3.0699,-3.1559,-3.235,-3.2541,-3.224,-3.2089,-3.1888,-3.1411,-3.0947,-3.0871,-3.0419,-3.0055,-2.9919,-2.9934,-3.0164,-3.0203,-3.0087,-2.9941,-2.9706,-2.9171,-2.8607,-2.8278,-2.7902,-2.7788,-2.7973,-2.8287,-2.8532,-2.8939,-2.9247,-2.9371,-2.9406,-2.9474,-2.9451,-2.9024,-2.9774,-3.0253,-3.0103,-3.0372,-3.0956,-3.0791,-3.1016,-3.121,-3.133,-3.133,-3.1228,-3.0911,-3.0687,-3.0283,-2.9849,-2.943,-2.9539,-2.9644,-2.9875,-2.9933,-3.0895,-3.2172,-3.2968,-3.3632,-3.3707,-3.3355,-3.3102,-3.2942,-3.2476,-3.2104,-3.207,-3.1884,-3.1258,-3.1241,-3.119,-3.119,-3.119,-3.119,-3.119,-3.119,-3.119,-3.1173,-3.1184,-3.0993,-3.0748,-3.0247,-2.99,-2.9837,-2.9739,-2.979,-2.9699,-2.9673,-3.0116,-3.1021,-3.0785,-3.0314,-3.1021,-3.1401,-2.3966,-2.3975,-2.4287,-2.4687,-2.4996,-2.5499,-2.5732,-2.5732,-2.5732,-2.5732,-2.5732,-2.5732,-2.5732,-2.5732,-2.5732,-2.583,-2.5917,-2.611,-2.64,-2.6764,-2.7284,-2.868,-2.9784,-3.0641,-3.144,-3.1782,-3.1905,-3.168,-3.1217,-3.1122,-3.1035,-3.0733,-3.0482,-3.0168,-2.9917,-2.9767,-2.9883,-2.9922,-2.9948,-2.9897,-2.9691,-2.9452,-2.8957,-2.8459,-2.8105,-2.773,-2.7668,-2.7723,-2.7842,-2.7908,-2.796,-2.812,-2.8154,-2.8194,-2.839,-2.9551,-3.0125,-3.0926,-3.1135,-3.1061,-3.1106,-3.1375,-3.127,-3.1345,-3.1437,-3.148,-3.1345,-3.1225,-3.1091,-3.0821,-3.0462,-3.0088,-2.9849,-2.9885,-2.9955,-3.0072,-3.0284,-3.1076,-3.2364,-3.3176,-3.3867,-3.3939,-3.3614,-3.376,-3.3532,-3.3094,-3.2831,-3.278,-3.2527,-3.1918,-3.1461,-3.1427,-3.1343,-3.1393,-3.1224,-3.119,-3.119,-3.119,-3.1173,-3.114,-3.1065,-3.0738,-3.0099,-2.9695,-2.9503,-2.9822,-3.0232,-3.0058,-2.9826,-3.1008,-3.1818,-3.1492,-3.1365,-3.1962,-3.2107,-2.3495,-2.3682,-2.3868,-2.4198,-2.4636,-2.5003,-2.5215,-2.5273,-2.5576,-2.5732,-2.5732,-2.5732,-2.5732,-2.5732,-2.5732,-2.5732,-2.5723,-2.5796,-2.6074,-2.6648,-2.7191,-2.8222,-2.934,-3.0007,-3.0168,-3.0616,-3.0802,-3.0589,-3.027,-3.0161,-3.0193,-3.0281,-3.0143,-2.9779,-2.9503,-2.9365,-2.9328,-2.9378,-2.9429,-2.9403,-2.9223,-2.8959,-2.8479,-2.8105,-2.7764,-2.765,-2.7482,-2.7469,-2.7469,-2.7469,-2.7469,-2.7723,-2.803,-2.8443,-2.8923,-3.0017,-3.045,-3.1006,-3.1315,-3.1135,-3.1285,-3.145,-3.1467,-3.1467,-3.1452,-3.1437,-3.1273,-3.1123,-3.1016,-3.0806,-3.0417,-3.0088,-3.0028,-2.9953,-3.0111,-3.032,-3.0906,-3.1542,-3.2424,-3.3257,-3.3661,-3.3852,-3.3946,-3.4147,-3.4095,-3.3584,-3.3389,-3.3474,-3.322,-3.2747,-3.2188,-3.1884,-3.1749,-3.1647,-3.1427,-3.119,-3.119,-3.119,-3.119,-3.1157,-3.1089,-3.0789,-3.0258,-2.9638,-2.9076,-2.9562,-3.0119,-3.0153,-3.0196,-3.144,-3.2376,-3.2151,-3.2115,-3.256,-3.2451,-2.3075,-2.3559,-2.3615,-2.3884,-2.4273,-2.4453,-2.4473,-2.4502,-2.5244,-2.5615,-2.5566,-2.5596,-2.5527,-2.543,-2.543,-2.5459,-2.5293,-2.5248,-2.555,-2.6325,-2.6083,-2.6988,-2.8109,-2.8327,-2.8908,-2.9155,-2.9317,-2.9306,-2.9129,-2.9034,-2.9232,-2.9589,-2.9202,-2.8913,-2.89,-2.8875,-2.8725,-2.861,-2.8673,-2.8698,-2.8711,-2.8492,-2.8155,-2.7921,-2.779,-2.7828,-2.7587,-2.7456,-2.7469,-2.7469,-2.7511,-2.7709,-2.8265,-2.9031,-2.9722,-3.0113,-3.0192,-3.0467,-3.076,-3.0713,-3.0932,-3.1198,-3.1495,-3.1467,-3.1467,-3.1467,-3.1317,-3.1165,-3.1001,-3.0971,-3.0672,-3.0537,-3.0477,-3.0477,-3.0573,-3.0714,-3.1036,-3.1649,-3.2289,-3.3029,-3.3404,-3.3596,-3.3881,-3.4051,-3.4549,-3.4021,-3.4049,-3.4218,-3.4049,-3.3643,-3.2916,-3.2357,-3.1833,-3.1579,-3.1376,-3.119,-3.119,-3.119,-3.119,-3.097,-3.0768,-3.0598,-3.0446,-2.9799,-2.916,-2.9437,-2.9809,-3.0164,-3.0847,-3.1938,-3.2637,-3.2667,-3.2834,-3.3015,-3.2965,-2.182,-2.2233,-2.2903,-2.3391,-2.3702,-2.4185,-2.4394,-2.4424,-2.4619,-2.4697,-2.4736,-2.4736,-2.4775,-2.4844,-2.4814,-2.4795,-2.4678,-2.4526,-2.4792,-2.5177,-2.5179,-2.5965,-2.7298,-2.7423,-2.7787,-2.8151,-2.8229,-2.8023,-2.7891,-2.7879,-2.7952,-2.824,-2.8188,-2.831,-2.831,-2.831,-2.8172,-2.7908,-2.7795,-2.7971,-2.8097,-2.7952,-2.7723,-2.7633,-2.7593,-2.7488,-2.7364,-2.7417,-2.7443,-2.7443,-2.7066,-2.7039,-2.718,-2.8007,-2.8367,-2.8504,-2.9416,-2.9811,-2.9987,-3.0308,-3.0761,-3.0917,-3.121,-3.142,-3.1467,-3.1467,-3.142,-3.1195,-3.1061,-3.1061,-3.1046,-3.0986,-3.0941,-3.0986,-3.1031,-3.112,-3.121,-3.1678,-3.2245,-3.2635,-3.3061,-3.3437,-3.3707,-3.4163,-3.4647,-3.493,-3.511,-3.5233,-3.5098,-3.4709,-3.3525,-3.2797,-3.1765,-3.1393,-3.1309,-3.119,-3.119,-3.119,-3.119,-3.0886,-3.0531,-3.0395,-3.026,-2.977,-2.9372,-2.9693,-3.0214,-3.0906,-3.1673,-3.2462,-3.2624,-3.2541,-3.2665,-3.2822,-3.3015,-2.1231,-2.1429,-2.2347,-2.2792,-2.2919,-2.3388,-2.3467,-2.331,-2.3291,-2.3291,-2.3477,-2.4014,-2.4404,-2.4336,-2.4238,-2.4092,-2.4014,-2.3791,-2.4058,-2.4355,-2.4713,-2.5254,-2.5876,-2.6322,-2.6216,-2.6524,-2.6745,-2.6701,-2.6781,-2.6954,-2.7085,-2.7541,-2.7815,-2.7745,-2.7745,-2.7733,-2.762,-2.7344,-2.708,-2.7168,-2.7431,-2.7246,-2.7139,-2.7125,-2.7135,-2.7031,-2.6998,-2.6986,-2.6896,-2.6817,-2.6425,-2.6569,-2.6865,-2.7467,-2.7917,-2.8449,-2.919,-2.9846,-2.9783,-3.0075,-3.069,-3.0832,-3.1123,-3.1437,-3.1467,-3.1467,-3.1452,-3.1315,-3.133,-3.133,-3.13,-3.124,-3.127,-3.1315,-3.13,-3.133,-3.1504,-3.1804,-3.2124,-3.2338,-3.2851,-3.3441,-3.3828,-3.4341,-3.4808,-3.5256,-3.5526,-3.5588,-3.5588,-3.5334,-3.4235,-3.3271,-3.2273,-3.1765,-3.1799,-3.1512,-3.119,-3.119,-3.119,-3.1055,-3.0818,-3.0412,-3.0057,-2.9871,-2.9844,-3.008,-3.0636,-3.1139,-3.167,-3.2279,-3.2347,-3.2294,-3.2423,-3.2509,-3.2673,-2.0863,-2.1016,-2.1693,-2.2016,-2.2101,-2.2272,-2.2285,-2.1992,-2.1934,-2.1953,-2.2168,-2.3447,-2.4023,-2.3955,-2.375,-2.3623,-2.3438,-2.2948,-2.3196,-2.3764,-2.4119,-2.4385,-2.4588,-2.4788,-2.4753,-2.4735,-2.4884,-2.5485,-2.5962,-2.5913,-2.6146,-2.7299,-2.7413,-2.7097,-2.7168,-2.713,-2.7017,-2.6779,-2.659,-2.6596,-2.6546,-2.6445,-2.6488,-2.6612,-2.6659,-2.6537,-2.6401,-2.6298,-2.6179,-2.5957,-2.5775,-2.5929,-2.6304,-2.6827,-2.7273,-2.7895,-2.876,-2.9228,-2.9485,-2.9826,-3.0368,-3.0774,-3.1113,-3.1275,-3.126,-3.1465,-3.145,-3.1405,-3.142,-3.1437,-3.1465,-3.145,-3.1422,-3.1524,-3.1509,-3.1552,-3.1754,-3.194,-3.2023,-3.2145,-3.2664,-3.3323,-3.3836,-3.435,-3.4864,-3.5316,-3.556,-3.5577,-3.552,-3.5081,-3.4353,-3.3626,-3.2865,-3.251,-3.2121,-3.1698,-3.119,-3.119,-3.119,-3.119,-3.1055,-3.0531,-3.0294,-3.0378,-3.0404,-3.0551,-3.0609,-3.0942,-3.1513,-3.2004,-3.1708,-3.1585,-3.1744,-3.188,-3.2163,-2.0301,-2.0614,-2.1044,-2.1231,-2.1389,-2.163,-2.1768,-2.1894,-2.1865,-2.1894,-2.1953,-2.206,-2.2373,-2.2393,-2.2314,-2.2295,-2.2383,-2.2065,-2.2478,-2.3013,-2.3048,-2.3271,-2.3479,-2.3625,-2.3472,-2.3495,-2.3614,-2.3731,-2.4647,-2.4487,-2.4566,-2.5518,-2.5911,-2.6033,-2.659,-2.6609,-2.6477,-2.6314,-2.6433,-2.6433,-2.6251,-2.6101,-2.5799,-2.5757,-2.5597,-2.5459,-2.5422,-2.5473,-2.546,-2.5331,-2.5133,-2.5179,-2.5559,-2.5985,-2.64,-2.691,-2.7845,-2.7886,-2.8107,-2.8609,-2.9026,-2.9239,-2.9601,-3.0421,-3.0669,-3.1255,-3.1195,-3.1046,-3.112,-3.1405,-3.1435,-3.139,-3.1405,-3.1495,-3.1582,-3.1655,-3.1784,-3.1955,-3.2038,-3.2176,-3.2437,-3.2949,-3.3391,-3.3903,-3.4415,-3.4864,-3.527,-3.527,-3.5266,-3.4818,-3.4361,-3.3753,-3.3128,-3.229,-3.1512,-3.1495,-3.119,-3.119,-3.119,-3.119,-3.0987,-3.0531,-3.0395,-3.0632,-3.0835,-3.0959,-3.1023,-3.0967,-3.1155,-3.1479,-3.0988,-3.082,-3.1038,-3.1352,-3.1724]}]]